[[{"header":{"parameterUnit":"m.s-1","parameterCategory":1,"la1":31.0,"la2":29.5877,"lo1":-88.7671,"lo2":-86.6584,"dy":0.0162,"dx":0.0185,"nx":115,"ny":88,"refTime":"2023-03-19T12:00:00:Z","depth":0,"parameterNumber":2,"parameterNumberName":"U-component_of_WINDS"},"data":[0.0,0.0,0.0,0.0,0.0,0.0,0.0,0.0,0.0,0.0,0.0,0.0,0.0,0.0,0.0,0.0,0.0,0.0,0.0,0.0,0.0,0.0,0.0,0.0,0.0,0.0,0.0,0.0,0.0,0.0,0.0,0.0,0.0,0.0,0.0,0.0,0.0,0.0,0.0,0.0,0.0,0.0,0.0,0.0,0.0,0.0,0.0,0.0,0.0,0.0,0.0,0.0,0.0,0.0,0.0,0.0,0.0,0.0,0.0,0.0,0.0,0.0,0.0,0.0,0.0,0.0,0.0,0.0,0.0,0.0,0.0,0.0,0.0,0.0,0.0,0.0,0.0,0.0,0.0,0.0,0.0,0.0,0.0,0.0,0.0,0.0,0.0,0.0,0.0,0.0,0.0,0.0,0.0,0.0,0.0,0.0,0.0,0.0,0.0,0.0,0.0,0.0,0.0,0.0,0.0,0.0,0.0,0.0,0.0,0.0,0.0,0.0,0.0,0.0,0.0,0.0,0.0,0.0,0.0,0.0,0.0,0.0,0.0,0.0,0.0,0.0,0.0,0.0,0.0,0.0,0.0,0.0,0.0,0.0,0.0,0.0,0.0,0.0,0.0,0.0,0.0,0.0,0.0,0.0,0.0,0.0,0.0,0.0,0.0,0.0,0.0,0.0,0.0,0.0,0.0,0.0,0.0,0.0,0.0,0.0,0.0,0.0,0.0,0.0,0.0,0.0,0.0,0.0,0.0,0.0,0.0,0.0,0.0,0.0,0.0,0.0,0.0,0.0,0.0,0.0,0.0,0.0,0.0,0.0,0.0,0.0,0.0,0.0,0.0,0.0,0.0,0.0,0.0,0.0,0.0,0.0,0.0,0.0,0.0,0.0,0.0,0.0,0.0,0.0,0.0,0.0,0.0,0.0,0.0,0.0,0.0,0.0,0.0,0.0,0.0,0.0,0.0,0.0,0.0,0.0,0.0,0.0,0.0,0.0,0.0,0.0,0.0,0.0,0.0,0.0,0.0,0.0,0.0,0.0,0.0,0.0,0.0,0.0,0.0,0.0,0.0,0.0,0.0,0.0,0.0,0.0,0.0,0.0,0.0,0.0,0.0,0.0,0.0,0.0,0.0,0.0,0.0,0.0,0.0,0.0,0.0,0.0,0.0,0.0,0.0,0.0,0.0,0.0,0.0,0.0,0.0,0.0,0.0,0.0,0.0,0.0,0.0,0.0,0.0,0.0,0.0,0.0,0.0,0.0,0.0,0.0,0.0,0.0,0.0,0.0,0.0,0.0,0.0,0.0,0.0,0.0,0.0,0.0,0.0,0.0,0.0,0.0,0.0,0.0,0.0,0.0,0.0,0.0,0.0,0.0,0.0,0.0,0.0,0.0,0.0,0.0,0.0,0.0,0.0,0.0,0.0,0.0,0.0,0.0,0.0,0.0,0.0,0.0,0.0,0.0,0.0,0.0,0.0,0.0,0.0,0.0,0.0,0.0,0.0,0.0,0.0,0.0,0.0,0.0,0.0,0.0,0.0,0.0,0.0,0.0,0.0,0.0,0.0,0.0,0.0,0.0,0.0,0.0,0.0,0.0,0.0,0.0,0.0,0.0,0.0,0.0,0.0,0.0,0.0,0.0,0.0,0.0,0.0,0.0,0.0,0.0,0.0,0.0,0.0,0.0,0.0,0.0,0.0,0.0,0.0,0.0,0.0,0.0,0.0,0.0,0.0,0.0,0.0,0.0,0.0,0.0,0.0,0.0,0.0,0.0,0.0,0.0,0.0,0.0,0.0,0.0,0.0,0.0,0.0,0.0,0.0,0.0,0.0,0.0,0.0,0.0,0.0,0.0,0.0,0.0,0.0,0.0,0.0,0.0,0.0,0.0,0.0,0.0,0.0,0.0,0.0,0.0,0.0,0.0,0.0,0.0,0.0,0.0,0.0,0.0,0.0,0.0,0.0,0.0,0.0,0.0,0.0,0.0,0.0,0.0,0.0,0.0,0.0,0.0,0.0,0.0,0.0,0.0,0.0,0.0,0.0,0.0,0.0,0.0,0.0,0.0,0.0,0.0,0.0,0.0,0.0,0.0,0.0,0.0,0.0,0.0,0.0,0.0,0.0,0.0,0.0,0.0,0.0,0.0,0.0,0.0,0.0,0.0,0.0,0.0,0.0,0.0,0.0,0.0,0.0,0.0,0.0,0.0,0.0,0.0,0.0,0.0,0.0,0.0,0.0,0.0,0.0,0.0,0.0,0.0,0.0,0.0,0.0,0.0,0.0,0.0,0.0,0.0,0.0,0.0,0.0,0.0,0.0,0.0,0.0,0.0,0.0,0.0,0.0,0.0,0.0,0.0,0.0,0.0,0.0,0.0,0.0,0.0,0.0,0.0,0.0,0.0,0.0,0.0,0.0,0.0,0.0,0.0,0.0,0.0,0.0,0.0,0.0,0.0,0.0,0.0,0.0,0.0,0.0,0.0,0.0,0.0,0.0,0.0,0.0,0.0,0.0,0.0,0.0,0.0,0.0,0.0,0.0,0.0,0.0,0.0,0.0,0.0,0.0,0.0,0.0,0.0,0.0,0.0,0.0,0.0,0.0,0.0,0.0,0.0,0.0,0.0,0.0,0.0,0.0,0.0,0.0,0.0,0.0,0.0,0.0,0.0,0.0,0.0,0.0,0.0,0.0,0.0,0.0,0.0,0.0,0.0,0.0,0.0,0.0,0.0,0.0,0.0,0.0,0.0,0.0,0.0,0.0,0.0,0.0,0.0,0.0,0.0,0.0,0.0,0.0,0.0,0.0,0.0,0.0,0.0,0.0,0.0,0.0,0.0,0.0,0.0,0.0,0.0,0.0,0.0,0.0,0.0,0.0,0.0,0.0,0.0,0.0,0.0,0.0,0.0,0.0,0.0,0.0,0.0,0.0,0.0,0.0,0.0,0.0,0.0,0.0,0.0,0.0,0.0,0.0,0.0,0.0,0.0,0.0,0.0,0.0,0.0,0.0,0.0,0.0,0.0,0.0,0.0,0.0,0.0,0.0,0.0,0.0,0.0,0.0,0.0,0.0,0.0,0.0,0.0,0.0,0.0,0.0,0.0,0.0,0.0,0.0,0.0,0.0,0.0,0.0,0.0,0.0,0.0,0.0,0.0,0.0,0.0,0.0,0.0,0.0,0.0,0.0,0.0,0.0,0.0,0.0,0.0,0.0,0.0,0.0,0.0,0.0,0.0,0.0,0.0,0.0,0.0,0.0,0.0,0.0,0.0,0.0,0.0,0.0,0.0,0.0,0.0,0.0,0.0,0.0,0.0,0.0,0.0,0.0,0.0,0.0,0.0,0.0,0.0,0.0,0.0,0.0,0.0,0.0,0.0,0.0,0.0,0.0,0.0,0.0,0.0,0.0,0.0,0.0,0.0,0.0,0.0,0.0,0.0,0.0,0.0,0.0,0.0,0.0,0.0,0.0,0.0,0.0,0.0,0.0,0.0,0.0,0.0,0.0,0.0,0.0,0.0,0.0,0.0,0.0,0.0,0.0,0.0,0.0,0.0,0.0,0.0,0.0,0.0,0.0,0.0,0.0,0.0,0.0,0.0,0.0,0.0,0.0,0.0,0.0,0.0,0.0,0.0,0.0,0.0,0.0,0.0,0.0,0.0,0.0,0.0,0.0,0.0,0.0,0.0,0.0,0.0,0.0,0.0,0.0,0.0,0.0,0.0,0.0,0.0,0.0,0.0,0.0,0.0,0.0,0.0,0.0,0.0,0.0,0.0,0.0,0.0,0.0,0.0,0.0,0.0,0.0,0.0,0.0,0.0,0.0,0.0,0.0,0.0,0.0,0.0,0.0,0.0,0.0,0.0,0.0,0.0,0.0,0.0,0.0,0.0,0.0,0.0,0.0,0.0,0.0,0.0,0.0,0.0,0.0,0.0,0.0,0.0,0.0,0.0,0.0,0.0,0.0,0.0,0.0,0.0,0.0,0.0,0.0,0.0,0.0,0.0,0.0,0.0,0.0,0.0,0.0,0.0,0.0,0.0,0.0,0.0,0.0,0.0,0.0,0.0,0.0,0.0,0.0,0.0,0.0,0.0,0.0,0.0,0.0,0.0,0.0,0.0,0.0,0.0,0.0,0.0,0.0,0.0,0.0,0.0,0.0,0.0,0.0,0.0,0.0,0.0,0.0,0.0,0.0,0.0,0.0,0.0,0.0,0.0,0.0,0.0,0.0,0.0,0.0,0.0,0.0,0.0,0.0,0.0,0.0,0.0,0.0,0.0,-4.4005,0.0,0.0,0.0,0.0,0.0,0.0,0.0,0.0,0.0,0.0,0.0,0.0,0.0,0.0,0.0,0.0,0.0,0.0,0.0,0.0,0.0,0.0,0.0,0.0,0.0,0.0,0.0,0.0,0.0,0.0,0.0,0.0,0.0,0.0,0.0,0.0,0.0,0.0,0.0,0.0,0.0,0.0,0.0,0.0,0.0,0.0,0.0,0.0,0.0,0.0,0.0,0.0,0.0,0.0,0.0,0.0,0.0,0.0,0.0,0.0,0.0,0.0,0.0,0.0,0.0,0.0,0.0,0.0,0.0,0.0,0.0,0.0,0.0,0.0,0.0,0.0,0.0,0.0,0.0,0.0,0.0,0.0,0.0,0.0,0.0,0.0,0.0,0.0,0.0,0.0,0.0,0.0,0.0,0.0,0.0,0.0,0.0,0.0,0.0,0.0,0.0,0.0,0.0,0.0,0.0,0.0,0.0,0.0,0.0,0.0,-4.4005,-4.4005,-4.4005,-4.3782,-4.3336,0.0,0.0,0.0,0.0,0.0,0.0,0.0,0.0,0.0,0.0,0.0,0.0,0.0,0.0,0.0,0.0,0.0,0.0,0.0,0.0,0.0,0.0,0.0,0.0,0.0,0.0,0.0,0.0,0.0,0.0,0.0,0.0,0.0,0.0,0.0,0.0,0.0,0.0,0.0,0.0,0.0,0.0,0.0,0.0,0.0,0.0,0.0,0.0,0.0,0.0,0.0,0.0,0.0,0.0,0.0,0.0,0.0,0.0,0.0,0.0,0.0,0.0,0.0,0.0,0.0,0.0,0.0,0.0,0.0,0.0,0.0,0.0,0.0,0.0,0.0,0.0,0.0,0.0,0.0,0.0,0.0,0.0,0.0,0.0,0.0,0.0,0.0,0.0,0.0,0.0,0.0,0.0,0.0,0.0,0.0,0.0,0.0,0.0,0.0,0.0,0.0,0.0,0.0,0.0,0.0,0.0,0.0,0.0,0.0,0.0,0.0,0.0,-4.3819,-4.3262,-4.2259,0.0,0.0,0.0,0.0,0.0,0.0,0.0,0.0,0.0,0.0,0.0,0.0,0.0,0.0,0.0,0.0,0.0,0.0,0.0,0.0,0.0,0.0,0.0,0.0,0.0,0.0,0.0,0.0,0.0,0.0,0.0,0.0,0.0,0.0,0.0,0.0,0.0,0.0,0.0,0.0,0.0,0.0,0.0,0.0,0.0,0.0,0.0,0.0,0.0,0.0,0.0,0.0,0.0,0.0,0.0,0.0,0.0,0.0,0.0,0.0,0.0,0.0,0.0,0.0,0.0,0.0,0.0,0.0,0.0,0.0,0.0,0.0,0.0,0.0,0.0,0.0,0.0,0.0,0.0,0.0,0.0,0.0,0.0,0.0,0.0,0.0,0.0,0.0,0.0,0.0,0.0,0.0,0.0,0.0,0.0,0.0,0.0,0.0,0.0,0.0,0.0,0.0,0.0,0.0,0.0,0.0,0.0,0.0,0.0,0.0,-4.4005,-4.4005,-4.328,0.0,-4.0717,0.0,0.0,0.0,0.0,0.0,0.0,0.0,0.0,0.0,0.0,0.0,0.0,0.0,0.0,0.0,0.0,0.0,0.0,0.0,0.0,0.0,0.0,0.0,0.0,0.0,0.0,0.0,0.0,0.0,0.0,0.0,0.0,0.0,0.0,0.0,0.0,0.0,0.0,0.0,0.0,0.0,0.0,0.0,0.0,0.0,0.0,0.0,0.0,0.0,0.0,0.0,0.0,0.0,0.0,0.0,0.0,0.0,0.0,0.0,0.0,0.0,0.0,0.0,0.0,0.0,0.0,0.0,0.0,0.0,0.0,0.0,0.0,0.0,0.0,0.0,0.0,0.0,0.0,0.0,0.0,0.0,0.0,0.0,0.0,0.0,0.0,0.0,0.0,0.0,0.0,0.0,0.0,0.0,0.0,0.0,0.0,0.0,0.0,0.0,0.0,0.0,0.0,0.0,0.0,0.0,0.0,0.0,0.0,0.0,0.0,-4.4005,-4.4005,-4.276,-4.1568,0.0,0.0,0.0,0.0,0.0,0.0,0.0,0.0,0.0,0.0,0.0,0.0,0.0,0.0,0.0,0.0,0.0,0.0,0.0,0.0,0.0,0.0,0.0,0.0,0.0,0.0,0.0,0.0,0.0,0.0,0.0,0.0,0.0,0.0,0.0,0.0,0.0,0.0,0.0,0.0,0.0,0.0,0.0,0.0,0.0,0.0,0.0,0.0,0.0,0.0,0.0,0.0,0.0,0.0,0.0,0.0,0.0,0.0,0.0,0.0,0.0,0.0,0.0,0.0,0.0,0.0,0.0,0.0,0.0,0.0,0.0,0.0,0.0,0.0,0.0,0.0,0.0,0.0,0.0,0.0,0.0,0.0,0.0,0.0,0.0,0.0,0.0,0.0,0.0,0.0,0.0,0.0,0.0,0.0,0.0,0.0,0.0,0.0,0.0,0.0,0.0,0.0,0.0,0.0,0.0,0.0,0.0,0.0,0.0,0.0,-4.4005,-4.3801,-4.3336,-4.2203,-4.1107,-4.0085,0.0,0.0,0.0,0.0,0.0,0.0,0.0,0.0,0.0,0.0,0.0,0.0,0.0,0.0,0.0,0.0,0.0,0.0,0.0,0.0,0.0,0.0,0.0,0.0,0.0,0.0,0.0,0.0,0.0,0.0,0.0,0.0,0.0,0.0,0.0,0.0,0.0,0.0,0.0,0.0,0.0,0.0,0.0,0.0,0.0,0.0,0.0,0.0,0.0,0.0,0.0,0.0,0.0,0.0,0.0,0.0,0.0,0.0,0.0,0.0,0.0,0.0,0.0,0.0,0.0,0.0,0.0,0.0,0.0,0.0,0.0,0.0,0.0,0.0,0.0,0.0,0.0,0.0,0.0,0.0,0.0,0.0,0.0,0.0,0.0,0.0,0.0,0.0,0.0,0.0,0.0,0.0,0.0,0.0,0.0,0.0,0.0,0.0,0.0,0.0,0.0,0.0,0.0,0.0,0.0,0.0,0.0,0.0,-4.4005,-4.4005,-4.3262,-4.1794,-4.1627,-4.0828,0.0,0.0,0.0,0.0,0.0,0.0,0.0,0.0,0.0,0.0,0.0,0.0,0.0,0.0,0.0,0.0,0.0,0.0,0.0,0.0,0.0,0.0,0.0,0.0,0.0,0.0,0.0,0.0,0.0,0.0,0.0,0.0,0.0,0.0,0.0,0.0,0.0,0.0,0.0,0.0,0.0,0.0,0.0,0.0,0.0,0.0,0.0,0.0,0.0,0.0,0.0,0.0,0.0,0.0,0.0,0.0,0.0,0.0,0.0,0.0,0.0,0.0,0.0,0.0,0.0,0.0,0.0,0.0,0.0,0.0,0.0,0.0,0.0,0.0,0.0,0.0,0.0,0.0,0.0,0.0,0.0,0.0,0.0,0.0,0.0,0.0,0.0,0.0,0.0,0.0,0.0,0.0,0.0,0.0,0.0,0.0,0.0,0.0,0.0,0.0,0.0,0.0,0.0,0.0,0.0,0.0,0.0,0.0,0.0,-4.4005,-4.4005,-4.3225,-4.1683,-4.1605,-4.081,0.0,0.0,0.0,0.0,0.0,0.0,0.0,0.0,0.0,0.0,0.0,0.0,0.0,0.0,0.0,0.0,0.0,0.0,0.0,0.0,0.0,0.0,0.0,0.0,0.0,0.0,0.0,0.0,0.0,0.0,0.0,0.0,0.0,0.0,0.0,0.0,0.0,0.0,0.0,0.0,0.0,0.0,0.0,0.0,0.0,0.0,0.0,0.0,0.0,0.0,0.0,0.0,0.0,0.0,0.0,0.0,0.0,0.0,0.0,0.0,0.0,0.0,0.0,0.0,0.0,0.0,0.0,0.0,0.0,0.0,0.0,0.0,0.0,0.0,0.0,0.0,0.0,0.0,0.0,0.0,0.0,0.0,0.0,0.0,0.0,0.0,0.0,0.0,0.0,0.0,0.0,0.0,0.0,0.0,0.0,0.0,0.0,0.0,0.0,0.0,0.0,0.0,0.0,0.0,0.0,0.0,0.0,0.0,0.0,-4.4005,0.0,-4.3243,-4.1683,-4.1605,-4.081,0.0,0.0,0.0,0.0,0.0,0.0,0.0,0.0,0.0,0.0,0.0,0.0,0.0,0.0,0.0,0.0,0.0,0.0,0.0,0.0,0.0,0.0,0.0,0.0,0.0,0.0,0.0,0.0,0.0,0.0,0.0,0.0,0.0,0.0,0.0,0.0,0.0,0.0,0.0,0.0,0.0,0.0,0.0,0.0,0.0,0.0,0.0,0.0,0.0,0.0,0.0,0.0,0.0,0.0,0.0,0.0,0.0,0.0,0.0,0.0,0.0,0.0,0.0,0.0,0.0,0.0,0.0,0.0,0.0,0.0,0.0,0.0,0.0,0.0,0.0,0.0,0.0,0.0,0.0,0.0,0.0,0.0,0.0,0.0,0.0,0.0,0.0,0.0,0.0,0.0,0.0,0.0,0.0,0.0,0.0,0.0,0.0,0.0,0.0,0.0,0.0,0.0,0.0,0.0,0.0,0.0,0.0,0.0,-4.4023,-4.4005,-4.4005,-4.3243,-4.1683,-4.1609,-4.081,0.0,0.0,0.0,0.0,0.0,0.0,0.0,0.0,0.0,0.0,0.0,0.0,0.0,0.0,0.0,0.0,0.0,0.0,0.0,0.0,0.0,0.0,0.0,0.0,0.0,0.0,0.0,0.0,0.0,0.0,0.0,0.0,0.0,0.0,0.0,0.0,0.0,0.0,0.0,0.0,0.0,0.0,0.0,0.0,0.0,0.0,0.0,0.0,0.0,0.0,0.0,0.0,0.0,0.0,0.0,0.0,0.0,0.0,0.0,0.0,0.0,0.0,0.0,0.0,0.0,0.0,0.0,0.0,0.0,0.0,0.0,0.0,0.0,0.0,0.0,0.0,0.0,0.0,0.0,0.0,0.0,0.0,0.0,0.0,0.0,0.0,0.0,0.0,0.0,0.0,0.0,0.0,0.0,0.0,0.0,0.0,0.0,0.0,0.0,0.0,0.0,0.0,0.0,0.0,0.0,0.0,0.0,0.0,0.0,-4.4023,-4.4005,-4.3503,-4.2463,-4.1887,-4.1103,0.0,0.0,0.0,0.0,0.0,0.0,0.0,0.0,0.0,0.0,0.0,0.0,0.0,0.0,0.0,0.0,0.0,0.0,0.0,0.0,0.0,0.0,0.0,0.0,0.0,0.0,0.0,0.0,0.0,0.0,0.0,0.0,0.0,0.0,0.0,0.0,0.0,0.0,0.0,0.0,0.0,0.0,0.0,0.0,0.0,0.0,0.0,0.0,0.0,0.0,0.0,0.0,0.0,0.0,0.0,0.0,0.0,0.0,0.0,0.0,0.0,0.0,0.0,0.0,0.0,0.0,0.0,0.0,0.0,0.0,0.0,0.0,0.0,0.0,0.0,0.0,0.0,0.0,0.0,0.0,0.0,0.0,0.0,0.0,0.0,0.0,0.0,0.0,0.0,0.0,0.0,0.0,0.0,0.0,0.0,0.0,0.0,0.0,0.0,0.0,0.0,0.0,0.0,0.0,0.0,0.0,0.0,0.0,0.0,-4.5379,-4.5082,-4.4544,-4.3745,-4.2927,-4.1813,-4.0438,0.0,0.0,0.0,0.0,0.0,0.0,0.0,0.0,0.0,0.0,0.0,0.0,0.0,0.0,0.0,0.0,0.0,0.0,0.0,0.0,0.0,0.0,0.0,0.0,0.0,0.0,0.0,0.0,0.0,0.0,0.0,0.0,0.0,0.0,0.0,0.0,0.0,0.0,0.0,0.0,0.0,0.0,0.0,0.0,0.0,0.0,0.0,0.0,0.0,0.0,0.0,0.0,0.0,0.0,0.0,0.0,0.0,0.0,0.0,0.0,0.0,0.0,0.0,0.0,0.0,0.0,0.0,0.0,0.0,0.0,0.0,0.0,0.0,0.0,0.0,0.0,0.0,0.0,0.0,0.0,0.0,0.0,0.0,0.0,0.0,0.0,0.0,0.0,0.0,0.0,0.0,0.0,0.0,0.0,0.0,0.0,0.0,0.0,0.0,0.0,0.0,0.0,0.0,0.0,0.0,0.0,0.0,0.0,-4.7887,-4.7125,-4.629,-4.5435,-4.4488,-4.289,0.0,0.0,0.0,0.0,0.0,0.0,0.0,0.0,0.0,0.0,0.0,0.0,0.0,0.0,0.0,0.0,0.0,0.0,0.0,0.0,0.0,0.0,0.0,0.0,0.0,0.0,0.0,0.0,0.0,0.0,0.0,0.0,0.0,0.0,0.0,0.0,0.0,0.0,0.0,0.0,0.0,0.0,0.0,0.0,0.0,0.0,0.0,0.0,0.0,0.0,0.0,0.0,0.0,0.0,0.0,0.0,0.0,0.0,0.0,0.0,0.0,0.0,0.0,0.0,0.0,0.0,0.0,0.0,0.0,0.0,0.0,0.0,0.0,0.0,0.0,0.0,0.0,0.0,0.0,0.0,0.0,0.0,0.0,0.0,0.0,0.0,0.0,0.0,0.0,0.0,0.0,0.0,0.0,0.0,0.0,0.0,0.0,0.0,0.0,0.0,0.0,0.0,0.0,0.0,0.0,0.0,0.0,0.0,0.0,-5.0302,-4.9652,-4.8537,-4.7088,-4.5082,-4.3429,0.0,0.0,0.0,0.0,0.0,0.0,0.0,0.0,0.0,0.0,0.0,0.0,0.0,0.0,0.0,0.0,0.0,0.0,0.0,0.0,0.0,0.0,0.0,0.0,0.0,0.0,0.0,0.0,0.0,0.0,0.0,0.0,0.0,0.0,0.0,0.0,0.0,0.0,0.0,0.0,0.0,0.0,0.0,0.0,0.0,0.0,0.0,0.0,0.0,0.0,0.0,0.0,0.0,0.0,0.0,0.0,0.0,0.0,0.0,0.0,0.0,0.0,0.0,0.0,0.0,0.0,0.0,0.0,0.0,0.0,0.0,0.0,0.0,0.0,0.0,0.0,0.0,0.0,0.0,0.0,0.0,0.0,0.0,0.0,0.0,0.0,0.0,0.0,0.0,0.0,0.0,0.0,0.0,0.0,0.0,0.0,0.0,0.0,0.0,0.0,0.0,0.0,0.0,0.0,0.0,0.0,0.0,0.0,-4.9542,-5.1269,-5.086,-5.0137,-4.9157,-4.6481,-4.4339,0.0,0.0,0.0,0.0,0.0,0.0,0.0,0.0,0.0,0.0,0.0,0.0,0.0,0.0,0.0,0.0,0.0,0.0,0.0,0.0,0.0,0.0,0.0,0.0,0.0,0.0,0.0,0.0,0.0,0.0,0.0,0.0,0.0,0.0,0.0,0.0,0.0,0.0,0.0,0.0,0.0,0.0,0.0,0.0,0.0,0.0,0.0,0.0,0.0,0.0,0.0,0.0,0.0,0.0,0.0,0.0,0.0,0.0,0.0,0.0,0.0,0.0,0.0,0.0,0.0,0.0,0.0,0.0,0.0,0.0,0.0,0.0,0.0,0.0,0.0,0.0,0.0,0.0,0.0,0.0,0.0,0.0,0.0,0.0,0.0,0.0,0.0,0.0,0.0,0.0,0.0,0.0,0.0,0.0,0.0,0.0,0.0,0.0,0.0,0.0,0.0,0.0,0.0,0.0,0.0,0.0,0.0,0.0,-5.0489,-5.1324,-5.1343,-5.1268,-5.1025,-4.8099,-4.54,0.0,0.0,0.0,0.0,0.0,0.0,0.0,0.0,0.0,0.0,0.0,0.0,0.0,0.0,0.0,0.0,0.0,0.0,0.0,0.0,0.0,0.0,0.0,0.0,0.0,0.0,0.0,0.0,0.0,0.0,0.0,0.0,0.0,0.0,0.0,0.0,0.0,0.0,0.0,0.0,0.0,0.0,0.0,0.0,0.0,0.0,0.0,0.0,0.0,0.0,0.0,0.0,0.0,0.0,0.0,0.0,0.0,0.0,0.0,0.0,0.0,0.0,0.0,0.0,0.0,0.0,0.0,0.0,0.0,0.0,0.0,0.0,0.0,0.0,0.0,0.0,0.0,0.0,0.0,0.0,0.0,0.0,0.0,0.0,0.0,0.0,0.0,0.0,0.0,0.0,0.0,0.0,0.0,0.0,0.0,0.0,0.0,0.0,0.0,0.0,0.0,0.0,0.0,0.0,0.0,0.0,0.0,0.0,-5.0804,-5.2252,-5.2177,-5.1824,-5.1176,-4.8027,-4.5786,0.0,0.0,0.0,0.0,0.0,0.0,0.0,0.0,0.0,0.0,0.0,0.0,0.0,0.0,0.0,0.0,0.0,0.0,0.0,0.0,0.0,0.0,0.0,0.0,0.0,0.0,0.0,0.0,0.0,0.0,0.0,0.0,0.0,0.0,0.0,0.0,0.0,0.0,0.0,0.0,0.0,0.0,0.0,0.0,0.0,0.0,0.0,0.0,-4.0973,0.0,0.0,0.0,0.0,0.0,0.0,0.0,0.0,0.0,0.0,0.0,0.0,0.0,0.0,0.0,0.0,0.0,0.0,0.0,0.0,0.0,0.0,0.0,0.0,0.0,0.0,0.0,0.0,0.0,0.0,0.0,0.0,0.0,0.0,0.0,0.0,0.0,0.0,0.0,0.0,0.0,0.0,0.0,0.0,0.0,0.0,0.0,0.0,0.0,0.0,0.0,0.0,0.0,0.0,0.0,0.0,0.0,0.0,0.0,-5.1287,-5.2456,-5.2436,-5.1971,-5.1025,-4.8678,-4.6626,0.0,0.0,0.0,0.0,0.0,0.0,0.0,0.0,0.0,0.0,0.0,0.0,0.0,0.0,0.0,0.0,0.0,0.0,0.0,0.0,0.0,0.0,0.0,0.0,0.0,0.0,0.0,0.0,0.0,0.0,0.0,0.0,0.0,0.0,0.0,0.0,0.0,0.0,0.0,0.0,0.0,0.0,0.0,0.0,0.0,0.0,0.0,0.0,0.0,0.0,0.0,0.0,0.0,0.0,0.0,0.0,0.0,0.0,0.0,0.0,0.0,0.0,0.0,0.0,0.0,0.0,0.0,0.0,0.0,0.0,0.0,0.0,0.0,0.0,0.0,0.0,0.0,0.0,0.0,0.0,0.0,0.0,0.0,0.0,0.0,0.0,0.0,0.0,0.0,0.0,0.0,0.0,0.0,0.0,0.0,0.0,0.0,0.0,0.0,0.0,0.0,0.0,0.0,0.0,0.0,0.0,0.0,-5.0247,-5.1751,-5.2546,-5.2545,-5.2004,-5.0926,-4.9509,-4.7628,-4.5212,0.0,0.0,0.0,0.0,0.0,0.0,0.0,0.0,0.0,0.0,0.0,0.0,0.0,0.0,0.0,0.0,0.0,0.0,0.0,0.0,0.0,0.0,0.0,0.0,0.0,0.0,0.0,0.0,0.0,0.0,0.0,0.0,0.0,0.0,0.0,0.0,0.0,0.0,-4.0453,-4.1163,0.0,0.0,0.0,0.0,0.0,0.0,0.0,0.0,-4.2612,0.0,0.0,0.0,0.0,0.0,0.0,0.0,0.0,0.0,0.0,0.0,0.0,0.0,0.0,0.0,0.0,0.0,0.0,0.0,0.0,0.0,0.0,0.0,0.0,0.0,0.0,0.0,0.0,0.0,0.0,0.0,0.0,0.0,0.0,0.0,0.0,0.0,0.0,0.0,0.0,0.0,0.0,0.0,0.0,0.0,0.0,0.0,0.0,0.0,0.0,0.0,0.0,0.0,0.0,0.0,0.0,-4.9689,-5.0731,-5.1954,-5.3435,-5.3276,-5.2438,-5.0943,-4.9946,-4.8271,-4.5846,0.0,0.0,0.0,0.0,0.0,0.0,0.0,0.0,0.0,0.0,0.0,0.0,0.0,0.0,0.0,0.0,0.0,0.0,0.0,0.0,0.0,0.0,0.0,0.0,0.0,0.0,0.0,0.0,0.0,0.0,0.0,0.0,0.0,0.0,0.0,0.0,0.0,0.0,0.0,-4.1516,-4.1887,0.0,0.0,0.0,0.0,0.0,0.0,0.0,0.0,-4.4451,0.0,0.0,0.0,0.0,0.0,0.0,0.0,0.0,0.0,0.0,0.0,0.0,0.0,0.0,0.0,0.0,0.0,0.0,0.0,0.0,0.0,0.0,0.0,0.0,0.0,0.0,0.0,0.0,0.0,0.0,0.0,0.0,0.0,0.0,0.0,0.0,0.0,0.0,0.0,0.0,0.0,0.0,0.0,0.0,0.0,0.0,0.0,0.0,0.0,0.0,0.0,0.0,0.0,0.0,0.0,-4.9989,-5.1213,-5.2397,-5.3561,-5.3479,-5.2605,-5.0961,-5.0094,-4.8473,0.0,0.0,0.0,0.0,0.0,0.0,0.0,0.0,0.0,0.0,0.0,0.0,0.0,0.0,0.0,0.0,0.0,0.0,0.0,0.0,0.0,0.0,0.0,0.0,0.0,0.0,0.0,0.0,0.0,0.0,0.0,0.0,0.0,0.0,0.0,0.0,0.0,0.0,0.0,0.0,-4.2965,-4.3801,-4.4599,0.0,0.0,0.0,0.0,0.0,0.0,-4.5584,-4.5157,0.0,0.0,0.0,0.0,0.0,0.0,0.0,0.0,0.0,0.0,0.0,0.0,0.0,0.0,0.0,0.0,0.0,0.0,0.0,0.0,0.0,0.0,0.0,0.0,0.0,0.0,0.0,0.0,0.0,0.0,0.0,0.0,0.0,0.0,0.0,0.0,0.0,0.0,0.0,0.0,0.0,0.0,0.0,0.0,0.0,0.0,0.0,0.0,0.0,0.0,0.0,0.0,0.0,0.0,0.0,-5.0232,-5.1638,-5.2689,-5.3424,-5.3439,-5.2698,-5.1163,-5.0168,-4.8585,0.0,0.0,0.0,0.0,0.0,0.0,0.0,0.0,0.0,0.0,0.0,0.0,0.0,0.0,0.0,0.0,0.0,0.0,0.0,0.0,0.0,0.0,0.0,0.0,0.0,0.0,0.0,0.0,0.0,0.0,0.0,0.0,0.0,0.0,0.0,0.0,0.0,0.0,0.0,0.0,0.0,-4.5379,-4.6345,-4.5342,0.0,0.0,0.0,0.0,-4.6531,-4.6178,0.0,0.0,0.0,0.0,0.0,0.0,0.0,0.0,0.0,0.0,0.0,0.0,0.0,0.0,0.0,0.0,0.0,0.0,0.0,0.0,0.0,0.0,0.0,0.0,0.0,0.0,0.0,0.0,0.0,0.0,0.0,0.0,0.0,0.0,0.0,0.0,0.0,0.0,0.0,0.0,0.0,0.0,0.0,0.0,0.0,0.0,0.0,0.0,0.0,0.0,0.0,0.0,0.0,0.0,0.0,0.0,-5.0991,-5.178,-5.251,-5.3263,-5.3272,-5.2805,-5.1869,-5.042,-4.8784,0.0,0.0,0.0,0.0,0.0,0.0,0.0,0.0,0.0,0.0,0.0,0.0,0.0,0.0,0.0,0.0,0.0,0.0,0.0,0.0,0.0,0.0,0.0,0.0,0.0,0.0,0.0,0.0,0.0,0.0,0.0,0.0,0.0,0.0,0.0,0.0,0.0,0.0,0.0,0.0,0.0,-4.4711,-4.6271,-4.6327,-4.6252,0.0,0.0,-4.733,-4.7534,-4.7478,0.0,0.0,0.0,0.0,0.0,0.0,0.0,0.0,0.0,0.0,0.0,0.0,0.0,0.0,0.0,0.0,0.0,0.0,0.0,0.0,0.0,0.0,0.0,0.0,0.0,0.0,0.0,0.0,0.0,0.0,0.0,0.0,0.0,0.0,0.0,0.0,0.0,0.0,0.0,0.0,0.0,0.0,0.0,0.0,0.0,0.0,0.0,0.0,0.0,0.0,0.0,0.0,0.0,0.0,0.0,-4.9196,-5.11,-5.2218,-5.2927,-5.3214,-5.3227,-5.2821,-5.2013,-5.0398,-4.8783,0.0,0.0,0.0,0.0,0.0,0.0,0.0,0.0,0.0,0.0,0.0,0.0,0.0,0.0,0.0,0.0,0.0,0.0,0.0,0.0,0.0,0.0,0.0,0.0,0.0,0.0,0.0,0.0,0.0,0.0,0.0,0.0,0.0,0.0,0.0,0.0,0.0,0.0,0.0,0.0,0.0,0.0,-4.642,-4.6884,0.0,0.0,0.0,-4.7701,-4.7701,0.0,0.0,0.0,0.0,0.0,0.0,0.0,0.0,0.0,0.0,0.0,0.0,0.0,0.0,0.0,0.0,0.0,0.0,0.0,0.0,0.0,0.0,0.0,0.0,0.0,0.0,0.0,0.0,0.0,0.0,0.0,0.0,0.0,0.0,0.0,0.0,0.0,0.0,0.0,0.0,0.0,0.0,0.0,0.0,0.0,0.0,0.0,0.0,0.0,0.0,0.0,0.0,0.0,0.0,0.0,0.0,0.0,-5.1099,-5.2528,-5.3272,-5.3206,-5.3185,-5.2913,-5.2307,-5.0894,0.0,0.0,0.0,0.0,0.0,0.0,0.0,0.0,0.0,0.0,0.0,0.0,0.0,0.0,0.0,0.0,0.0,0.0,0.0,0.0,0.0,0.0,0.0,0.0,0.0,0.0,0.0,-4.088,0.0,0.0,0.0,0.0,0.0,0.0,0.0,0.0,0.0,0.0,0.0,0.0,0.0,0.0,-4.6271,-4.6475,-4.7348,-4.7999,0.0,0.0,-4.7999,-4.7999,-4.7999,-4.7664,0.0,0.0,0.0,0.0,0.0,0.0,0.0,0.0,0.0,0.0,0.0,0.0,0.0,0.0,0.0,0.0,0.0,0.0,0.0,0.0,0.0,0.0,0.0,0.0,0.0,0.0,0.0,0.0,0.0,0.0,0.0,0.0,0.0,0.0,0.0,0.0,0.0,0.0,0.0,0.0,0.0,0.0,0.0,0.0,0.0,0.0,0.0,0.0,0.0,0.0,0.0,0.0,0.0,0.0,0.0,-5.108,-5.2484,-5.3206,-5.3185,-5.3185,-5.3188,-5.3093,-5.227,-5.1022,0.0,0.0,0.0,0.0,0.0,0.0,0.0,0.0,0.0,0.0,0.0,0.0,0.0,0.0,0.0,0.0,0.0,0.0,0.0,0.0,0.0,0.0,0.0,0.0,0.0,0.0,0.0,0.0,0.0,0.0,0.0,0.0,0.0,0.0,0.0,0.0,0.0,0.0,0.0,0.0,0.0,-4.5674,-4.6401,-4.7831,-4.8816,0.0,0.0,-4.8834,-4.8816,-4.8816,-4.8296,-4.6735,0.0,0.0,0.0,0.0,0.0,0.0,0.0,0.0,0.0,0.0,0.0,0.0,0.0,0.0,0.0,0.0,0.0,0.0,0.0,0.0,0.0,0.0,0.0,0.0,0.0,0.0,0.0,0.0,0.0,0.0,0.0,0.0,0.0,0.0,0.0,0.0,0.0,0.0,0.0,0.0,0.0,0.0,0.0,0.0,0.0,0.0,0.0,0.0,0.0,0.0,0.0,0.0,0.0,-4.9381,-5.0964,-5.2443,-5.3185,-5.3185,-5.3185,-5.3185,-5.3185,-5.2417,-5.1224,0.0,0.0,0.0,0.0,0.0,0.0,0.0,0.0,0.0,0.0,0.0,0.0,0.0,0.0,0.0,0.0,0.0,0.0,0.0,0.0,0.0,0.0,0.0,0.0,0.0,0.0,0.0,0.0,-4.5249,-4.5064,-4.3893,0.0,0.0,0.0,0.0,0.0,0.0,0.0,0.0,0.0,0.0,-4.6327,-4.7144,-4.8203,0.0,0.0,-4.889,-4.889,-4.889,-4.8481,-4.7794,-4.668,-4.5119,0.0,0.0,0.0,0.0,0.0,0.0,0.0,0.0,0.0,0.0,0.0,0.0,0.0,0.0,0.0,0.0,0.0,0.0,0.0,0.0,0.0,0.0,0.0,0.0,0.0,0.0,0.0,0.0,0.0,0.0,0.0,0.0,0.0,0.0,0.0,0.0,0.0,0.0,0.0,0.0,0.0,0.0,0.0,0.0,0.0,0.0,0.0,0.0,0.0,0.0,0.0,0.0,-4.9583,-5.0905,-5.2422,-5.3185,-5.3185,-5.3185,-5.3185,-5.3167,-5.2656,-5.172,0.0,0.0,0.0,0.0,0.0,0.0,0.0,0.0,0.0,0.0,0.0,0.0,0.0,0.0,0.0,0.0,0.0,0.0,0.0,0.0,0.0,0.0,0.0,0.0,0.0,0.0,0.0,0.0,-4.5788,-4.5361,-4.3373,0.0,0.0,0.0,0.0,0.0,0.0,0.0,0.0,0.0,0.0,-4.707,-4.7627,-4.8389,-4.889,-4.889,-4.889,-4.8834,-4.8574,-4.8073,-4.7423,-4.6624,0.0,0.0,0.0,0.0,0.0,0.0,0.0,0.0,0.0,0.0,0.0,0.0,0.0,0.0,0.0,0.0,0.0,0.0,0.0,0.0,0.0,0.0,0.0,0.0,0.0,0.0,0.0,0.0,0.0,0.0,-4.7608,0.0,0.0,0.0,0.0,0.0,0.0,0.0,0.0,0.0,0.0,0.0,0.0,0.0,0.0,0.0,0.0,0.0,0.0,0.0,0.0,0.0,0.0,-5.0118,-5.0905,-5.2422,-5.3185,-5.3185,-5.3185,-5.3185,-5.3185,-5.3167,-5.2784,-5.1905,0.0,0.0,0.0,0.0,0.0,0.0,0.0,0.0,0.0,0.0,0.0,0.0,0.0,0.0,0.0,0.0,0.0,0.0,0.0,0.0,0.0,0.0,0.0,0.0,0.0,0.0,-4.5231,-4.5305,-4.4934,0.0,0.0,0.0,0.0,0.0,0.0,0.0,0.0,0.0,0.0,-4.6122,-4.7683,-4.772,-4.8407,-4.889,-4.889,-4.889,-4.863,-4.7868,-4.7701,-4.7423,0.0,0.0,0.0,0.0,0.0,0.0,0.0,0.0,0.0,0.0,0.0,0.0,0.0,0.0,0.0,0.0,0.0,0.0,0.0,0.0,0.0,0.0,0.0,0.0,0.0,0.0,0.0,-5.1119,-5.1361,0.0,0.0,0.0,0.0,0.0,0.0,0.0,0.0,0.0,0.0,0.0,-5.1119,-5.0343,0.0,0.0,0.0,0.0,0.0,0.0,0.0,0.0,0.0,0.0,0.0,0.0,-5.0095,-5.0861,-5.242,-5.3185,-5.3185,-5.3185,-5.3185,-5.3185,-5.3185,-5.2307,-5.038,0.0,0.0,0.0,0.0,0.0,0.0,0.0,0.0,0.0,0.0,0.0,0.0,0.0,0.0,0.0,0.0,0.0,0.0,0.0,0.0,0.0,0.0,0.0,0.0,0.0,-4.5175,0.0,0.0,0.0,0.0,0.0,0.0,0.0,0.0,0.0,0.0,0.0,-4.5268,-4.6327,-4.7181,-4.7887,-4.8426,-4.8723,-4.889,0.0,0.0,0.0,0.0,0.0,0.0,0.0,0.0,0.0,0.0,0.0,0.0,0.0,0.0,-4.1033,-3.9454,-3.9598,-3.9621,-3.8488,0.0,0.0,0.0,0.0,0.0,0.0,0.0,0.0,0.0,0.0,0.0,0.0,0.0,0.0,-5.2696,0.0,-5.3197,0.0,0.0,0.0,0.0,0.0,0.0,0.0,0.0,-5.3027,-5.2969,-5.3091,-5.2298,-5.1524,0.0,-5.0434,-4.951,0.0,0.0,0.0,0.0,0.0,0.0,0.0,0.0,-5.0478,-5.1224,-5.2527,-5.3185,-5.3185,-5.3185,-5.3185,-5.3185,-5.3185,-5.2325,-5.0417,-4.9334,-4.7645,0.0,0.0,0.0,0.0,0.0,0.0,0.0,0.0,0.0,0.0,0.0,0.0,0.0,0.0,0.0,0.0,0.0,0.0,0.0,0.0,0.0,0.0,0.0,-4.5621,0.0,0.0,0.0,0.0,0.0,0.0,0.0,0.0,0.0,-4.4023,-4.5249,-4.6513,-4.7571,-4.7943,-4.8314,-4.8834,0.0,0.0,0.0,0.0,0.0,0.0,0.0,-4.6921,-4.6921,-4.6903,-4.6903,-4.6921,-4.6252,-4.5528,-4.4971,0.0,0.0,-4.2092,-4.185,-4.1664,-4.0587,-4.016,-3.9955,-3.9955,-3.9955,-4.0123,0.0,0.0,0.0,0.0,0.0,0.0,0.0,0.0,-5.4404,-5.433,0.0,-5.4478,0.0,0.0,0.0,0.0,0.0,-5.3496,0.0,0.0,-5.5675,-5.5614,-5.4734,-5.392,-5.3147,-5.2354,-5.1578,-5.1209,-5.1062,-4.9529,0.0,0.0,0.0,0.0,0.0,0.0,-5.1268,-5.1979,-5.2784,-5.3185,-5.3185,-5.3185,-5.3185,-5.3185,-5.3185,-5.2821,-5.1977,-5.0473,-4.9205,-4.8269,-4.5314,0.0,0.0,0.0,0.0,0.0,0.0,0.0,0.0,0.0,0.0,0.0,0.0,0.0,0.0,0.0,0.0,0.0,0.0,0.0,0.0,-4.4859,0.0,0.0,0.0,0.0,0.0,0.0,0.0,0.0,0.0,0.0,-4.4321,-4.6234,-4.7738,-4.7757,0.0,0.0,0.0,0.0,-4.889,-4.889,-4.8872,-4.8574,-4.7813,-4.7701,-4.7683,-4.7683,0.0,0.0,-4.7738,-4.7088,-4.6605,-4.6587,-4.7163,-4.6977,-4.4599,-4.3596,-4.3039,-4.2909,-4.2352,-4.1828,-4.1776,-4.1924,-4.1887,-5.3848,0.0,0.0,0.0,0.0,-5.2993,-5.3976,-5.5496,-5.5638,-5.5875,-5.6208,-5.6346,0.0,0.0,0.0,0.0,0.0,0.0,-5.5699,-5.635,-5.6055,-5.5991,-5.6158,-5.5367,-5.4604,-5.3875,-5.3589,-5.3185,-5.2659,-5.2155,-5.1196,-4.995,0.0,0.0,0.0,0.0,-5.1777,-5.2032,-5.2803,-5.3185,-5.3185,-5.3185,-5.3185,-5.3185,-5.3185,-5.2821,-5.2013,-5.1004,-4.9774,-4.8361,-4.6874,0.0,0.0,0.0,0.0,0.0,0.0,0.0,0.0,0.0,0.0,0.0,0.0,0.0,0.0,0.0,0.0,0.0,0.0,0.0,-4.6475,-4.6345,-4.6252,0.0,0.0,0.0,0.0,0.0,0.0,0.0,0.0,0.0,-4.6698,-4.7757,-4.8556,0.0,0.0,-4.889,-4.889,-4.889,-4.889,-4.889,0.0,0.0,0.0,-4.7701,-4.7701,-4.7701,-4.8184,-4.8556,-4.8556,-4.8351,-4.8221,-4.8203,-4.8407,-4.8296,-4.7683,-4.6847,-4.6104,-4.5565,-4.5231,-4.5082,-4.5101,-4.5101,-4.5045,-5.611,-5.518,-5.3953,-5.381,-5.4382,-5.4482,-5.5445,-5.6961,-5.6897,-5.7113,-5.7574,-5.7508,-5.7004,-5.623,-5.5978,0.0,0.0,0.0,-5.6777,-5.746,-5.6982,-5.6768,-5.6767,-5.6308,-5.5691,-5.4948,-5.4589,-5.4185,-5.3713,-5.3374,-5.275,-5.182,0.0,0.0,-5.1298,-5.1756,-5.216,-5.2491,-5.2949,-5.3185,-5.3185,-5.3185,-5.3185,-5.3185,-5.3185,-5.2968,-5.2472,-5.1701,-5.0655,-4.9352,-4.8177,-4.6783,0.0,0.0,0.0,0.0,0.0,0.0,0.0,0.0,0.0,0.0,0.0,-4.2124,0.0,0.0,0.0,0.0,-4.5287,-4.6215,-4.8017,-4.746,0.0,0.0,0.0,0.0,0.0,0.0,0.0,-4.4989,-4.6587,-4.7701,-4.772,-4.8389,-4.889,-4.889,-4.889,-4.889,-4.889,0.0,-4.889,-4.889,-4.85,-4.8184,-4.8166,-4.8184,-4.8166,-4.8166,-4.8574,-4.889,-4.889,-4.889,-4.889,-4.889,-4.889,-4.889,-4.889,-4.85,-4.7924,-4.7144,-4.6717,-4.6513,-4.6513,-4.6513,-4.6513,-5.8143,-5.7831,-5.4932,-5.4528,-5.578,-5.582,-5.6665,-5.8001,-5.8001,-5.802,-5.802,-5.8015,-5.7574,-5.6859,-5.6272,0.0,-5.7168,-5.7168,-5.753,-5.8174,-5.8174,-5.7743,-5.6914,-5.6914,-5.6473,-5.5688,-5.495,-5.4564,-5.4454,-5.3757,-5.339,-5.3371,-5.2601,-5.216,-5.2105,-5.2087,-5.2454,-5.3188,-5.3185,-5.3185,-5.3185,-5.3185,-5.3185,-5.3185,-5.3185,-5.3185,-5.3167,-5.2417,-5.1646,-5.0894,-4.9297,-4.803,-4.7186,0.0,0.0,0.0,0.0,0.0,0.0,0.0,0.0,0.0,0.0,0.0,0.0,0.0,0.0,0.0,-4.733,0.0,-4.8853,-4.8184,0.0,0.0,0.0,-4.6513,-4.6513,-4.655,-4.6587,-4.6587,0.0,0.0,-4.7794,0.0,-4.889,-4.889,-4.889,-4.889,-4.889,-4.889,-4.889,-4.889,-4.889,-4.889,-4.8816,-4.8834,-4.8816,-4.8816,-4.889,-4.889,-4.889,-4.889,-4.889,-4.889,-4.889,-4.889,-4.889,-4.8853,-4.8667,-4.7924,-4.7237,-4.6735,-4.681,-4.6828,-4.6847,-5.9483,-5.8859,-5.8084,-5.7712,-5.7585,-5.7693,-5.7958,-5.8305,-5.8197,-5.8152,-5.8152,-5.8042,-5.7886,-5.7703,-5.7542,-5.7583,-5.7776,-5.7794,-5.7882,-5.8042,-5.8061,-5.7928,-5.7721,-5.7703,-5.7281,-5.6528,-5.6326,-5.5923,-5.5317,-5.5115,-5.5023,-5.4987,-5.4216,-5.3518,-5.2931,-5.2931,-5.3023,-5.3185,-5.3185,-5.3185,-5.3185,-5.3185,-5.3185,-5.3185,-5.3185,-5.3185,-5.3185,-5.2435,-5.1903,-5.1683,-5.016,-4.8875,-4.803,-4.5755,0.0,0.0,0.0,0.0,0.0,0.0,0.0,0.0,0.0,-4.4621,-4.4971,0.0,-4.7374,0.0,-4.8147,-4.8704,-4.889,-4.8166,0.0,0.0,-4.6977,-4.6513,-4.6513,-4.7051,-4.7404,-4.7404,-4.8129,-4.8612,-4.8612,-4.8797,-4.889,-4.889,-4.8909,-4.889,-4.889,-4.889,-4.889,-4.889,-4.889,-4.889,-4.889,-4.889,-4.889,-4.889,-4.889,-4.889,-4.889,-4.889,-4.889,-4.889,-4.889,-4.889,-4.889,-4.889,-4.8853,-4.8667,-4.8463,-4.8333,-4.8333,-4.8296,-4.8314,-6.0144,-5.9716,-5.974,-5.9507,-5.9141,-5.851,-5.8219,-5.8219,-5.8152,-5.8111,-5.8088,-5.8038,-5.7978,-5.7978,-5.7978,-5.7978,-5.7978,-5.7978,-5.7978,-5.7978,-5.7978,-5.7978,-5.7978,-5.7978,-5.7758,-5.7336,-5.6987,-5.6767,-5.6638,-5.6308,-5.6308,-5.6638,-5.6216,-5.5776,-5.5299,-5.3901,-5.3185,-5.3185,-5.3185,-5.3185,-5.3185,-5.3185,-5.3185,-5.3185,-5.3185,-5.3185,-5.3185,-5.2766,-5.2197,-5.1481,-5.0618,-4.9554,-4.8361,-4.6709,-4.5424,0.0,0.0,0.0,0.0,0.0,0.0,0.0,0.0,0.0,0.0,0.0,-4.8207,-4.824,-4.8649,-4.889,-4.889,-4.85,-4.824,-4.824,-4.7831,-4.759,-4.7571,-4.7961,-4.824,-4.824,-4.863,-4.889,-4.8909,-4.9224,-4.9429,-4.9447,-4.9763,-4.9726,-4.9057,-4.889,-4.889,-4.889,-4.889,-4.889,-4.889,-4.889,-4.889,-4.889,-4.889,-4.889,-4.889,-4.889,-4.889,-4.889,-4.889,-4.889,-4.889,-4.889,-4.889,-4.889,-4.889,-4.889,-4.889,-4.889,-4.889,-6.075,-6.0566,-6.0548,-6.0511,-6.0291,-5.8896,-5.8253,-5.8143,-5.8162,-5.8088,-5.7978,-5.7978,-5.7978,-5.7978,-5.7978,-5.7978,-5.7978,-5.7978,-5.7978,-5.7978,-5.7978,-5.7978,-5.7978,-5.7978,-5.7978,-5.796,-5.7299,-5.7336,-5.7978,-5.7299,-5.7317,-5.796,-5.7886,-5.785,-5.7721,-5.4968,-5.361,-5.3809,-5.3812,-5.372,-5.3497,-5.3518,-5.3405,-5.3203,-5.3185,-5.3185,-5.3185,-5.3185,-5.2564,-5.1206,-5.1004,-5.0288,-4.8857,-4.792,-4.7094,0.0,-4.5516,0.0,0.0,0.0,0.0,0.0,0.0,0.0,0.0,-4.8019,-4.889,-4.889,-4.889,-4.889,-4.889,-4.889,-4.889,-4.889,-4.889,-4.8946,-4.9039,-4.9057,-4.9094,-4.9206,-4.9224,-4.9224,-4.9317,-4.9856,-5.0265,-5.032,-5.0822,-5.0766,-4.9596,-4.9317,-4.9355,-4.9224,-4.9224,-4.9429,-4.9355,-4.9187,-4.9094,-4.9076,-4.8964,-4.8909,-4.889,-4.889,-4.889,-4.889,-4.889,-4.889,-4.889,-4.889,-4.889,-4.889,-4.889,-4.889,-4.889,-4.889,-4.889,-6.2603,-6.1374,-6.1374,-6.1006,-6.0382,-6.0089,-5.9575,-5.8964,-5.8964,-5.8621,-5.7997,-5.7978,-5.7978,-5.7978,-5.7978,-5.7978,-5.7978,-5.7978,-5.7978,-5.7978,-5.7978,-5.7978,-5.7978,-5.7978,-5.7978,-5.7978,-5.785,-5.785,-5.7978,-5.7831,-5.785,-5.7978,-5.7354,-5.7042,-5.6969,0.0,0.0,0.0,-5.7079,-5.6455,-5.5207,-5.5133,-5.4528,-5.3259,-5.3185,0.0,-5.3185,-5.3185,-5.3057,-5.2766,-5.2123,0.0,0.0,0.0,0.0,0.0,0.0,0.0,0.0,0.0,0.0,0.0,-4.6487,-4.7036,-4.7396,-4.8317,-4.889,-4.889,-4.889,-4.889,-4.889,-4.889,-4.889,-4.889,-4.8909,-4.9169,-4.9837,-4.9912,-5.0135,-5.0841,-5.0915,-5.0915,-5.0878,-5.1082,-5.1156,-5.1156,-5.1305,-5.1268,-5.1008,-5.0896,-5.0896,-5.0933,-5.0803,-5.0878,-5.0915,-5.032,-4.9875,-4.9819,-4.928,-4.8964,-4.8946,-4.8909,-4.889,-4.889,-4.889,-4.889,-4.889,-4.889,-4.889,-4.889,-4.889,-4.889,-4.889,-4.889,-4.889,-6.3961,0.0,-6.2848,-6.2365,0.0,-6.1594,-6.1135,-6.0364,-5.9979,-5.9336,-5.8584,-5.818,-5.7978,-5.7978,-5.7978,-5.7978,-5.7978,-5.7978,-5.7978,-5.7978,-5.7978,-5.7978,-5.7978,-5.7978,-5.7978,-5.7978,-5.7978,-5.8198,-5.8565,-5.8602,-5.8786,-5.9189,-5.8786,-5.8584,-5.8584,-5.818,-5.7593,-5.6804,-5.6804,-5.6418,-5.5651,-5.5614,-5.5207,-5.4418,0.0,0.0,0.0,0.0,0.0,0.0,0.0,0.0,0.0,0.0,0.0,-5.0141,-4.9389,-4.8948,-4.8892,-4.8563,-4.8343,-4.8419,-4.8881,-4.8901,-4.8268,-4.8599,-4.8856,-4.8891,-4.889,-4.9076,-4.9447,-4.9485,-4.967,-5.0079,-5.0135,-5.032,-5.0692,-5.0766,-5.0933,-5.1286,-5.1398,-5.1398,-5.1398,-5.1769,-5.1974,-5.2029,-5.2345,-5.2568,-5.2494,-5.1899,-5.1398,-5.1398,-5.1398,-5.1379,-5.1361,-5.1082,-5.0729,-5.0655,-5.0042,-4.9577,-4.954,-4.9169,-4.889,-4.889,-4.889,-4.889,-4.889,-4.889,-4.889,-4.889,-4.889,-4.889,-4.889,-4.889,-4.889,-6.5044,-6.431,-6.4292,-6.3888,-6.3246,-6.3099,-6.2567,-6.1741,0.0,0.0,0.0,-5.8712,-5.8345,-5.8217,-5.8217,-5.8143,-5.7997,-5.7978,-5.7978,-5.7978,-5.7978,-5.7978,-5.7978,-5.7978,-5.7978,-5.7978,-5.7978,-5.8345,-5.8964,-5.8964,-5.9318,-5.9924,-5.9979,-5.9979,-5.9979,-5.9997,-5.8676,-5.618,-5.629,-5.629,-5.6033,-5.6014,-5.5886,-5.5614,-5.5614,-5.528,-5.4638,-5.4601,-5.3995,-5.2711,-5.2491,-5.2123,-5.1481,-5.1298,-5.1224,-5.1224,-5.1077,-5.1022,-5.1004,-5.0875,-5.082,-5.082,-5.0963,-5.0545,-4.9342,-4.9249,-4.9266,-4.9355,-4.9355,-4.9615,-5.0265,-5.0339,-5.0618,-5.1323,-5.1398,-5.1416,-5.1584,-5.1621,-5.1676,-5.1769,-5.1899,-5.1844,-5.1899,-5.2438,-5.281,-5.2884,-5.3292,-5.3813,-5.3645,-5.2698,-5.1974,-5.1974,-5.2048,-5.1899,-5.1825,-5.1695,-5.1621,-5.1584,-5.0915,-5.0339,-5.0116,-4.9615,-4.9132,-4.8909,-4.889,-4.889,-4.889,-4.889,-4.889,-4.889,-4.889,-4.889,-4.889,-4.889,-4.889,-6.587,-6.5136,-6.5136,-6.5063,-6.4897,-6.4218,-6.3429,-6.253,-6.1037,-6.0346,-6.0217,-6.0126,-5.9685,-5.9019,-5.9019,-5.8657,-5.7997,-5.7978,-5.7978,0.0,-5.7978,-5.7978,-5.7978,-5.7978,-5.7978,-5.7978,-5.7978,-5.8052,-5.8143,-5.818,-5.8217,-5.8345,-5.8327,-5.8364,-5.8327,-5.8327,-5.8107,-5.7685,-5.9006,-5.9061,-5.7703,-5.7648,-5.6987,-5.5684,-5.5611,-5.5556,-5.5427,-5.5427,-5.5339,-5.5078,-5.4436,-5.3995,-5.3885,-5.3225,-5.2855,-5.2818,-5.2215,-5.1811,-5.183,-5.1187,-5.082,-5.0802,-5.0885,-5.0932,-5.1027,-5.1027,-5.1027,-5.1026,-5.0952,-5.1082,-5.1212,-5.1231,-5.1268,-5.1435,-5.1416,-5.1658,-5.2345,-5.2438,-5.2679,-5.3255,-5.3478,-5.3404,-5.3348,-5.3497,-5.3553,-5.3627,-5.3683,-5.3813,-5.3775,-5.3627,-5.3478,-5.3478,-5.346,-5.346,-5.3237,-5.2828,-5.2494,-5.2438,-5.1769,-5.1008,-5.0488,-5.0116,-4.9707,-4.9057,-4.8946,-4.889,-4.889,-4.889,-4.889,-4.889,-4.889,-4.889,-4.889,-4.889,-4.889,-6.6435,-6.546,-6.5775,-6.5241,-6.4101,-6.3352,-6.2791,-6.2347,-6.1642,-6.122,-6.0982,-6.0603,-6.0199,-5.9845,-5.9869,-5.9667,-5.9281,-5.8859,-5.8676,-5.8621,-5.8198,-5.7978,-5.7978,-5.7978,-5.7978,-5.7978,-5.7978,-5.7978,-5.7978,-5.7978,-5.7978,-5.7978,-5.7978,-5.7978,-5.7978,-5.7978,-5.7978,-5.8015,-5.8731,-5.8749,-5.8015,-5.7978,-5.7648,-5.6914,-5.6895,-5.6675,-5.6253,-5.6235,-5.6051,-5.5592,-5.5244,-5.5063,-5.5023,-5.4693,-5.4308,-5.3885,-5.3518,-5.3096,-5.2674,-5.2307,-5.2126,-5.2151,-5.2173,-5.2294,-5.2508,-5.1751,-5.1324,-5.1398,-5.1398,-5.1584,-5.1992,-5.2048,-5.2234,-5.2661,-5.2717,-5.2865,-5.3162,-5.3255,-5.3404,-5.3738,-5.3813,-5.3813,-5.3813,-5.3813,-5.3813,-5.3813,-5.3813,-5.3813,-5.3813,-5.3813,-5.3813,-5.3813,-5.3794,-5.3794,-5.3794,-5.3534,-5.3274,-5.3255,-5.2587,-5.1974,-5.1454,-5.0915,-5.0079,-4.9633,-4.9243,-4.8927,-4.889,-4.889,-4.889,-4.889,-4.889,-4.889,-4.889,-4.889,-4.889,-6.704,-6.5993,-6.6527,-6.5585,-6.365,-6.2747,-6.2276,-6.208,-6.1914,-6.1669,-6.1404,-6.1128,-6.0938,-6.0756,-6.0717,-6.0627,-6.0371,-5.976,-5.9459,-5.9404,-5.8841,-5.8529,-5.8547,-5.8547,-5.8529,-5.8547,-5.8547,-5.8529,-5.8547,-5.8529,-5.8529,-5.8547,-5.8547,-5.8529,-5.8547,-5.8547,-5.8455,-5.829,-5.8272,-5.818,-5.7997,-5.7978,-5.7978,-5.7978,-5.7978,-5.7703,-5.7116,-5.706,-5.6785,-5.6202,-5.5959,-5.5849,-5.5849,-5.5684,-5.5317,-5.4748,-5.4675,-5.4399,-5.383,-5.3757,-5.3781,-5.3829,-5.385,-5.391,-5.3902,-5.2783,-5.1954,-5.1918,-5.2011,-5.2252,-5.2754,-5.2884,-5.3125,-5.372,-5.3813,-5.3738,-5.3794,-5.3813,-5.3813,-5.3813,-5.3813,-5.3813,-5.3813,-5.3813,-5.3813,-5.3813,-5.3813,-5.3813,-5.3813,-5.3813,-5.3813,-5.3813,-5.3813,-5.3813,-5.3813,-5.3794,-5.3757,-5.3813,-5.3292,-5.2791,-5.2401,-5.1435,-5.0525,-5.0209,-4.9615,-4.9169,-4.8964,-4.889,-4.889,-4.889,-4.889,-4.889,-4.889,-4.889,-4.889,-6.7605,-6.7505,-6.7513,-6.6674,-6.5055,-6.3734,-6.2776,-6.2032,-6.1331,-6.098,-6.1098,-6.2338,-6.2445,-6.1902,-6.1676,-6.1208,-6.0592,-6.0377,-6.0243,-6.0243,-6.0217,-6.0181,-6.0017,-6.0102,-6.0181,-6.0102,-6.0065,-5.9986,-6.0034,-6.0089,-6.0144,-6.0181,-6.0181,-6.0126,-6.0144,-6.0144,-5.9771,-5.9093,-5.9093,-5.8749,-5.8033,-5.7978,-5.7978,-5.7978,-5.7978,-5.796,-5.7831,-5.7886,-5.785,-5.774,-5.706,-5.6693,-5.6638,-5.6014,-5.5596,-5.5504,-5.5464,-5.5427,-5.5376,-5.5372,-5.5321,-5.5394,-5.5408,-5.5451,-5.5494,-5.4804,-5.4094,-5.3639,-5.3532,-5.3496,-5.3664,-5.3664,-5.3664,-5.3757,-5.3813,-5.3813,-5.3813,-5.3813,-5.3813,-5.3813,-5.3813,-5.3813,-5.3813,-5.3813,-5.3813,-5.3813,-5.3813,-5.3813,-5.3813,-5.3813,-5.3813,-5.3813,-5.3813,-5.3813,-5.3813,-5.3813,-5.3813,-5.3794,-5.3738,-5.3385,-5.2828,-5.2457,-5.1955,-5.0562,-5.006,-4.9689,-4.9113,-4.889,-4.889,-4.889,-4.889,-4.889,-4.889,-4.889,-4.889,-6.7479,-6.7146,-6.7533,-6.6811,-6.537,-6.3983,-6.2938,-6.2163,-6.1443,-6.1156,-6.1175,-6.1805,-6.1826,-6.1349,-6.1275,-6.1085,-6.0755,-6.0241,-5.9989,-5.9935,-5.9511,-5.9258,-5.9276,-5.9258,-5.9462,-5.9852,-5.9852,-6.0046,-6.0353,-6.0401,-6.0401,-6.0401,-6.0401,-6.0401,-6.0401,-6.0401,-6.0236,-5.9942,-5.9924,-5.9758,-5.9355,-5.8474,-5.7978,-5.7978,-5.7978,-5.7978,-5.7978,-5.7978,-5.7978,-5.7978,-5.7685,-5.7501,-5.7519,-5.7189,-5.6804,-5.6345,-5.5849,-5.5614,-5.5614,-5.5614,-5.5614,-5.5614,-5.5636,-5.572,-5.5785,-5.5539,-5.5313,-5.5064,-5.4272,-5.3754,-5.3831,-5.3813,-5.3813,-5.3813,-5.3813,-5.385,-5.3813,-5.3831,-5.3813,-5.3813,-5.3813,-5.3831,-5.3813,-5.3813,-5.3813,-5.3813,-5.3813,-5.3813,-5.3813,-5.3813,-5.3813,-5.3813,-5.3813,-5.3813,-5.3813,-5.3813,-5.3813,-5.3813,-5.3813,-5.359,-5.3385,-5.2847,-5.2178,-5.1063,-5.0543,-4.993,-4.9039,-4.8927,-4.889,-4.889,-4.889,-4.889,-4.889,-4.889,-4.889,-6.7433,-6.7061,-6.7304,-6.6818,-6.5714,-6.4365,-6.3458,-6.2813,-6.1968,-6.1467,-6.1242,-6.1084,-6.0786,-6.0468,-6.0767,-6.0965,-6.0859,-6.0297,-6.0029,-5.9958,-5.9412,-5.918,-5.9162,-5.9162,-5.9409,-5.9817,-5.9907,-6.0229,-6.0754,-6.0822,-6.0896,-6.1037,-6.1062,-6.1062,-6.1062,-6.108,-6.0951,-6.075,-6.0713,-6.0621,-6.0291,-5.9263,-5.8657,-5.8657,-5.8657,-5.8547,-5.8327,-5.8327,-5.8217,-5.8015,-5.7978,-5.7978,-5.7978,-5.7978,-5.774,-5.7171,-5.6583,-5.6253,-5.6275,-5.6253,-5.6253,-5.6253,-5.6253,-5.6297,-5.6367,-5.627,-5.6251,-5.6245,-5.5138,-5.4494,-5.4796,-5.502,-5.515,-5.515,-5.5131,-5.5094,-5.4927,-5.4834,-5.4816,-5.4537,-5.4648,-5.437,-5.4166,-5.398,-5.3813,-5.3813,-5.3813,-5.3813,-5.3813,-5.3813,-5.3813,-5.3813,-5.3813,-5.3813,-5.3813,-5.3813,-5.3813,-5.3813,-5.3813,-5.3813,-5.3813,-5.3237,-5.2679,-5.1881,-5.1063,-5.0265,-4.9559,-4.9262,-4.889,-4.889,-4.889,-4.889,-4.889,-4.889,-4.889,-6.7687,-6.7561,-6.6985,-6.6671,-6.6539,-6.5023,-6.4385,-6.4081,-6.2831,-6.1882,-6.1173,-6.0548,-5.984,-5.9286,-6.0458,-6.1037,-6.1011,-6.0785,-6.0653,-6.0653,-6.063,-6.0725,-6.0808,-6.0808,-6.0754,-6.0623,-6.0623,-6.0995,-6.1679,-6.177,-6.2128,-6.2565,-6.2492,-6.2615,-6.2517,-6.2523,-6.2291,-6.1612,-6.1539,-6.1208,-6.0584,-6.0382,-6.0309,-6.0309,-6.0272,-5.985,-5.9258,-5.9148,-5.8822,-5.8052,-5.8052,-5.8033,-5.8015,-5.8015,-5.796,-5.7886,-5.785,-5.7831,-5.7795,-5.774,-5.774,-5.7813,-5.7685,-5.7813,-5.7675,-5.725,-5.7011,-5.7045,-5.6506,-5.6424,-5.7115,-5.7359,-5.7881,-5.8029,-5.8252,-5.7862,-5.7323,-5.7082,-5.6933,-5.6376,-5.6116,-5.5726,-5.5039,-5.4258,-5.4017,-5.3924,-5.385,-5.385,-5.3813,-5.3813,-5.3813,-5.3813,-5.3813,-5.3813,-5.3813,-5.3813,-5.3813,-5.3813,-5.3813,-5.3813,-5.3813,-5.3683,-5.32,-5.2679,-5.1881,-5.1063,-5.0228,-4.9559,-4.9057,-4.889,-4.889,-4.889,-4.889,-4.889,-4.889,-6.7669,-6.7588,-6.6445,-6.6283,-6.6523,-6.5162,-6.4301,-6.3758,-6.2839,-6.1988,-6.1224,-6.0497,-6.0047,-5.9771,-5.9769,-5.9749,-5.9748,-5.9685,-5.9694,-5.9694,-5.9676,-5.9694,-5.9694,-5.9694,-5.9952,-6.0282,-6.0326,-6.0663,-6.1207,-6.1265,-6.135,-6.1604,-6.2014,-6.221,-6.229,-6.261,-6.2615,-6.242,-6.2383,-6.2218,-6.1918,-6.1942,-6.1942,-6.1887,-6.0933,-6.0272,-5.9997,-5.9979,-5.9832,-5.9557,-5.9061,-5.8786,-5.8731,-5.8272,-5.7978,-5.7978,-5.7978,-5.7978,-5.7978,-5.7978,-5.7978,-5.7978,-5.7978,-5.8042,-5.8092,-5.7898,-5.78,-5.7931,-5.8335,-5.8662,-5.8556,-5.7951,-5.7379,-5.7825,-5.7973,-5.8159,-5.8234,-5.8271,-5.8159,-5.7843,-5.7435,-5.6747,-5.6097,-5.5577,-5.5187,-5.4686,-5.4574,-5.437,-5.3943,-5.3813,-5.385,-5.3813,-5.3813,-5.3813,-5.3813,-5.3813,-5.3813,-5.3813,-5.3813,-5.3813,-5.3813,-5.3813,-5.3441,-5.2902,-5.2289,-5.1584,-5.0636,-4.9652,-4.9169,-4.902,-4.9002,-4.889,-4.889,-4.889,-4.889,-6.7024,-6.6863,-6.5984,-6.586,-6.6222,-6.5353,-6.4656,-6.4098,-6.3468,-6.2751,-6.197,-6.1275,-6.0685,-6.0168,-5.9616,-5.9237,-5.903,-5.9012,-5.9012,-5.9012,-5.9012,-5.9012,-5.9012,-5.9012,-5.9233,-5.9598,-5.9663,-6.0016,-6.0524,-6.0615,-6.0688,-6.0956,-6.1368,-6.1584,-6.1668,-6.221,-6.2508,-6.2534,-6.2686,-6.2805,-6.2823,-6.2823,-6.2823,-6.2677,-6.1741,-6.1043,-6.0823,-6.0786,-6.0639,-6.0364,-5.9887,-5.957,-5.9515,-5.9079,-5.8657,-5.8437,-5.84,-5.8253,-5.8033,-5.7978,-5.7978,-5.7978,-5.7978,-5.8042,-5.8129,-5.8174,-5.8242,-5.8478,-5.888,-5.9356,-5.9103,-5.7944,-5.7487,-5.8417,-5.8698,-5.8902,-5.9422,-5.9534,-5.9552,-5.9422,-5.8828,-5.8011,-5.7249,-5.6859,-5.6302,-5.5522,-5.5429,-5.5094,-5.4407,-5.4203,-5.4054,-5.3868,-5.3813,-5.3813,-5.3813,-5.3813,-5.3813,-5.3813,-5.3813,-5.3813,-5.3813,-5.3813,-5.3645,-5.3107,-5.2512,-5.1825,-5.0952,-4.993,-4.9485,-4.9317,-4.9039,-4.889,-4.889,-4.889,-4.889,-6.5711,-6.5796,-6.5611,-6.569,-6.5807,-6.5614,-6.5568,-6.5359,-6.479,-6.4131,-6.3502,-6.2819,-6.1806,-6.0651,-6.0461,-5.9875,-5.9444,-5.9323,-5.915,-5.903,-5.9012,-5.9012,-5.9012,-5.9012,-5.9012,-5.9098,-5.9047,-5.9367,-5.9969,-6.0001,-6.0251,-6.0736,-6.0855,-6.0915,-6.0897,-6.151,-6.1879,-6.1987,-6.2412,-6.273,-6.278,-6.278,-6.2823,-6.2823,-6.2677,-6.2291,-6.163,-6.1594,-6.13,-6.0658,-6.0456,-6.0401,-6.0327,-6.0217,-5.9979,-5.9313,-5.9203,-5.8817,-5.8235,-5.818,-5.8272,-5.8272,-5.8125,-5.8235,-5.8226,-5.8258,-5.8266,-5.8256,-5.8364,-5.8492,-5.8579,-5.84,-5.8924,-6.0738,-6.0611,-6.0648,-6.0945,-6.115,-6.115,-6.0945,-6.0333,-5.9608,-5.8809,-5.8122,-5.7398,-5.671,-5.6339,-5.5986,-5.5187,-5.4909,-5.4593,-5.411,-5.3868,-5.3813,-5.3813,-5.3813,-5.3813,-5.3813,-5.3813,-5.3813,-5.3813,-5.3813,-5.3813,-5.3385,-5.2828,-5.2159,-5.1714,-5.0766,-5.0302,-5.0042,-4.954,-4.9132,-4.915,-4.9187,-4.8927,-6.6321,-6.7034,-6.6145,-6.6074,-6.639,-6.6003,-6.5822,-6.5805,-6.5565,-6.537,-6.5038,-6.4332,-6.372,-6.3117,-6.2289,-6.1634,-6.1358,-6.084,-6.003,-5.9185,-5.903,-5.903,-5.9012,-5.9012,-5.9012,-5.9012,-5.9012,-5.9098,-5.9283,-5.9317,-5.9433,-5.9628,-6.0079,-6.0268,-6.0331,-6.0903,-6.1207,-6.1293,-6.1851,-6.2184,-6.221,-6.2585,-6.278,-6.2823,-6.2805,-6.2658,-6.2456,-6.2438,-6.231,-6.2016,-6.152,-6.097,-6.0529,-6.0401,-6.0291,-6.007,-6.0034,-5.996,-5.9722,-5.9612,-5.9593,-5.963,-5.9612,-5.9355,-5.8933,-5.8864,-5.863,-5.8231,-5.8174,-5.8246,-5.8312,-5.8443,-5.9069,-6.0181,-6.0314,-6.0574,-6.1094,-6.1633,-6.1707,-6.1354,-6.1428,-6.1243,-6.0518,-5.9682,-5.8846,-5.7992,-5.749,-5.6859,-5.6079,-5.5466,-5.5001,-5.4667,-5.4277,-5.385,-5.3813,-5.3813,-5.3813,-5.3813,-5.3813,-5.3813,-5.3813,-5.3813,-5.3813,-5.3645,-5.3088,-5.2661,-5.2197,-5.1695,-5.1193,-5.0766,-5.0339,-5.0005,-4.9745,-4.9485,-4.9243,-6.6408,-6.7024,-6.6239,-6.6145,-6.6464,-6.6049,-6.5876,-6.5876,-6.5876,-6.5876,-6.5776,-6.5359,-6.4962,-6.4565,-6.3703,-6.2996,-6.2479,-6.1944,-6.1082,-5.9944,-5.953,-5.9323,-5.9064,-5.9012,-5.9012,-5.9012,-5.9012,-5.9012,-5.9012,-5.9012,-5.9012,-5.9098,-5.9417,-5.9648,-5.9714,-6.0251,-6.0572,-6.0663,-6.1178,-6.151,-6.1594,-6.1888,-6.2094,-6.2139,-6.2316,-6.2482,-6.2464,-6.2679,-6.2823,-6.275,-6.231,-6.1679,-6.1053,-6.1153,-6.1074,-6.0633,-6.0683,-6.0713,-6.0456,-6.0309,-6.0401,-6.0401,-6.0401,-6.0199,-5.9758,-5.9667,-5.9373,-5.9029,-5.9021,-5.9053,-5.9103,-5.888,-5.9186,-5.9746,-5.9584,-5.9847,-6.063,-6.1447,-6.1911,-6.1744,-6.206,-6.2079,-6.1651,-6.1261,-6.0333,-5.9404,-5.8716,-5.7899,-5.7045,-5.63,-5.5837,-5.528,-5.4667,-5.4258,-5.3868,-5.3813,-5.3813,-5.3813,-5.3813,-5.3813,-5.3813,-5.3813,-5.3813,-5.3757,-5.3385,-5.3348,-5.294,-5.2345,-5.1806,-5.1454,-5.1193,-5.0822,-5.0469,-4.9875,-4.9577,-6.6069,-6.5997,-6.6031,-6.6156,-6.6194,-6.6173,-6.6169,-6.6083,-6.61,-6.6152,-6.61,-6.6135,-6.5704,-6.51,-6.4945,-6.422,-6.2979,-6.272,-6.2289,-6.1444,-6.0754,-6.0099,-5.9478,-5.9426,-5.9426,-5.934,-5.9306,-5.9271,-5.9409,-5.9254,-5.9081,-5.9185,-5.9116,-5.9012,-5.9199,-5.9663,-5.9955,-6.0016,-6.0542,-6.0855,-6.0885,-6.0956,-6.1033,-6.1044,-6.1538,-6.1879,-6.205,-6.2508,-6.2823,-6.2823,-6.2707,-6.242,-6.2138,-6.2464,-6.1963,-6.1032,-6.1357,-6.1221,-6.0762,-6.0805,-6.0768,-6.0805,-6.0805,-6.0493,-6.0511,-6.0456,-6.0364,-6.0162,-6.0162,-6.0302,-6.0249,-5.9895,-5.9659,-5.9674,-5.9303,-5.9216,-5.9775,-6.0611,-6.1206,-6.1856,-6.2227,-6.2357,-6.2227,-6.2153,-6.1373,-6.0555,-5.9924,-5.8958,-5.8141,-5.736,-5.6673,-5.6004,-5.5317,-5.4667,-5.4277,-5.3831,-5.3831,-5.3813,-5.3813,-5.3813,-5.3813,-5.3813,-5.3813,-5.3757,-5.3738,-5.3757,-5.359,-5.2958,-5.2661,-5.2512,-5.2141,-5.1658,-5.1156,-5.0655,-5.0228,-6.7514,-6.7532,-6.7497,-6.7514,-6.7514,-6.7497,-6.748,-6.7497,-6.748,-6.7394,-6.748,-6.7514,-6.7307,-6.7135,-6.6566,-6.6135,-6.5497,-6.4583,-6.372,-6.2962,-6.222,-6.1461,-6.084,-6.0685,-6.0651,-6.0616,-6.0547,-6.0703,-6.0651,-6.0116,-5.9892,-5.984,-5.9375,-5.9064,-5.9029,-5.9234,-5.9249,-5.935,-5.9905,-6.0237,-6.0313,-6.0646,-6.0897,-6.0926,-6.1044,-6.1425,-6.1897,-6.2482,-6.2823,-6.2823,-6.2823,-6.2755,-6.2508,-6.2334,-6.2154,-6.2076,-6.1891,-6.1959,-6.2057,-6.2058,-6.2095,-6.2156,-6.1942,-6.1924,-6.1318,-6.1282,-6.0988,-6.0603,-6.0401,-6.0456,-6.0491,-6.0378,-6.0411,-6.0448,-5.956,-5.8918,-5.9181,-5.9698,-6.0351,-6.0593,-6.1168,-6.1689,-6.2079,-6.1911,-6.1614,-6.1373,-6.0664,-5.9865,-5.9162,-5.8215,-5.7435,-5.6785,-5.6079,-5.528,-5.463,-5.4128,-5.385,-5.3813,-5.3813,-5.3813,-5.3813,-5.3813,-5.3813,-5.3794,-5.3775,-5.3775,-5.3794,-5.3497,-5.346,-5.3311,-5.2884,-5.2308,-5.2067,-5.1658,-5.1231,-6.7911,-6.7635,-6.7635,-6.7445,-6.7238,-6.7497,-6.7635,-6.7687,-6.798,-6.8083,-6.8083,-6.8083,-6.8083,-6.8032,-6.7635,-6.7256,-6.6876,-6.6083,-6.5083,-6.4031,-6.3272,-6.2324,-6.153,-6.1306,-6.1306,-6.1306,-6.1323,-6.1289,-6.1203,-6.0858,-6.0685,-6.0599,-6.0202,-5.9823,-5.9547,-5.9495,-5.9323,-5.915,-5.9401,-5.9565,-5.9631,-5.992,-6.0044,-6.017,-6.034,-6.0903,-6.1787,-6.2237,-6.2515,-6.273,-6.278,-6.2705,-6.2456,-6.2386,-6.221,-6.2094,-6.1924,-6.196,-6.1942,-6.1996,-6.2121,-6.2342,-6.2412,-6.2347,-6.2125,-6.2108,-6.1814,-6.1575,-6.141,-6.1435,-6.1452,-6.1345,-6.1071,-6.0761,-6.0122,-5.9526,-5.9253,-5.9329,-5.9589,-5.9905,-6.0351,-6.0964,-6.1763,-6.1447,-6.1503,-6.1558,-6.1057,-6.0648,-6.0258,-5.9181,-5.8252,-5.7695,-5.7026,-5.6265,-5.5484,-5.489,-5.4388,-5.4277,-5.3813,-5.3813,-5.3813,-5.3813,-5.3813,-5.3813,-5.3813,-5.3813,-5.3813,-5.3813,-5.372,-5.3497,-5.3237,-5.3088,-5.2847,-5.2475,-5.2085,-6.7566,-6.6859,-6.6859,-6.648,-6.6117,-6.6687,-6.7066,-6.7152,-6.779,-6.8083,-6.8083,-6.8083,-6.8083,-6.8083,-6.798,-6.7721,-6.7135,-6.6876,-6.5893,-6.4824,-6.391,-6.3031,-6.1927,-6.1841,-6.1806,-6.1772,-6.1582,-6.1668,-6.172,-6.1582,-6.1427,-6.1358,-6.1289,-6.0909,-6.0427,-6.0289,-5.9909,-5.9547,-5.9581,-5.965,-5.9598,-5.9563,-5.9544,-5.961,-5.9893,-6.0547,-6.1318,-6.1741,-6.1987,-6.2541,-6.2705,-6.2559,-6.2184,-6.2534,-6.2271,-6.1594,-6.1741,-6.1714,-6.1293,-6.1407,-6.135,-6.1851,-6.1897,-6.2005,-6.2251,-6.2344,-6.2427,-6.2292,-6.2737,-6.2634,-6.2641,-6.2356,-6.1863,-6.131,-6.1121,-6.0755,-6.0178,-5.9346,-5.9088,-5.9664,-5.9775,-6.0184,-6.076,-6.1076,-6.1113,-6.1428,-6.1094,-6.1001,-6.0815,-6.0221,-5.9422,-5.8791,-5.8085,-5.7305,-5.6506,-5.5707,-5.5224,-5.4834,-5.4073,-5.3813,-5.3813,-5.3813,-5.3813,-5.3813,-5.3813,-5.3813,-5.3813,-5.3813,-5.3813,-5.3757,-5.3534,-5.3627,-5.3664,-5.3162,-5.2735,-6.679,-6.6117,-6.6117,-6.6031,-6.6014,-6.6669,-6.6962,-6.7031,-6.7756,-6.8049,-6.8083,-6.8083,-6.8083,-6.8083,-6.8083,-6.7997,-6.7721,-6.7204,-6.6152,-6.4824,-6.4583,-6.3979,-6.3203,-6.3013,-6.3048,-6.2996,-6.3065,-6.3065,-6.2962,-6.2461,-6.2237,-6.2168,-6.1737,-6.1237,-6.1116,-6.1065,-6.1013,-6.0823,-6.0771,-6.0685,-6.053,-6.0168,-5.9926,-5.9892,-5.9912,-6.0083,-6.0424,-6.0873,-6.116,-6.1492,-6.2148,-6.2559,-6.2464,-6.2237,-6.2157,-6.2166,-6.1933,-6.2005,-6.2192,-6.1806,-6.1714,-6.1796,-6.15,-6.116,-6.1293,-6.1833,-6.2059,-6.2184,-6.249,-6.2712,-6.2849,-6.2757,-6.2536,-6.2319,-6.205,-6.1754,-6.1478,-6.0454,-5.9624,-5.9199,-5.9107,-5.9274,-6.0091,-6.0184,-6.0444,-6.0983,-6.115,-6.1168,-6.1076,-6.0945,-6.0425,-5.9701,-5.8977,-5.8215,-5.7602,-5.6655,-5.5763,-5.5206,-5.4463,-5.3831,-5.3831,-5.3813,-5.3813,-5.3813,-5.3813,-5.3813,-5.3813,-5.3813,-5.3813,-5.3813,-5.3813,-5.3813,-5.3738,-5.3478,-5.3385,-6.6014,-6.5341,-6.5341,-6.5134,-6.4962,-6.5583,-6.6135,-6.6566,-6.7256,-6.779,-6.8049,-6.8083,-6.8083,-6.8083,-6.8083,-6.8083,-6.7911,-6.7342,-6.66,-6.5721,-6.5152,-6.4479,-6.4117,-6.3755,-6.36,-6.36,-6.3565,-6.36,-6.3462,-6.3238,-6.2996,-6.2996,-6.253,-6.2237,-6.191,-6.1858,-6.1616,-6.1306,-6.1306,-6.1306,-6.1203,-6.0944,-6.0478,-6.0151,-5.9801,-5.9631,-6.0033,-6.0282,-6.0615,-6.0985,-6.152,-6.2068,-6.2308,-6.2104,-6.2104,-6.221,-6.2131,-6.1824,-6.1851,-6.165,-6.1556,-6.1869,-6.1283,-6.1207,-6.1178,-6.15,-6.1397,-6.1482,-6.1705,-6.2049,-6.2497,-6.2599,-6.2718,-6.2995,-6.2867,-6.2531,-6.2036,-6.1152,-6.0184,-5.9513,-5.9364,-5.9274,-5.9404,-5.9515,-5.9757,-6.0295,-6.05,-6.0574,-6.1187,-6.1057,-6.1001,-6.0425,-5.9757,-5.9107,-5.8605,-5.7639,-5.6283,-5.5559,-5.4797,-5.4221,-5.3905,-5.385,-5.3813,-5.3813,-5.3813,-5.3813,-5.3813,-5.3813,-5.3813,-5.3813,-5.3813,-5.3813,-5.3775,-5.3645,-5.3627,-6.5238,-6.4531,-6.4531,-6.4169,-6.3755,-6.4445,-6.5134,-6.5773,-6.6635,-6.7359,-6.7876,-6.8014,-6.8083,-6.8083,-6.8083,-6.8083,-6.7928,-6.7566,-6.7066,-6.6635,-6.5531,-6.491,-6.4514,-6.3962,-6.36,-6.36,-6.36,-6.36,-6.36,-6.36,-6.3444,-6.3548,-6.3565,-6.3117,-6.2737,-6.2634,-6.2427,-6.1979,-6.191,-6.1892,-6.1772,-6.1599,-6.1099,-6.022,-5.9754,-5.9456,-5.97,-5.9841,-6.0048,-6.0585,-6.0646,-6.0974,-6.1443,-6.1741,-6.1723,-6.1723,-6.1668,-6.1482,-6.1207,-6.1062,-6.1196,-6.1714,-6.1265,-6.1091,-6.13,-6.1167,-6.0974,-6.0867,-6.0985,-6.1304,-6.1879,-6.2192,-6.2453,-6.28,-6.3152,-6.2998,-6.2383,-6.1797,-6.1258,-6.0295,-5.981,-5.9568,-5.9216,-5.9123,-5.9327,-5.9531,-5.9775,-6.0072,-6.0667,-6.115,-6.1057,-6.1057,-6.0425,-5.9794,-5.9292,-5.8178,-5.6896,-5.6246,-5.5391,-5.4797,-5.4314,-5.424,-5.4221,-5.3868,-5.3813,-5.3813,-5.3813,-5.3813,-5.3813,-5.3813,-5.3813,-5.3813,-5.3813,-5.3813,-5.3813,-6.4462,-6.3772,-6.3789,-6.3703,-6.372,-6.4376,-6.4772,-6.5117,-6.6376,-6.7031,-6.7256,-6.7807,-6.8083,-6.8083,-6.8083,-6.8083,-6.8032,-6.7825,-6.7549,-6.7014,-6.6031,-6.5376,-6.4755,-6.3979,-6.3634,-6.36,-6.36,-6.36,-6.36,-6.36,-6.36,-6.36,-6.36,-6.3444,-6.3393,-6.3393,-6.3255,-6.2962,-6.2944,-6.2979,-6.2875,-6.2393,-6.1616,-6.053,-6.0151,-5.984,-5.9356,-5.9269,-5.9216,-5.9299,-5.9317,-5.9764,-6.0458,-6.0944,-6.111,-6.1149,-6.1178,-6.1073,-6.0926,-6.0944,-6.0956,-6.1033,-6.0915,-6.0585,-6.059,-6.0633,-6.0463,-6.0357,-6.0555,-6.0956,-6.1229,-6.1632,-6.2121,-6.2486,-6.2923,-6.3238,-6.3095,-6.2913,-6.2446,-6.1354,-6.0571,-5.981,-5.9438,-5.9048,-5.8974,-5.9178,-5.9401,-5.9589,-5.9961,-6.0593,-6.1038,-6.1094,-6.1094,-6.0481,-5.9884,-5.8605,-5.7416,-5.7063,-5.6376,-5.567,-5.5224,-5.4946,-5.4704,-5.4296,-5.3943,-5.3813,-5.3813,-5.3813,-5.3813,-5.3813,-5.3813,-5.3813,-5.3813,-5.3813,-5.3813,-6.3927,-6.36,-6.36,-6.36,-6.3669,-6.3962,-6.4358,-6.4841,-6.5911,-6.6635,-6.7118,-6.7738,-6.8083,-6.8083,-6.8083,-6.8083,-6.8083,-6.8083,-6.7876,-6.7376,-6.6445,-6.5738,-6.5117,-6.4152,-6.3703,-6.36,-6.36,-6.36,-6.36,-6.36,-6.36,-6.36,-6.36,-6.36,-6.36,-6.3565,-6.36,-6.36,-6.36,-6.36,-6.3548,-6.2893,-6.1996,-6.153,-6.0944,-6.0565,-6.034,-6.0202,-6.0202,-6.0255,-6.022,-6.0359,-6.0631,-6.0876,-6.1044,-6.0967,-6.0909,-6.0903,-6.0915,-6.0915,-6.0926,-6.0867,-6.0646,-6.0344,-6.0016,-5.9952,-5.9856,-5.9696,-5.9646,-6.0139,-6.0567,-6.0992,-6.1332,-6.1933,-6.2544,-6.2923,-6.3147,-6.34,-6.2955,-6.2239,-6.1388,-6.0534,-5.9735,-5.9329,-5.8826,-5.8844,-5.9067,-5.9216,-5.9367,-5.9905,-6.0555,-6.0778,-6.0778,-6.0444,-5.9903,-5.9051,-5.7973,-5.7621,-5.7305,-5.6599,-5.5949,-5.5596,-5.5131,-5.4667,-5.4333,-5.398,-5.3813,-5.3813,-5.3813,-5.3813,-5.3813,-5.3813,-5.3813,-5.3813,-5.3813,-6.36,-6.36,-6.36,-6.36,-6.36,-6.36,-6.3927,-6.4565,-6.5307,-6.6048,-6.6807,-6.7497,-6.7928,-6.8066,-6.8083,-6.8083,-6.8083,-6.8083,-6.8049,-6.7738,-6.6566,-6.5859,-6.5462,-6.4496,-6.36,-6.36,-6.36,-6.36,-6.36,-6.36,-6.36,-6.36,-6.36,-6.36,-6.36,-6.36,-6.36,-6.36,-6.36,-6.36,-6.3444,-6.3048,-6.2599,-6.2479,-6.1858,-6.1461,-6.1151,-6.1099,-6.1116,-6.1134,-6.1185,-6.1237,-6.1289,-6.1306,-6.1204,-6.1033,-6.0954,-6.0914,-6.079,-6.093,-6.0882,-6.0638,-6.0406,-6.0174,-5.9841,-5.9567,-5.9167,-5.9202,-5.934,-5.9629,-6.0238,-6.0403,-6.0757,-6.1275,-6.196,-6.2468,-6.2768,-6.3075,-6.3354,-6.2701,-6.1994,-6.1258,-6.046,-5.9664,-5.9199,-5.8696,-5.89,-5.8881,-5.9051,-5.9253,-5.9794,-6.0147,-6.024,-6.0072,-5.9757,-5.9459,-5.8586,-5.8066,-5.7862,-5.7453,-5.6766,-5.6153,-5.5726,-5.5354,-5.463,-5.4296,-5.4054,-5.3831,-5.3813,-5.3813,-5.3813,-5.3813,-5.3813,-5.3813,-5.3813,-6.36,-6.36,-6.36,-6.36,-6.36,-6.36,-6.3634,-6.3841,-6.4583,-6.5272,-6.6152,-6.6824,-6.7532,-6.7963,-6.8083,-6.8083,-6.8083,-6.8083,-6.8083,-6.7859,-6.6687,-6.5962,-6.5652,-6.4307,-6.3738,-6.3617,-6.36,-6.36,-6.36,-6.36,-6.36,-6.36,-6.36,-6.36,-6.36,-6.36,-6.36,-6.36,-6.36,-6.36,-6.3582,-6.3462,-6.3082,-6.2668,-6.2375,-6.2117,-6.1668,-6.1616,-6.1548,-6.1479,-6.141,-6.1341,-6.1306,-6.1306,-6.1307,-6.1259,-6.119,-6.0999,-6.0632,-6.0806,-6.087,-6.0579,-6.0503,-6.0441,-5.992,-5.9436,-5.9271,-6.003,-6.0013,-6.0099,-6.0391,-6.0788,-6.0966,-6.1164,-6.1569,-6.206,-6.2404,-6.278,-6.3051,-6.3112,-6.2387,-6.186,-6.1184,-6.033,-5.9552,-5.9069,-5.8677,-5.8698,-5.8733,-5.8974,-5.9141,-5.9552,-5.9961,-5.985,-5.9645,-5.9348,-5.9032,-5.8456,-5.8289,-5.8141,-5.7565,-5.6952,-5.6673,-5.6209,-5.541,-5.4741,-5.4518,-5.4277,-5.3961,-5.3813,-5.3813,-5.3813,-5.3813,-5.3813,-5.3813,-6.36,-6.36,-6.36,-6.36,-6.36,-6.36,-6.36,-6.3738,-6.4376,-6.5152,-6.5911,-6.6669,-6.7411,-6.798,-6.8083,-6.8083,-6.8083,-6.8083,-6.8083,-6.7928,-6.7014,-6.6273,-6.5721,-6.4772,-6.41,-6.3686,-6.36,-6.36,-6.36,-6.36,-6.36,-6.36,-6.36,-6.36,-6.36,-6.36,-6.36,-6.36,-6.36,-6.36,-6.36,-6.3565,-6.3444,-6.3117,-6.31,-6.2858,-6.2651,-6.2599,-6.2599,-6.2599,-6.2599,-6.2599,-6.2599,-6.2617,-6.2599,-6.2599,-6.2636,-6.2066,-6.1118,-6.1138,-6.0963,-6.0719,-6.0569,-6.0119,-5.959,-5.9269,-5.9375,-6.0099,-6.0202,-6.0375,-6.072,-6.1103,-6.1107,-6.1221,-6.1503,-6.171,-6.2078,-6.2404,-6.2675,-6.2769,-6.2838,-6.2355,-6.1771,-6.0871,-6.0054,-5.9475,-5.9014,-5.8772,-5.8735,-5.8751,-5.89,-5.9048,-5.9438,-5.9717,-5.9515,-5.9274,-5.9181,-5.8772,-5.8568,-5.838,-5.8213,-5.7825,-5.7453,-5.6989,-5.6283,-5.567,-5.5169,-5.4518,-5.4017,-5.3887,-5.3813,-5.3813,-5.3813,-5.3813,-5.3813,-6.36,-6.36,-6.36,-6.36,-6.36,-6.36,-6.36,-6.3669,-6.4152,-6.4962,-6.5945,-6.6842,-6.7618,-6.798,-6.8083,-6.8083,-6.8083,-6.8083,-6.8083,-6.7842,-6.7359,-6.6704,-6.6048,-6.5238,-6.4376,-6.3858,-6.3669,-6.3617,-6.36,-6.36,-6.36,-6.36,-6.36,-6.36,-6.36,-6.36,-6.36,-6.36,-6.36,-6.36,-6.36,-6.36,-6.36,-6.3565,-6.36,-6.36,-6.36,-6.3531,-6.3513,-6.3496,-6.3444,-6.3375,-6.3393,-6.3358,-6.3375,-6.3375,-6.3358,-6.2996,-6.2186,-6.1843,-6.153,-6.1185,-6.0858,-6.0324,-5.9564,-5.9323,-5.9461,-6.0185,-6.0496,-6.0806,-6.1168,-6.1445,-6.1537,-6.1611,-6.1714,-6.175,-6.1828,-6.2312,-6.2579,-6.2613,-6.2769,-6.297,-6.2275,-6.1329,-6.0574,-5.994,-5.9459,-5.8977,-5.8791,-5.8698,-5.8733,-5.8863,-5.9011,-5.9327,-5.9216,-5.9088,-5.9051,-5.8995,-5.8791,-5.8621,-5.8436,-5.8269,-5.7992,-5.7509,-5.7045,-5.671,-5.6283,-5.515,-5.4091,-5.4184,-5.4184,-5.3887,-5.3813,-5.3813,-5.3813,-6.36,-6.36,-6.36,-6.36,-6.36,-6.36,-6.36,-6.36,-6.3669,-6.4583,-6.5979,-6.7238,-6.7876,-6.8083,-6.8083,-6.8083,-6.8083,-6.8083,-6.8083,-6.7859,-6.7394,-6.7031,-6.6428,-6.5635,-6.4755,-6.4427,-6.4065,-6.3755,-6.36,-6.36,-6.36,-6.36,-6.36,-6.36,-6.36,-6.36,-6.36,-6.36,-6.36,-6.36,-6.36,-6.36,-6.36,-6.36,-6.36,-6.36,-6.36,-6.36,-6.36,-6.36,-6.36,-6.36,-6.36,-6.36,-6.36,-6.36,-6.36,-6.3375,-6.3031,-6.2582,-6.203,-6.1565,-6.122,-6.0909,-6.0202,-6.0099,-6.0185,-6.0289,-6.0651,-6.1082,-6.1496,-6.1842,-6.2003,-6.2126,-6.2163,-6.2199,-6.2269,-6.2388,-6.2611,-6.2561,-6.2638,-6.2824,-6.3076,-6.2172,-6.1425,-6.0812,-5.9828,-5.9348,-5.8846,-5.8677,-5.8677,-5.8733,-5.8714,-5.8807,-5.8788,-5.8772,-5.8846,-5.8865,-5.8714,-5.8677,-5.8621,-5.8494,-5.8345,-5.8215,-5.7806,-5.7602,-5.7249,-5.619,-5.5317,-5.4871,-5.4537,-5.4203,-5.3905,-5.3813,-5.3813,-6.36,-6.36,-6.36,-6.36,-6.36,-6.36,-6.36,-6.36,-6.3617,-6.4462,-6.5983,-6.6928,-6.7669,-6.798,-6.8083,-6.8083,-6.8083,-6.8083,-6.8083,-6.8032,-6.7773,-6.7411,-6.6893,-6.6342,-6.5686,-6.4893,-6.4376,-6.3962,-6.3617,-6.3617,-6.36,-6.36,-6.36,-6.36,-6.36,-6.36,-6.36,-6.36,-6.36,-6.36,-6.36,-6.36,-6.36,-6.36,-6.36,-6.36,-6.36,-6.36,-6.36,-6.36,-6.36,-6.36,-6.36,-6.36,-6.36,-6.36,-6.36,-6.36,-6.36,-6.3272,-6.2824,-6.2237,-6.1996,-6.1703,-6.0961,-6.0547,-6.0565,-6.0668,-6.072,-6.0996,-6.1979,-6.2291,-6.2451,-6.2614,-6.2679,-6.2679,-6.2779,-6.291,-6.2807,-6.2839,-6.2675,-6.2663,-6.2951,-6.3127,-6.2402,-6.1689,-6.0627,-5.968,-5.916,-5.8696,-5.8677,-5.8677,-5.8677,-5.8677,-5.8677,-5.8677,-5.8677,-5.8677,-5.8677,-5.8677,-5.8677,-5.8658,-5.8568,-5.8549,-5.8512,-5.8234,-5.7788,-5.7156,-5.6413,-5.5633,-5.4983,-5.4463,-5.4166,-5.3887,-5.3813,-6.36,-6.36,-6.36,-6.36,-6.36,-6.36,-6.36,-6.36,-6.36,-6.4462,-6.5966,-6.6652,-6.7411,-6.7928,-6.8083,-6.8083,-6.8083,-6.8083,-6.8083,-6.8066,-6.798,-6.7756,-6.7411,-6.6945,-6.6342,-6.5428,-6.4755,-6.4358,-6.4014,-6.372,-6.3617,-6.36,-6.36,-6.36,-6.36,-6.36,-6.36,-6.36,-6.36,-6.36,-6.36,-6.36,-6.36,-6.36,-6.36,-6.36,-6.36,-6.36,-6.36,-6.36,-6.36,-6.36,-6.36,-6.36,-6.36,-6.36,-6.36,-6.36,-6.36,-6.3531,-6.3358,-6.2875,-6.2806,-6.2393,-6.1754,-6.1151,-6.122,-6.072,-6.0634,-6.0909,-6.1979,-6.1859,-6.2275,-6.2438,-6.3099,-6.324,-6.3417,-6.3546,-6.3314,-6.3138,-6.302,-6.294,-6.2947,-6.3206,-6.2843,-6.1964,-6.0723,-5.9884,-5.9457,-5.9011,-5.8677,-5.8677,-5.8677,-5.8677,-5.8677,-5.8677,-5.8677,-5.8677,-5.8677,-5.8677,-5.8677,-5.8677,-5.8677,-5.8642,-5.8642,-5.8679,-5.8382,-5.7843,-5.7026,-5.6153,-5.5466,-5.4779,-5.4443,-5.4184,-5.3887,-6.36,-6.36,-6.36,-6.36,-6.36,-6.36,-6.36,-6.36,-6.3617,-6.4445,-6.5897,-6.6618,-6.7359,-6.7928,-6.8083,-6.8083,-6.8083,-6.8083,-6.8083,-6.8083,-6.8083,-6.8032,-6.7807,-6.7411,-6.698,-6.66,-6.5773,-6.5014,-6.4565,-6.4048,-6.3772,-6.36,-6.36,-6.36,-6.36,-6.36,-6.36,-6.36,-6.36,-6.36,-6.36,-6.36,-6.36,-6.36,-6.36,-6.36,-6.36,-6.36,-6.36,-6.36,-6.36,-6.36,-6.36,-6.36,-6.36,-6.36,-6.36,-6.36,-6.36,-6.36,-6.3513,-6.341,-6.3307,-6.3065,-6.2617,-6.2237,-6.1668,-6.0944,-6.0737,-6.0703,-6.0875,-6.0927,-6.1618,-6.2298,-6.2926,-6.3389,-6.3539,-6.3872,-6.3572,-6.3538,-6.353,-6.3455,-6.3303,-6.3191,-6.3043,-6.2224,-6.085,-6.011,-5.9754,-5.9383,-5.9011,-5.8677,-5.8677,-5.8677,-5.8677,-5.8677,-5.8677,-5.8677,-5.8677,-5.8677,-5.8677,-5.8677,-5.8677,-5.8677,-5.8677,-5.8677,-5.8677,-5.8605,-5.7825,-5.7026,-5.5837,-5.5113,-5.4778,-5.4499,-5.4277,-6.36,-6.36,-6.36,-6.36,-6.36,-6.36,-6.36,-6.36,-6.3703,-6.4445,-6.5686,-6.6186,-6.6997,-6.7738,-6.8083,-6.8083,-6.8083,-6.8083,-6.8083,-6.8083,-6.8083,-6.8083,-6.7963,-6.779,-6.7463,-6.6997,-6.6273,-6.5479,-6.4669,-6.4341,-6.3962,-6.3738,-6.36,-6.36,-6.36,-6.36,-6.36,-6.36,-6.36,-6.36,-6.36,-6.36,-6.36,-6.36,-6.36,-6.36,-6.36,-6.36,-6.36,-6.36,-6.36,-6.36,-6.36,-6.36,-6.36,-6.36,-6.36,-6.36,-6.36,-6.36,-6.36,-6.36,-6.3565,-6.3462,-6.322,-6.2703,-6.1927,-6.1116,-6.0789,-6.0634,-6.0409,-6.0409,-6.091,-6.1533,-6.2144,-6.2683,-6.3054,-6.3574,-6.374,-6.3953,-6.4052,-6.3604,-6.3321,-6.3316,-6.3187,-6.3078,-6.1949,-6.0797,-6.0277,-5.9828,-5.9441,-5.8881,-5.8677,-5.8677,-5.8677,-5.8677,-5.8677,-5.8677,-5.8677,-5.8677,-5.8677,-5.8677,-5.8677,-5.8677,-5.8677,-5.8677,-5.8677,-5.8679,-5.8624,-5.7936,-5.6803,-5.6004,-5.5763,-5.5316,-5.4778,-6.36,-6.36,-6.36,-6.36,-6.36,-6.36,-6.36,-6.36,-6.3634,-6.4324,-6.5324,-6.5755,-6.6531,-6.748,-6.7963,-6.8083,-6.8083,-6.8083,-6.8083,-6.8083,-6.8083,-6.8083,-6.8083,-6.8066,-6.7807,-6.7394,-6.6997,-6.6359,-6.56,-6.4962,-6.4289,-6.3755,-6.36,-6.36,-6.36,-6.36,-6.36,-6.36,-6.36,-6.36,-6.36,-6.36,-6.36,-6.36,-6.36,-6.36,-6.36,-6.36,-6.36,-6.36,-6.36,-6.36,-6.36,-6.36,-6.36,-6.36,-6.36,-6.36,-6.36,-6.36,-6.36,-6.36,-6.36,-6.36,-6.3565,-6.3169,-6.2548,-6.1806,-6.0996,-6.0513,-6.0271,-6.0237,-6.0186,-6.0825,-6.138,-6.1934,-6.2657,-6.3182,-6.3914,-6.4164,-6.4502,-6.3963,-6.3444,-6.3374,-6.3349,-6.3251,-6.31,-6.1986,-6.0871,-6.0388,-5.9961,-5.9441,-5.8902,-5.8772,-5.8754,-5.8677,-5.8677,-5.8677,-5.8677,-5.8677,-5.8677,-5.8677,-5.8677,-5.8677,-5.8677,-5.8677,-5.8677,-5.8679,-5.8642,-5.8456,-5.7899,-5.7249,-5.6822,-5.6172,-5.5465,-6.36,-6.36,-6.36,-6.36,-6.36,-6.36,-6.36,-6.36,-6.36,-6.4031,-6.4772,-6.5514,-6.6273,-6.7049,-6.7738,-6.8032,-6.8083,-6.8083,-6.8083,-6.8083,-6.8083,-6.8083,-6.8083,-6.8066,-6.798,-6.7807,-6.748,-6.7066,-6.6738,-6.5376,-6.4324,-6.3841,-6.3669,-6.3617,-6.36,-6.36,-6.36,-6.36,-6.36,-6.36,-6.36,-6.36,-6.36,-6.36,-6.36,-6.36,-6.36,-6.36,-6.36,-6.36,-6.36,-6.36,-6.36,-6.36,-6.36,-6.36,-6.36,-6.36,-6.36,-6.36,-6.36,-6.36,-6.36,-6.36,-6.3565,-6.3427,-6.2962,-6.2289,-6.1513,-6.0858,-6.0375,-5.9892,-5.9461,-6.0047,-6.0646,-6.1352,-6.2178,-6.2935,-6.3782,-6.4331,-6.4895,-6.4693,-6.4044,-6.3822,-6.3544,-6.346,-6.3379,-6.3059,-6.1964,-6.1001,-6.0574,-6.0091,-5.9534,-5.8958,-5.8865,-5.8884,-5.8677,-5.8677,-5.8677,-5.8677,-5.8677,-5.8677,-5.8677,-5.8677,-5.8677,-5.8677,-5.8677,-5.8677,-5.8698,-5.8475,-5.8289,-5.8122,-5.7583,-5.6878,-5.6209,-6.36,-6.36,-6.36,-6.36,-6.36,-6.36,-6.36,-6.36,-6.36,-6.3996,-6.4703,-6.4928,-6.5773,-6.6962,-6.7238,-6.7635,-6.7928,-6.8083,-6.8083,-6.8083,-6.8083,-6.8083,-6.8083,-6.8083,-6.8083,-6.8014,-6.7807,-6.7445,-6.6756,-6.5497,-6.4772,-6.441,-6.3893,-6.372,-6.3617,-6.36,-6.36,-6.36,-6.36,-6.36,-6.36,-6.36,-6.36,-6.36,-6.36,-6.36,-6.36,-6.36,-6.36,-6.36,-6.36,-6.36,-6.36,-6.36,-6.36,-6.36,-6.36,-6.36,-6.36,-6.3617,-6.3703,-6.3789,-6.3738,-6.36,-6.36,-6.3548,-6.3289,-6.2651,-6.1806,-6.103,-6.034,-5.9806,-5.9357,-5.9511,-6.0007,-6.0504,-6.1261,-6.1953,-6.2862,-6.4104,-6.4667,-6.4819,-6.4254,-6.4033,-6.3751,-6.3678,-6.3546,-6.3397,-6.2948,-6.1949,-6.128,-6.0815,-6.024,-5.9664,-5.9292,-5.9255,-5.8921,-5.8677,-5.8696,-5.8696,-5.8677,-5.8677,-5.8677,-5.8677,-5.8677,-5.8677,-5.8677,-5.8677,-5.8677,-5.8677,-5.8549,-5.8512,-5.8308,-5.7602,-5.7026,-6.36,-6.36,-6.36,-6.36,-6.36,-6.36,-6.36,-6.36,-6.36,-6.3893,-6.4272,-6.4583,-6.5376,-6.6428,-6.6876,-6.7394,-6.8049,-6.8083,-6.8083,-6.8083,-6.8083,-6.8083,-6.8083,-6.8083,-6.8083,-6.8083,-6.8032,-6.7807,-6.7135,-6.6307,-6.5514,-6.4634,-6.4152,-6.3876,-6.3686,-6.36,-6.36,-6.36,-6.36,-6.36,-6.36,-6.36,-6.36,-6.36,-6.36,-6.3634,-6.3634,-6.3651,-6.3634,-6.3617,-6.36,-6.36,-6.36,-6.36,-6.36,-6.3651,-6.3962,-6.4048,-6.4169,-6.4479,-6.4462,-6.4479,-6.4427,-6.4341,-6.4014,-6.3807,-6.3462,-6.2944,-6.1961,-6.1065,-6.0409,-5.9789,-5.9392,-5.903,-5.9304,-5.9594,-6.0192,-6.0806,-6.2004,-6.3448,-6.4055,-6.4346,-6.4254,-6.4101,-6.3912,-6.3692,-6.3602,-6.3565,-6.323,-6.2562,-6.2041,-6.167,-6.1038,-6.0425,-6.0091,-5.9775,-5.9478,-5.9162,-5.8788,-5.877,-5.8714,-5.8677,-5.8677,-5.8677,-5.8677,-5.8677,-5.8677,-5.8677,-5.8677,-5.8677,-5.8677,-5.8642,-5.8549,-5.8308,-5.7825,-6.36,-6.36,-6.36,-6.36,-6.36,-6.36,-6.36,-6.36,-6.36,-6.3617,-6.3772,-6.4307,-6.4979,-6.579,-6.6428,-6.7152,-6.7721,-6.798,-6.8083,-6.8083,-6.8083,-6.8083,-6.8083,-6.8083,-6.8083,-6.8083,-6.8066,-6.7997,-6.7842,-6.7066,-6.5979,-6.491,-6.4807,-6.46,-6.422,-6.4169,-6.422,-6.4238,-6.4117,-6.4031,-6.3686,-6.36,-6.36,-6.3617,-6.3686,-6.3772,-6.3772,-6.3755,-6.3755,-6.3807,-6.3841,-6.3945,-6.3979,-6.4014,-6.3979,-6.4083,-6.4565,-6.4738,-6.4928,-6.5221,-6.5514,-6.5669,-6.5842,-6.5341,-6.4807,-6.422,-6.3841,-6.3151,-6.2203,-6.1444,-6.0771,-5.9771,-5.915,-5.9012,-5.9218,-5.9439,-5.9812,-6.0473,-6.1422,-6.2743,-6.361,-6.3892,-6.4143,-6.3972,-6.403,-6.3761,-6.3602,-6.3602,-6.3435,-6.297,-6.2729,-6.2413,-6.1819,-6.1261,-6.1038,-6.0685,-6.0221,-5.9812,-5.9348,-5.9048,-5.9123,-5.8937,-5.8677,-5.8677,-5.8677,-5.8677,-5.8677,-5.8677,-5.8677,-5.8677,-5.8677,-5.8677,-5.8642,-5.8586,-5.8419,-6.36,-6.36,-6.36,-6.36,-6.36,-6.36,-6.36,-6.36,-6.36,-6.36,-6.3634,-6.3841,-6.4307,-6.5117,-6.5824,-6.6566,-6.7256,-6.7773,-6.8032,-6.8083,-6.8083,-6.8083,-6.8083,-6.8083,-6.8083,-6.8083,-6.8083,-6.8066,-6.7945,-6.7376,-6.6876,-6.6376,-6.5945,-6.5376,-6.5134,-6.5117,-6.51,-6.5031,-6.5031,-6.4548,-6.3927,-6.3686,-6.36,-6.3824,-6.4014,-6.4393,-6.4583,-6.4962,-6.5169,-6.5341,-6.5341,-6.5341,-6.5341,-6.5307,-6.5307,-6.5376,-6.5428,-6.5566,-6.5704,-6.5911,-6.61,-6.6031,-6.5979,-6.5807,-6.5428,-6.4807,-6.4117,-6.3358,-6.2582,-6.1875,-6.1013,-5.9909,-5.903,-5.9064,-5.9132,-5.9335,-5.9535,-6.0223,-6.0956,-6.1855,-6.2909,-6.3391,-6.3676,-6.3947,-6.404,-6.3918,-6.3695,-6.3602,-6.3602,-6.336,-6.3305,-6.3007,-6.2562,-6.2097,-6.1911,-6.154,-6.1057,-6.0611,-6.0184,-5.9887,-5.9568,-5.9253,-5.8956,-5.8751,-5.8677,-5.8677,-5.8677,-5.8677,-5.8677,-5.8677,-5.8677,-5.8677,-5.8677,-5.8642,-5.8584,-6.36,-6.36,-6.36,-6.36,-6.36,-6.36,-6.36,-6.36,-6.36,-6.36,-6.36,-6.3651,-6.4014,-6.4617,-6.5186,-6.6066,-6.6842,-6.7376,-6.7773,-6.798,-6.8083,-6.8083,-6.8083,-6.8083,-6.8083,-6.8083,-6.8083,-6.8049,-6.7997,-6.7773,-6.7411,-6.7049,-6.6514,-6.6238,-6.6031,-6.5911,-6.5945,-6.5842,-6.5945,-6.5428,-6.4583,-6.4565,-6.46,-6.4807,-6.4945,-6.5221,-6.5324,-6.5669,-6.5755,-6.5859,-6.5773,-6.5773,-6.5738,-6.5738,-6.5807,-6.5928,-6.61,-6.6376,-6.6462,-6.6583,-6.6721,-6.6721,-6.6807,-6.6928,-6.6411,-6.5807,-6.5169,-6.4393,-6.3393,-6.2634,-6.1375,-6.0237,-5.9444,-5.9168,-5.9116,-5.9149,-5.9351,-5.9772,-6.0191,-6.0533,-6.145,-6.2137,-6.2566,-6.3284,-6.3464,-6.3806,-6.362,-6.3602,-6.3602,-6.3602,-6.3602,-6.3527,-6.3044,-6.2914,-6.2836,-6.2394,-6.1819,-6.141,-6.1038,-6.0425,-5.9961,-5.955,-5.9216,-5.8993,-5.8788,-5.8677,-5.8677,-5.8677,-5.8677,-5.8677,-5.8677,-5.8677,-5.8677,-5.8677,-5.864,-6.36,-6.36,-6.3703,-6.3738,-6.3755,-6.3876,-6.3945,-6.3945,-6.3927,-6.3945,-6.4014,-6.4014,-6.4255,-6.4376,-6.4755,-6.5738,-6.6531,-6.7014,-6.7463,-6.7945,-6.8066,-6.8083,-6.8083,-6.8083,-6.8083,-6.8083,-6.8083,-6.8083,-6.8066,-6.7911,-6.7669,-6.7221,-6.7014,-6.6842,-6.6342,-6.6186,-6.6376,-6.6462,-6.648,-6.6324,-6.61,-6.6,-6.5755,-6.5773,-6.5979,-6.6014,-6.6031,-6.6152,-6.6152,-6.6273,-6.6411,-6.6445,-6.6462,-6.6514,-6.6445,-6.6583,-6.6893,-6.7083,-6.7221,-6.7549,-6.7773,-6.7963,-6.8083,-6.7807,-6.7221,-6.6773,-6.6135,-6.5376,-6.4376,-6.3169,-6.191,-6.0806,-6.0047,-5.9202,-5.9099,-5.9012,-5.9183,-5.9351,-5.9486,-5.9621,-6.0276,-6.1027,-6.1723,-6.2471,-6.3026,-6.34,-6.3602,-6.3602,-6.3602,-6.3602,-6.3602,-6.3602,-6.3397,-6.3397,-6.3468,-6.3137,-6.2487,-6.2301,-6.1874,-6.1038,-6.0388,-6.0202,-5.9791,-5.916,-5.8993,-5.8956,-5.8772,-5.8677,-5.8677,-5.8677,-5.8677,-5.8677,-5.8677,-5.8677,-5.8677,-6.36,-6.3634,-6.4238,-6.4479,-6.4565,-6.5117,-6.5483,-6.5445,-6.5393,-6.5462,-6.5324,-6.529,-6.5014,-6.3876,-6.4479,-6.5324,-6.6169,-6.6652,-6.7376,-6.7997,-6.8066,-6.8083,-6.8083,-6.8083,-6.8083,-6.8083,-6.8083,-6.8083,-6.8083,-6.8083,-6.8049,-6.7807,-6.7825,-6.7756,-6.7704,-6.7549,-6.7428,-6.7394,-6.7411,-6.7394,-6.7135,-6.6738,-6.5962,-6.6083,-6.6462,-6.6652,-6.6911,-6.7394,-6.7583,-6.7669,-6.7566,-6.7497,-6.7428,-6.7376,-6.7376,-6.7307,-6.7618,-6.7669,-6.7859,-6.7963,-6.8083,-6.8083,-6.8083,-6.8049,-6.7721,-6.7704,-6.71,-6.6549,-6.5445,-6.4048,-6.2789,-6.1668,-6.0771,-5.9582,-5.9012,-5.9012,-5.9081,-5.9115,-5.9166,-5.9451,-5.9858,-6.0585,-6.1257,-6.2022,-6.2806,-6.3181,-6.3557,-6.3579,-6.3602,-6.3602,-6.3602,-6.3602,-6.3602,-6.3602,-6.3583,-6.3565,-6.3156,-6.3026,-6.271,-6.1893,-6.1298,-6.1057,-6.0593,-5.9942,-5.9534,-5.9422,-5.9181,-5.8846,-5.8677,-5.8677,-5.8677,-5.8677,-5.8677,-5.8677,-5.8677]},{"header":{"parameterUnit":"m.s-1","parameterCategory":1,"la1":31.0,"la2":29.5877,"lo1":-88.7671,"lo2":-86.6584,"dy":0.0162,"dx":0.0185,"nx":115,"ny":88,"refTime":"2023-03-19T12:00:00:Z","depth":0,"parameterNumber":3,"parameterNumberName":"V-component_of_WINDS"},"data":[0.0,0.0,0.0,0.0,0.0,0.0,0.0,0.0,0.0,0.0,0.0,0.0,0.0,0.0,0.0,0.0,0.0,0.0,0.0,0.0,0.0,0.0,0.0,0.0,0.0,0.0,0.0,0.0,0.0,0.0,0.0,0.0,0.0,0.0,0.0,0.0,0.0,0.0,0.0,0.0,0.0,0.0,0.0,0.0,0.0,0.0,0.0,0.0,0.0,0.0,0.0,0.0,0.0,0.0,0.0,0.0,0.0,0.0,0.0,0.0,0.0,0.0,0.0,0.0,0.0,0.0,0.0,0.0,0.0,0.0,0.0,0.0,0.0,0.0,0.0,0.0,0.0,0.0,0.0,0.0,0.0,0.0,0.0,0.0,0.0,0.0,0.0,0.0,0.0,0.0,0.0,0.0,0.0,0.0,0.0,0.0,0.0,0.0,0.0,0.0,0.0,0.0,0.0,0.0,0.0,0.0,0.0,0.0,0.0,0.0,0.0,0.0,0.0,0.0,0.0,0.0,0.0,0.0,0.0,0.0,0.0,0.0,0.0,0.0,0.0,0.0,0.0,0.0,0.0,0.0,0.0,0.0,0.0,0.0,0.0,0.0,0.0,0.0,0.0,0.0,0.0,0.0,0.0,0.0,0.0,0.0,0.0,0.0,0.0,0.0,0.0,0.0,0.0,0.0,0.0,0.0,0.0,0.0,0.0,0.0,0.0,0.0,0.0,0.0,0.0,0.0,0.0,0.0,0.0,0.0,0.0,0.0,0.0,0.0,0.0,0.0,0.0,0.0,0.0,0.0,0.0,0.0,0.0,0.0,0.0,0.0,0.0,0.0,0.0,0.0,0.0,0.0,0.0,0.0,0.0,0.0,0.0,0.0,0.0,0.0,0.0,0.0,0.0,0.0,0.0,0.0,0.0,0.0,0.0,0.0,0.0,0.0,0.0,0.0,0.0,0.0,0.0,0.0,0.0,0.0,0.0,0.0,0.0,0.0,0.0,0.0,0.0,0.0,0.0,0.0,0.0,0.0,0.0,0.0,0.0,0.0,0.0,0.0,0.0,0.0,0.0,0.0,0.0,0.0,0.0,0.0,0.0,0.0,0.0,0.0,0.0,0.0,0.0,0.0,0.0,0.0,0.0,0.0,0.0,0.0,0.0,0.0,0.0,0.0,0.0,0.0,0.0,0.0,0.0,0.0,0.0,0.0,0.0,0.0,0.0,0.0,0.0,0.0,0.0,0.0,0.0,0.0,0.0,0.0,0.0,0.0,0.0,0.0,0.0,0.0,0.0,0.0,0.0,0.0,0.0,0.0,0.0,0.0,0.0,0.0,0.0,0.0,0.0,0.0,0.0,0.0,0.0,0.0,0.0,0.0,0.0,0.0,0.0,0.0,0.0,0.0,0.0,0.0,0.0,0.0,0.0,0.0,0.0,0.0,0.0,0.0,0.0,0.0,0.0,0.0,0.0,0.0,0.0,0.0,0.0,0.0,0.0,0.0,0.0,0.0,0.0,0.0,0.0,0.0,0.0,0.0,0.0,0.0,0.0,0.0,0.0,0.0,0.0,0.0,0.0,0.0,0.0,0.0,0.0,0.0,0.0,0.0,0.0,0.0,0.0,0.0,0.0,0.0,0.0,0.0,0.0,0.0,0.0,0.0,0.0,0.0,0.0,0.0,0.0,0.0,0.0,0.0,0.0,0.0,0.0,0.0,0.0,0.0,0.0,0.0,0.0,0.0,0.0,0.0,0.0,0.0,0.0,0.0,0.0,0.0,0.0,0.0,0.0,0.0,0.0,0.0,0.0,0.0,0.0,0.0,0.0,0.0,0.0,0.0,0.0,0.0,0.0,0.0,0.0,0.0,0.0,0.0,0.0,0.0,0.0,0.0,0.0,0.0,0.0,0.0,0.0,0.0,0.0,0.0,0.0,0.0,0.0,0.0,0.0,0.0,0.0,0.0,0.0,0.0,0.0,0.0,0.0,0.0,0.0,0.0,0.0,0.0,0.0,0.0,0.0,0.0,0.0,0.0,0.0,0.0,0.0,0.0,0.0,0.0,0.0,0.0,0.0,0.0,0.0,0.0,0.0,0.0,0.0,0.0,0.0,0.0,0.0,0.0,0.0,0.0,0.0,0.0,0.0,0.0,0.0,0.0,0.0,0.0,0.0,0.0,0.0,0.0,0.0,0.0,0.0,0.0,0.0,0.0,0.0,0.0,0.0,0.0,0.0,0.0,0.0,0.0,0.0,0.0,0.0,0.0,0.0,0.0,0.0,0.0,0.0,0.0,0.0,0.0,0.0,0.0,0.0,0.0,0.0,0.0,0.0,0.0,0.0,0.0,0.0,0.0,0.0,0.0,0.0,0.0,0.0,0.0,0.0,0.0,0.0,0.0,0.0,0.0,0.0,0.0,0.0,0.0,0.0,0.0,0.0,0.0,0.0,0.0,0.0,0.0,0.0,0.0,0.0,0.0,0.0,0.0,0.0,0.0,0.0,0.0,0.0,0.0,0.0,0.0,0.0,0.0,0.0,0.0,0.0,0.0,0.0,0.0,0.0,0.0,0.0,0.0,0.0,0.0,0.0,0.0,0.0,0.0,0.0,0.0,0.0,0.0,0.0,0.0,0.0,0.0,0.0,0.0,0.0,0.0,0.0,0.0,0.0,0.0,0.0,0.0,0.0,0.0,0.0,0.0,0.0,0.0,0.0,0.0,0.0,0.0,0.0,0.0,0.0,0.0,0.0,0.0,0.0,0.0,0.0,0.0,0.0,0.0,0.0,0.0,0.0,0.0,0.0,0.0,0.0,0.0,0.0,0.0,0.0,0.0,0.0,0.0,0.0,0.0,0.0,0.0,0.0,0.0,0.0,0.0,0.0,0.0,0.0,0.0,0.0,0.0,0.0,0.0,0.0,0.0,0.0,0.0,0.0,0.0,0.0,0.0,0.0,0.0,0.0,0.0,0.0,0.0,0.0,0.0,0.0,0.0,0.0,0.0,0.0,0.0,0.0,0.0,0.0,0.0,0.0,0.0,0.0,0.0,0.0,0.0,0.0,0.0,0.0,0.0,0.0,0.0,0.0,0.0,0.0,0.0,0.0,0.0,0.0,0.0,0.0,0.0,0.0,0.0,0.0,0.0,0.0,0.0,0.0,0.0,0.0,0.0,0.0,0.0,0.0,0.0,0.0,0.0,0.0,0.0,0.0,0.0,0.0,0.0,0.0,0.0,0.0,0.0,0.0,0.0,0.0,0.0,0.0,0.0,0.0,0.0,0.0,0.0,0.0,0.0,0.0,0.0,0.0,0.0,0.0,0.0,0.0,0.0,0.0,0.0,0.0,0.0,0.0,0.0,0.0,0.0,0.0,0.0,0.0,0.0,0.0,0.0,0.0,0.0,0.0,0.0,0.0,0.0,0.0,0.0,0.0,0.0,0.0,0.0,0.0,0.0,0.0,0.0,0.0,0.0,0.0,0.0,0.0,0.0,0.0,0.0,0.0,0.0,0.0,0.0,0.0,0.0,0.0,0.0,0.0,0.0,0.0,0.0,0.0,0.0,0.0,0.0,0.0,0.0,0.0,0.0,0.0,0.0,0.0,0.0,0.0,0.0,0.0,0.0,0.0,0.0,0.0,0.0,0.0,0.0,0.0,0.0,0.0,0.0,0.0,0.0,0.0,0.0,0.0,0.0,0.0,0.0,0.0,0.0,0.0,0.0,0.0,0.0,0.0,0.0,0.0,0.0,0.0,0.0,0.0,0.0,0.0,0.0,0.0,0.0,0.0,0.0,0.0,0.0,0.0,0.0,0.0,0.0,0.0,0.0,0.0,0.0,0.0,0.0,0.0,0.0,0.0,0.0,0.0,0.0,0.0,0.0,0.0,0.0,0.0,0.0,0.0,0.0,0.0,0.0,0.0,0.0,0.0,0.0,0.0,0.0,0.0,0.0,0.0,0.0,0.0,0.0,0.0,0.0,0.0,0.0,0.0,0.0,0.0,0.0,0.0,0.0,0.0,0.0,0.0,0.0,0.0,0.0,0.0,0.0,0.0,0.0,0.0,0.0,0.0,0.0,0.0,0.0,0.0,0.0,0.0,0.0,0.0,0.0,0.0,0.0,0.0,0.0,0.0,0.0,0.0,0.0,0.0,0.0,0.0,0.0,0.0,0.0,0.0,0.0,0.0,0.0,0.0,0.0,0.0,0.0,0.0,0.0,0.0,0.0,0.0,0.0,0.0,0.0,0.0,0.0,0.0,0.0,0.0,0.0,0.0,0.0,0.0,0.0,1.4298,0.0,0.0,0.0,0.0,0.0,0.0,0.0,0.0,0.0,0.0,0.0,0.0,0.0,0.0,0.0,0.0,0.0,0.0,0.0,0.0,0.0,0.0,0.0,0.0,0.0,0.0,0.0,0.0,0.0,0.0,0.0,0.0,0.0,0.0,0.0,0.0,0.0,0.0,0.0,0.0,0.0,0.0,0.0,0.0,0.0,0.0,0.0,0.0,0.0,0.0,0.0,0.0,0.0,0.0,0.0,0.0,0.0,0.0,0.0,0.0,0.0,0.0,0.0,0.0,0.0,0.0,0.0,0.0,0.0,0.0,0.0,0.0,0.0,0.0,0.0,0.0,0.0,0.0,0.0,0.0,0.0,0.0,0.0,0.0,0.0,0.0,0.0,0.0,0.0,0.0,0.0,0.0,0.0,0.0,0.0,0.0,0.0,0.0,0.0,0.0,0.0,0.0,0.0,0.0,0.0,0.0,0.0,0.0,0.0,0.0,1.4298,1.4298,1.4298,1.4226,1.4081,0.0,0.0,0.0,0.0,0.0,0.0,0.0,0.0,0.0,0.0,0.0,0.0,0.0,0.0,0.0,0.0,0.0,0.0,0.0,0.0,0.0,0.0,0.0,0.0,0.0,0.0,0.0,0.0,0.0,0.0,0.0,0.0,0.0,0.0,0.0,0.0,0.0,0.0,0.0,0.0,0.0,0.0,0.0,0.0,0.0,0.0,0.0,0.0,0.0,0.0,0.0,0.0,0.0,0.0,0.0,0.0,0.0,0.0,0.0,0.0,0.0,0.0,0.0,0.0,0.0,0.0,0.0,0.0,0.0,0.0,0.0,0.0,0.0,0.0,0.0,0.0,0.0,0.0,0.0,0.0,0.0,0.0,0.0,0.0,0.0,0.0,0.0,0.0,0.0,0.0,0.0,0.0,0.0,0.0,0.0,0.0,0.0,0.0,0.0,0.0,0.0,0.0,0.0,0.0,0.0,0.0,0.0,0.0,0.0,0.0,0.0,0.0,1.4238,1.4057,1.3731,0.0,0.0,0.0,0.0,0.0,0.0,0.0,0.0,0.0,0.0,0.0,0.0,0.0,0.0,0.0,0.0,0.0,0.0,0.0,0.0,0.0,0.0,0.0,0.0,0.0,0.0,0.0,0.0,0.0,0.0,0.0,0.0,0.0,0.0,0.0,0.0,0.0,0.0,0.0,0.0,0.0,0.0,0.0,0.0,0.0,0.0,0.0,0.0,0.0,0.0,0.0,0.0,0.0,0.0,0.0,0.0,0.0,0.0,0.0,0.0,0.0,0.0,0.0,0.0,0.0,0.0,0.0,0.0,0.0,0.0,0.0,0.0,0.0,0.0,0.0,0.0,0.0,0.0,0.0,0.0,0.0,0.0,0.0,0.0,0.0,0.0,0.0,0.0,0.0,0.0,0.0,0.0,0.0,0.0,0.0,0.0,0.0,0.0,0.0,0.0,0.0,0.0,0.0,0.0,0.0,0.0,0.0,0.0,0.0,0.0,1.4298,1.4298,1.4063,0.0,1.323,0.0,0.0,0.0,0.0,0.0,0.0,0.0,0.0,0.0,0.0,0.0,0.0,0.0,0.0,0.0,0.0,0.0,0.0,0.0,0.0,0.0,0.0,0.0,0.0,0.0,0.0,0.0,0.0,0.0,0.0,0.0,0.0,0.0,0.0,0.0,0.0,0.0,0.0,0.0,0.0,0.0,0.0,0.0,0.0,0.0,0.0,0.0,0.0,0.0,0.0,0.0,0.0,0.0,0.0,0.0,0.0,0.0,0.0,0.0,0.0,0.0,0.0,0.0,0.0,0.0,0.0,0.0,0.0,0.0,0.0,0.0,0.0,0.0,0.0,0.0,0.0,0.0,0.0,0.0,0.0,0.0,0.0,0.0,0.0,0.0,0.0,0.0,0.0,0.0,0.0,0.0,0.0,0.0,0.0,0.0,0.0,0.0,0.0,0.0,0.0,0.0,0.0,0.0,0.0,0.0,0.0,0.0,0.0,0.0,0.0,1.4298,1.4298,1.3894,1.3456,0.0,0.0,0.0,0.0,0.0,0.0,0.0,0.0,0.0,0.0,0.0,0.0,0.0,0.0,0.0,0.0,0.0,0.0,0.0,0.0,0.0,0.0,0.0,0.0,0.0,0.0,0.0,0.0,0.0,0.0,0.0,0.0,0.0,0.0,0.0,0.0,0.0,0.0,0.0,0.0,0.0,0.0,0.0,0.0,0.0,0.0,0.0,0.0,0.0,0.0,0.0,0.0,0.0,0.0,0.0,0.0,0.0,0.0,0.0,0.0,0.0,0.0,0.0,0.0,0.0,0.0,0.0,0.0,0.0,0.0,0.0,0.0,0.0,0.0,0.0,0.0,0.0,0.0,0.0,0.0,0.0,0.0,0.0,0.0,0.0,0.0,0.0,0.0,0.0,0.0,0.0,0.0,0.0,0.0,0.0,0.0,0.0,0.0,0.0,0.0,0.0,0.0,0.0,0.0,0.0,0.0,0.0,0.0,0.0,0.0,1.4298,1.4232,1.4081,1.3713,1.3357,1.3025,0.0,0.0,0.0,0.0,0.0,0.0,0.0,0.0,0.0,0.0,0.0,0.0,0.0,0.0,0.0,0.0,0.0,0.0,0.0,0.0,0.0,0.0,0.0,0.0,0.0,0.0,0.0,0.0,0.0,0.0,0.0,0.0,0.0,0.0,0.0,0.0,0.0,0.0,0.0,0.0,0.0,0.0,0.0,0.0,0.0,0.0,0.0,0.0,0.0,0.0,0.0,0.0,0.0,0.0,0.0,0.0,0.0,0.0,0.0,0.0,0.0,0.0,0.0,0.0,0.0,0.0,0.0,0.0,0.0,0.0,0.0,0.0,0.0,0.0,0.0,0.0,0.0,0.0,0.0,0.0,0.0,0.0,0.0,0.0,0.0,0.0,0.0,0.0,0.0,0.0,0.0,0.0,0.0,0.0,0.0,0.0,0.0,0.0,0.0,0.0,0.0,0.0,0.0,0.0,0.0,0.0,0.0,0.0,1.4298,1.4298,1.4057,1.358,1.3525,1.3266,0.0,0.0,0.0,0.0,0.0,0.0,0.0,0.0,0.0,0.0,0.0,0.0,0.0,0.0,0.0,0.0,0.0,0.0,0.0,0.0,0.0,0.0,0.0,0.0,0.0,0.0,0.0,0.0,0.0,0.0,0.0,0.0,0.0,0.0,0.0,0.0,0.0,0.0,0.0,0.0,0.0,0.0,0.0,0.0,0.0,0.0,0.0,0.0,0.0,0.0,0.0,0.0,0.0,0.0,0.0,0.0,0.0,0.0,0.0,0.0,0.0,0.0,0.0,0.0,0.0,0.0,0.0,0.0,0.0,0.0,0.0,0.0,0.0,0.0,0.0,0.0,0.0,0.0,0.0,0.0,0.0,0.0,0.0,0.0,0.0,0.0,0.0,0.0,0.0,0.0,0.0,0.0,0.0,0.0,0.0,0.0,0.0,0.0,0.0,0.0,0.0,0.0,0.0,0.0,0.0,0.0,0.0,0.0,0.0,1.4298,1.4298,1.4045,1.3544,1.3468,1.326,0.0,0.0,0.0,0.0,0.0,0.0,0.0,0.0,0.0,0.0,0.0,0.0,0.0,0.0,0.0,0.0,0.0,0.0,0.0,0.0,0.0,0.0,0.0,0.0,0.0,0.0,0.0,0.0,0.0,0.0,0.0,0.0,0.0,0.0,0.0,0.0,0.0,0.0,0.0,0.0,0.0,0.0,0.0,0.0,0.0,0.0,0.0,0.0,0.0,0.0,0.0,0.0,0.0,0.0,0.0,0.0,0.0,0.0,0.0,0.0,0.0,0.0,0.0,0.0,0.0,0.0,0.0,0.0,0.0,0.0,0.0,0.0,0.0,0.0,0.0,0.0,0.0,0.0,0.0,0.0,0.0,0.0,0.0,0.0,0.0,0.0,0.0,0.0,0.0,0.0,0.0,0.0,0.0,0.0,0.0,0.0,0.0,0.0,0.0,0.0,0.0,0.0,0.0,0.0,0.0,0.0,0.0,0.0,0.0,1.4298,0.0,1.4051,1.3544,1.3468,1.326,0.0,0.0,0.0,0.0,0.0,0.0,0.0,0.0,0.0,0.0,0.0,0.0,0.0,0.0,0.0,0.0,0.0,0.0,0.0,0.0,0.0,0.0,0.0,0.0,0.0,0.0,0.0,0.0,0.0,0.0,0.0,0.0,0.0,0.0,0.0,0.0,0.0,0.0,0.0,0.0,0.0,0.0,0.0,0.0,0.0,0.0,0.0,0.0,0.0,0.0,0.0,0.0,0.0,0.0,0.0,0.0,0.0,0.0,0.0,0.0,0.0,0.0,0.0,0.0,0.0,0.0,0.0,0.0,0.0,0.0,0.0,0.0,0.0,0.0,0.0,0.0,0.0,0.0,0.0,0.0,0.0,0.0,0.0,0.0,0.0,0.0,0.0,0.0,0.0,0.0,0.0,0.0,0.0,0.0,0.0,0.0,0.0,0.0,0.0,0.0,0.0,0.0,0.0,0.0,0.0,0.0,0.0,0.0,1.4304,1.4298,1.4298,1.4051,1.3544,1.3519,1.326,0.0,0.0,0.0,0.0,0.0,0.0,0.0,0.0,0.0,0.0,0.0,0.0,0.0,0.0,0.0,0.0,0.0,0.0,0.0,0.0,0.0,0.0,0.0,0.0,0.0,0.0,0.0,0.0,0.0,0.0,0.0,0.0,0.0,0.0,0.0,0.0,0.0,0.0,0.0,0.0,0.0,0.0,0.0,0.0,0.0,0.0,0.0,0.0,0.0,0.0,0.0,0.0,0.0,0.0,0.0,0.0,0.0,0.0,0.0,0.0,0.0,0.0,0.0,0.0,0.0,0.0,0.0,0.0,0.0,0.0,0.0,0.0,0.0,0.0,0.0,0.0,0.0,0.0,0.0,0.0,0.0,0.0,0.0,0.0,0.0,0.0,0.0,0.0,0.0,0.0,0.0,0.0,0.0,0.0,0.0,0.0,0.0,0.0,0.0,0.0,0.0,0.0,0.0,0.0,0.0,0.0,0.0,0.0,0.0,1.4304,1.4298,1.4135,1.3797,1.361,1.3306,0.0,0.0,0.0,0.0,0.0,0.0,0.0,0.0,0.0,0.0,0.0,0.0,0.0,0.0,0.0,0.0,0.0,0.0,0.0,0.0,0.0,0.0,0.0,0.0,0.0,0.0,0.0,0.0,0.0,0.0,0.0,0.0,0.0,0.0,0.0,0.0,0.0,0.0,0.0,0.0,0.0,0.0,0.0,0.0,0.0,0.0,0.0,0.0,0.0,0.0,0.0,0.0,0.0,0.0,0.0,0.0,0.0,0.0,0.0,0.0,0.0,0.0,0.0,0.0,0.0,0.0,0.0,0.0,0.0,0.0,0.0,0.0,0.0,0.0,0.0,0.0,0.0,0.0,0.0,0.0,0.0,0.0,0.0,0.0,0.0,0.0,0.0,0.0,0.0,0.0,0.0,0.0,0.0,0.0,0.0,0.0,0.0,0.0,0.0,0.0,0.0,0.0,0.0,0.0,0.0,0.0,0.0,0.0,0.0,1.4745,1.4648,1.4473,1.4214,1.3948,1.3586,1.3139,0.0,0.0,0.0,0.0,0.0,0.0,0.0,0.0,0.0,0.0,0.0,0.0,0.0,0.0,0.0,0.0,0.0,0.0,0.0,0.0,0.0,0.0,0.0,0.0,0.0,0.0,0.0,0.0,0.0,0.0,0.0,0.0,0.0,0.0,0.0,0.0,0.0,0.0,0.0,0.0,0.0,0.0,0.0,0.0,0.0,0.0,0.0,0.0,0.0,0.0,0.0,0.0,0.0,0.0,0.0,0.0,0.0,0.0,0.0,0.0,0.0,0.0,0.0,0.0,0.0,0.0,0.0,0.0,0.0,0.0,0.0,0.0,0.0,0.0,0.0,0.0,0.0,0.0,0.0,0.0,0.0,0.0,0.0,0.0,0.0,0.0,0.0,0.0,0.0,0.0,0.0,0.0,0.0,0.0,0.0,0.0,0.0,0.0,0.0,0.0,0.0,0.0,0.0,0.0,0.0,0.0,0.0,0.0,1.5559,1.5312,1.504,1.4763,1.4455,1.3936,0.0,0.0,0.0,0.0,0.0,0.0,0.0,0.0,0.0,0.0,0.0,0.0,0.0,0.0,0.0,0.0,0.0,0.0,0.0,0.0,0.0,0.0,0.0,0.0,0.0,0.0,0.0,0.0,0.0,0.0,0.0,0.0,0.0,0.0,0.0,0.0,0.0,0.0,0.0,0.0,0.0,0.0,0.0,0.0,0.0,0.0,0.0,0.0,0.0,0.0,0.0,0.0,0.0,0.0,0.0,0.0,0.0,0.0,0.0,0.0,0.0,0.0,0.0,0.0,0.0,0.0,0.0,0.0,0.0,0.0,0.0,0.0,0.0,0.0,0.0,0.0,0.0,0.0,0.0,0.0,0.0,0.0,0.0,0.0,0.0,0.0,0.0,0.0,0.0,0.0,0.0,0.0,0.0,0.0,0.0,0.0,0.0,0.0,0.0,0.0,0.0,0.0,0.0,0.0,0.0,0.0,0.0,0.0,0.0,1.6344,1.6133,1.5771,1.53,1.4648,1.4111,0.0,0.0,0.0,0.0,0.0,0.0,0.0,0.0,0.0,0.0,0.0,0.0,0.0,0.0,0.0,0.0,0.0,0.0,0.0,0.0,0.0,0.0,0.0,0.0,0.0,0.0,0.0,0.0,0.0,0.0,0.0,0.0,0.0,0.0,0.0,0.0,0.0,0.0,0.0,0.0,0.0,0.0,0.0,0.0,0.0,0.0,0.0,0.0,0.0,0.0,0.0,0.0,0.0,0.0,0.0,0.0,0.0,0.0,0.0,0.0,0.0,0.0,0.0,0.0,0.0,0.0,0.0,0.0,0.0,0.0,0.0,0.0,0.0,0.0,0.0,0.0,0.0,0.0,0.0,0.0,0.0,0.0,0.0,0.0,0.0,0.0,0.0,0.0,0.0,0.0,0.0,0.0,0.0,0.0,0.0,0.0,0.0,0.0,0.0,0.0,0.0,0.0,0.0,0.0,0.0,0.0,0.0,0.0,1.6217,1.6906,1.671,1.6533,1.6388,1.5271,1.4407,0.0,0.0,0.0,0.0,0.0,0.0,0.0,0.0,0.0,0.0,0.0,0.0,0.0,0.0,0.0,0.0,0.0,0.0,0.0,0.0,0.0,0.0,0.0,0.0,0.0,0.0,0.0,0.0,0.0,0.0,0.0,0.0,0.0,0.0,0.0,0.0,0.0,0.0,0.0,0.0,0.0,0.0,0.0,0.0,0.0,0.0,0.0,0.0,0.0,0.0,0.0,0.0,0.0,0.0,0.0,0.0,0.0,0.0,0.0,0.0,0.0,0.0,0.0,0.0,0.0,0.0,0.0,0.0,0.0,0.0,0.0,0.0,0.0,0.0,0.0,0.0,0.0,0.0,0.0,0.0,0.0,0.0,0.0,0.0,0.0,0.0,0.0,0.0,0.0,0.0,0.0,0.0,0.0,0.0,0.0,0.0,0.0,0.0,0.0,0.0,0.0,0.0,0.0,0.0,0.0,0.0,0.0,0.0,1.6588,1.7173,1.7179,1.7279,1.7507,1.5977,1.4806,0.0,0.0,0.0,0.0,0.0,0.0,0.0,0.0,0.0,0.0,0.0,0.0,0.0,0.0,0.0,0.0,0.0,0.0,0.0,0.0,0.0,0.0,0.0,0.0,0.0,0.0,0.0,0.0,0.0,0.0,0.0,0.0,0.0,0.0,0.0,0.0,0.0,0.0,0.0,0.0,0.0,0.0,0.0,0.0,0.0,0.0,0.0,0.0,0.0,0.0,0.0,0.0,0.0,0.0,0.0,0.0,0.0,0.0,0.0,0.0,0.0,0.0,0.0,0.0,0.0,0.0,0.0,0.0,0.0,0.0,0.0,0.0,0.0,0.0,0.0,0.0,0.0,0.0,0.0,0.0,0.0,0.0,0.0,0.0,0.0,0.0,0.0,0.0,0.0,0.0,0.0,0.0,0.0,0.0,0.0,0.0,0.0,0.0,0.0,0.0,0.0,0.0,0.0,0.0,0.0,0.0,0.0,0.0,1.6568,1.7104,1.7395,1.7403,1.7185,1.607,1.532,0.0,0.0,0.0,0.0,0.0,0.0,0.0,0.0,0.0,0.0,0.0,0.0,0.0,0.0,0.0,0.0,0.0,0.0,0.0,0.0,0.0,0.0,0.0,0.0,0.0,0.0,0.0,0.0,0.0,0.0,0.0,0.0,0.0,0.0,0.0,0.0,0.0,0.0,0.0,0.0,0.0,0.0,0.0,0.0,0.0,0.0,0.0,0.0,1.3264,0.0,0.0,0.0,0.0,0.0,0.0,0.0,0.0,0.0,0.0,0.0,0.0,0.0,0.0,0.0,0.0,0.0,0.0,0.0,0.0,0.0,0.0,0.0,0.0,0.0,0.0,0.0,0.0,0.0,0.0,0.0,0.0,0.0,0.0,0.0,0.0,0.0,0.0,0.0,0.0,0.0,0.0,0.0,0.0,0.0,0.0,0.0,0.0,0.0,0.0,0.0,0.0,0.0,0.0,0.0,0.0,0.0,0.0,0.0,1.6788,1.7297,1.7481,1.7516,1.7507,1.6583,1.5884,0.0,0.0,0.0,0.0,0.0,0.0,0.0,0.0,0.0,0.0,0.0,0.0,0.0,0.0,0.0,0.0,0.0,0.0,0.0,0.0,0.0,0.0,0.0,0.0,0.0,0.0,0.0,0.0,0.0,0.0,0.0,0.0,0.0,0.0,0.0,0.0,0.0,0.0,0.0,0.0,0.0,0.0,0.0,0.0,0.0,0.0,0.0,0.0,0.0,0.0,0.0,0.0,0.0,0.0,0.0,0.0,0.0,0.0,0.0,0.0,0.0,0.0,0.0,0.0,0.0,0.0,0.0,0.0,0.0,0.0,0.0,0.0,0.0,0.0,0.0,0.0,0.0,0.0,0.0,0.0,0.0,0.0,0.0,0.0,0.0,0.0,0.0,0.0,0.0,0.0,0.0,0.0,0.0,0.0,0.0,0.0,0.0,0.0,0.0,0.0,0.0,0.0,0.0,0.0,0.0,0.0,0.0,1.6387,1.7065,1.7645,1.7709,1.7843,1.7971,1.7289,1.6516,1.5733,0.0,0.0,0.0,0.0,0.0,0.0,0.0,0.0,0.0,0.0,0.0,0.0,0.0,0.0,0.0,0.0,0.0,0.0,0.0,0.0,0.0,0.0,0.0,0.0,0.0,0.0,0.0,0.0,0.0,0.0,0.0,0.0,0.0,0.0,0.0,0.0,0.0,0.0,1.3095,1.3375,0.0,0.0,0.0,0.0,0.0,0.0,0.0,0.0,1.3845,0.0,0.0,0.0,0.0,0.0,0.0,0.0,0.0,0.0,0.0,0.0,0.0,0.0,0.0,0.0,0.0,0.0,0.0,0.0,0.0,0.0,0.0,0.0,0.0,0.0,0.0,0.0,0.0,0.0,0.0,0.0,0.0,0.0,0.0,0.0,0.0,0.0,0.0,0.0,0.0,0.0,0.0,0.0,0.0,0.0,0.0,0.0,0.0,0.0,0.0,0.0,0.0,0.0,0.0,0.0,0.0,1.6145,1.679,1.7384,1.7944,1.8409,1.8441,1.804,1.7871,1.7391,1.6517,0.0,0.0,0.0,0.0,0.0,0.0,0.0,0.0,0.0,0.0,0.0,0.0,0.0,0.0,0.0,0.0,0.0,0.0,0.0,0.0,0.0,0.0,0.0,0.0,0.0,0.0,0.0,0.0,0.0,0.0,0.0,0.0,0.0,0.0,0.0,0.0,0.0,0.0,0.0,1.3489,1.361,0.0,0.0,0.0,0.0,0.0,0.0,0.0,0.0,1.4443,0.0,0.0,0.0,0.0,0.0,0.0,0.0,0.0,0.0,0.0,0.0,0.0,0.0,0.0,0.0,0.0,0.0,0.0,0.0,0.0,0.0,0.0,0.0,0.0,0.0,0.0,0.0,0.0,0.0,0.0,0.0,0.0,0.0,0.0,0.0,0.0,0.0,0.0,0.0,0.0,0.0,0.0,0.0,0.0,0.0,0.0,0.0,0.0,0.0,0.0,0.0,0.0,0.0,0.0,0.0,1.6545,1.7136,1.7659,1.8181,1.848,1.8435,1.8046,1.7862,1.7463,0.0,0.0,0.0,0.0,0.0,0.0,0.0,0.0,0.0,0.0,0.0,0.0,0.0,0.0,0.0,0.0,0.0,0.0,0.0,0.0,0.0,0.0,0.0,0.0,0.0,0.0,0.0,0.0,0.0,0.0,0.0,0.0,0.0,0.0,0.0,0.0,0.0,0.0,0.0,0.0,1.396,1.4232,1.4491,0.0,0.0,0.0,0.0,0.0,0.0,1.4811,1.4672,0.0,0.0,0.0,0.0,0.0,0.0,0.0,0.0,0.0,0.0,0.0,0.0,0.0,0.0,0.0,0.0,0.0,0.0,0.0,0.0,0.0,0.0,0.0,0.0,0.0,0.0,0.0,0.0,0.0,0.0,0.0,0.0,0.0,0.0,0.0,0.0,0.0,0.0,0.0,0.0,0.0,0.0,0.0,0.0,0.0,0.0,0.0,0.0,0.0,0.0,0.0,0.0,0.0,0.0,0.0,1.6868,1.7466,1.8014,1.846,1.8596,1.8467,1.818,1.7889,1.7384,0.0,0.0,0.0,0.0,0.0,0.0,0.0,0.0,0.0,0.0,0.0,0.0,0.0,0.0,0.0,0.0,0.0,0.0,0.0,0.0,0.0,0.0,0.0,0.0,0.0,0.0,0.0,0.0,0.0,0.0,0.0,0.0,0.0,0.0,0.0,0.0,0.0,0.0,0.0,0.0,0.0,1.4745,1.5059,1.4733,0.0,0.0,0.0,0.0,1.5119,1.5004,0.0,0.0,0.0,0.0,0.0,0.0,0.0,0.0,0.0,0.0,0.0,0.0,0.0,0.0,0.0,0.0,0.0,0.0,0.0,0.0,0.0,0.0,0.0,0.0,0.0,0.0,0.0,0.0,0.0,0.0,0.0,0.0,0.0,0.0,0.0,0.0,0.0,0.0,0.0,0.0,0.0,0.0,0.0,0.0,0.0,0.0,0.0,0.0,0.0,0.0,0.0,0.0,0.0,0.0,0.0,0.0,1.7123,1.7956,1.853,1.8861,1.9127,1.9154,1.8815,1.8227,1.7696,0.0,0.0,0.0,0.0,0.0,0.0,0.0,0.0,0.0,0.0,0.0,0.0,0.0,0.0,0.0,0.0,0.0,0.0,0.0,0.0,0.0,0.0,0.0,0.0,0.0,0.0,0.0,0.0,0.0,0.0,0.0,0.0,0.0,0.0,0.0,0.0,0.0,0.0,0.0,0.0,0.0,1.4527,1.5034,1.5052,1.5028,0.0,0.0,1.5378,1.5445,1.5427,0.0,0.0,0.0,0.0,0.0,0.0,0.0,0.0,0.0,0.0,0.0,0.0,0.0,0.0,0.0,0.0,0.0,0.0,0.0,0.0,0.0,0.0,0.0,0.0,0.0,0.0,0.0,0.0,0.0,0.0,0.0,0.0,0.0,0.0,0.0,0.0,0.0,0.0,0.0,0.0,0.0,0.0,0.0,0.0,0.0,0.0,0.0,0.0,0.0,0.0,0.0,0.0,0.0,0.0,0.0,1.664,1.7408,1.8299,1.8873,1.9171,1.9307,1.9225,1.8931,1.8343,1.7756,0.0,0.0,0.0,0.0,0.0,0.0,0.0,0.0,0.0,0.0,0.0,0.0,0.0,0.0,0.0,0.0,0.0,0.0,0.0,0.0,0.0,0.0,0.0,0.0,0.0,0.0,0.0,0.0,0.0,0.0,0.0,0.0,0.0,0.0,0.0,0.0,0.0,0.0,0.0,0.0,0.0,0.0,1.5083,1.5234,0.0,0.0,0.0,1.5499,1.5499,0.0,0.0,0.0,0.0,0.0,0.0,0.0,0.0,0.0,0.0,0.0,0.0,0.0,0.0,0.0,0.0,0.0,0.0,0.0,0.0,0.0,0.0,0.0,0.0,0.0,0.0,0.0,0.0,0.0,0.0,0.0,0.0,0.0,0.0,0.0,0.0,0.0,0.0,0.0,0.0,0.0,0.0,0.0,0.0,0.0,0.0,0.0,0.0,0.0,0.0,0.0,0.0,0.0,0.0,0.0,0.0,0.0,1.7595,1.8537,1.9127,1.9366,1.9424,1.9259,1.9038,1.8524,0.0,0.0,0.0,0.0,0.0,0.0,0.0,0.0,0.0,0.0,0.0,0.0,0.0,0.0,0.0,0.0,0.0,0.0,0.0,0.0,0.0,0.0,0.0,0.0,0.0,0.0,0.0,1.3233,0.0,0.0,0.0,0.0,0.0,0.0,0.0,0.0,0.0,0.0,0.0,0.0,0.0,0.0,1.5034,1.5101,1.5384,1.5596,0.0,0.0,1.5596,1.5596,1.5596,1.5487,0.0,0.0,0.0,0.0,0.0,0.0,0.0,0.0,0.0,0.0,0.0,0.0,0.0,0.0,0.0,0.0,0.0,0.0,0.0,0.0,0.0,0.0,0.0,0.0,0.0,0.0,0.0,0.0,0.0,0.0,0.0,0.0,0.0,0.0,0.0,0.0,0.0,0.0,0.0,0.0,0.0,0.0,0.0,0.0,0.0,0.0,0.0,0.0,0.0,0.0,0.0,0.0,0.0,0.0,0.0,1.7588,1.8779,1.9366,1.9424,1.9424,1.9359,1.939,1.9025,1.8571,0.0,0.0,0.0,0.0,0.0,0.0,0.0,0.0,0.0,0.0,0.0,0.0,0.0,0.0,0.0,0.0,0.0,0.0,0.0,0.0,0.0,0.0,0.0,0.0,0.0,0.0,0.0,0.0,0.0,0.0,0.0,0.0,0.0,0.0,0.0,0.0,0.0,0.0,0.0,0.0,0.0,1.4785,1.5077,1.5541,1.5861,0.0,0.0,1.5867,1.5861,1.5861,1.5692,1.5185,0.0,0.0,0.0,0.0,0.0,0.0,0.0,0.0,0.0,0.0,0.0,0.0,0.0,0.0,0.0,0.0,0.0,0.0,0.0,0.0,0.0,0.0,0.0,0.0,0.0,0.0,0.0,0.0,0.0,0.0,0.0,0.0,0.0,0.0,0.0,0.0,0.0,0.0,0.0,0.0,0.0,0.0,0.0,0.0,0.0,0.0,0.0,0.0,0.0,0.0,0.0,0.0,0.0,1.7184,1.7922,1.8893,1.9424,1.9424,1.9424,1.9424,1.9424,1.9078,1.8644,0.0,0.0,0.0,0.0,0.0,0.0,0.0,0.0,0.0,0.0,0.0,0.0,0.0,0.0,0.0,0.0,0.0,0.0,0.0,0.0,0.0,0.0,0.0,0.0,0.0,0.0,0.0,0.0,1.4702,1.4642,1.4262,0.0,0.0,0.0,0.0,0.0,0.0,0.0,0.0,0.0,0.0,1.5052,1.5318,1.5662,0.0,0.0,1.5885,1.5885,1.5885,1.5753,1.5529,1.5167,1.466,0.0,0.0,0.0,0.0,0.0,0.0,0.0,0.0,0.0,0.0,0.0,0.0,0.0,0.0,0.0,0.0,0.0,0.0,0.0,0.0,0.0,0.0,0.0,0.0,0.0,0.0,0.0,0.0,0.0,0.0,0.0,0.0,0.0,0.0,0.0,0.0,0.0,0.0,0.0,0.0,0.0,0.0,0.0,0.0,0.0,0.0,0.0,0.0,0.0,0.0,0.0,0.0,1.7315,1.8089,1.8951,1.9424,1.9424,1.9424,1.9424,1.9417,1.9165,1.8824,0.0,0.0,0.0,0.0,0.0,0.0,0.0,0.0,0.0,0.0,0.0,0.0,0.0,0.0,0.0,0.0,0.0,0.0,0.0,0.0,0.0,0.0,0.0,0.0,0.0,0.0,0.0,0.0,1.4877,1.4739,1.4093,0.0,0.0,0.0,0.0,0.0,0.0,0.0,0.0,0.0,0.0,1.5294,1.5475,1.5722,1.5885,1.5885,1.5885,1.5867,1.5783,1.562,1.5409,1.5149,0.0,0.0,0.0,0.0,0.0,0.0,0.0,0.0,0.0,0.0,0.0,0.0,0.0,0.0,0.0,0.0,0.0,0.0,0.0,0.0,0.0,0.0,0.0,0.0,0.0,0.0,0.0,0.0,0.0,0.0,1.5469,0.0,0.0,0.0,0.0,0.0,0.0,0.0,0.0,0.0,0.0,0.0,0.0,0.0,0.0,0.0,0.0,0.0,0.0,0.0,0.0,0.0,0.0,1.7502,1.8089,1.8951,1.9424,1.9424,1.9424,1.9424,1.9424,1.9417,1.9212,1.8828,0.0,0.0,0.0,0.0,0.0,0.0,0.0,0.0,0.0,0.0,0.0,0.0,0.0,0.0,0.0,0.0,0.0,0.0,0.0,0.0,0.0,0.0,0.0,0.0,0.0,0.0,1.4696,1.4721,1.46,0.0,0.0,0.0,0.0,0.0,0.0,0.0,0.0,0.0,0.0,1.4986,1.5493,1.5505,1.5728,1.5885,1.5885,1.5885,1.5801,1.5553,1.5499,1.5409,0.0,0.0,0.0,0.0,0.0,0.0,0.0,0.0,0.0,0.0,0.0,0.0,0.0,0.0,0.0,0.0,0.0,0.0,0.0,0.0,0.0,0.0,0.0,0.0,0.0,0.0,0.0,1.661,1.6688,0.0,0.0,0.0,0.0,0.0,0.0,0.0,0.0,0.0,0.0,0.0,1.7353,1.7028,0.0,0.0,0.0,0.0,0.0,0.0,0.0,0.0,0.0,0.0,0.0,0.0,1.7801,1.8386,1.9014,1.9424,1.9424,1.9424,1.9424,1.9424,1.9424,1.9038,1.8337,0.0,0.0,0.0,0.0,0.0,0.0,0.0,0.0,0.0,0.0,0.0,0.0,0.0,0.0,0.0,0.0,0.0,0.0,0.0,0.0,0.0,0.0,0.0,0.0,0.0,1.4678,0.0,0.0,0.0,0.0,0.0,0.0,0.0,0.0,0.0,0.0,0.0,1.4708,1.5052,1.533,1.5559,1.5734,1.5831,1.5885,0.0,0.0,0.0,0.0,0.0,0.0,0.0,0.0,0.0,0.0,0.0,0.0,0.0,0.0,1.3332,1.2819,1.2818,1.2874,1.2506,0.0,0.0,0.0,0.0,0.0,0.0,0.0,0.0,0.0,0.0,0.0,0.0,0.0,0.0,1.7504,0.0,1.767,0.0,0.0,0.0,0.0,0.0,0.0,0.0,0.0,1.7807,1.798,1.8346,1.8071,1.7678,0.0,1.7304,1.6867,0.0,0.0,0.0,0.0,0.0,0.0,0.0,0.0,1.8123,1.8644,1.9118,1.9424,1.9424,1.9424,1.9424,1.9424,1.9424,1.9045,1.835,1.7956,1.7341,0.0,0.0,0.0,0.0,0.0,0.0,0.0,0.0,0.0,0.0,0.0,0.0,0.0,0.0,0.0,0.0,0.0,0.0,0.0,0.0,0.0,0.0,0.0,1.4823,0.0,0.0,0.0,0.0,0.0,0.0,0.0,0.0,0.0,1.4304,1.4702,1.5113,1.5457,1.5578,1.5698,1.5867,0.0,0.0,0.0,0.0,0.0,0.0,0.0,1.5246,1.5246,1.524,1.524,1.5246,1.5028,1.4793,1.4612,0.0,0.0,1.3676,1.3598,1.3538,1.3188,1.3049,1.2982,1.2982,1.2982,1.3037,0.0,0.0,0.0,0.0,0.0,0.0,0.0,0.0,1.8733,1.8707,0.0,1.8758,0.0,0.0,0.0,0.0,0.0,1.7447,0.0,0.0,1.8696,1.8878,1.8913,1.8698,1.8365,1.8027,1.7823,1.7633,1.7582,1.7115,0.0,0.0,0.0,0.0,0.0,0.0,1.8407,1.8855,1.9212,1.9424,1.9424,1.9424,1.9424,1.9424,1.9424,1.9225,1.8918,1.8308,1.7909,1.7569,1.6493,0.0,0.0,0.0,0.0,0.0,0.0,0.0,0.0,0.0,0.0,0.0,0.0,0.0,0.0,0.0,0.0,0.0,0.0,0.0,0.0,1.4576,0.0,0.0,0.0,0.0,0.0,0.0,0.0,0.0,0.0,0.0,1.4401,1.5022,1.5511,1.5517,0.0,0.0,0.0,0.0,1.5885,1.5885,1.5879,1.5783,1.5535,1.5499,1.5493,1.5493,0.0,0.0,1.5511,1.53,1.5143,1.5137,1.5324,1.5264,1.4491,1.4165,1.3984,1.3942,1.3761,1.354,1.3574,1.3622,1.361,1.8607,0.0,0.0,0.0,0.0,1.7603,1.7864,1.8367,1.8684,1.8899,1.9012,1.9333,0.0,0.0,0.0,0.0,0.0,0.0,1.9111,1.9678,1.9575,1.9759,2.0163,1.9879,1.9403,1.8946,1.9109,1.8964,1.8518,1.8597,1.8318,1.7627,0.0,0.0,0.0,0.0,1.8781,1.8938,1.9219,1.9424,1.9424,1.9424,1.9424,1.9424,1.9424,1.9225,1.8931,1.8564,1.8116,1.7602,1.7061,0.0,0.0,0.0,0.0,0.0,0.0,0.0,0.0,0.0,0.0,0.0,0.0,0.0,0.0,0.0,0.0,0.0,0.0,0.0,1.5101,1.5059,1.5028,0.0,0.0,0.0,0.0,0.0,0.0,0.0,0.0,0.0,1.5173,1.5517,1.5777,0.0,0.0,1.5885,1.5885,1.5885,1.5885,1.5885,0.0,0.0,0.0,1.5499,1.5499,1.5499,1.5656,1.5777,1.5777,1.571,1.5668,1.5662,1.5728,1.5692,1.5493,1.5221,1.498,1.4805,1.4696,1.4648,1.4654,1.4654,1.4636,2.0007,1.9473,1.8841,1.866,1.8858,1.8627,1.8889,1.9405,1.9591,1.9805,1.9965,2.0153,2.0116,1.9843,1.9617,0.0,0.0,0.0,1.9758,2.0348,2.0178,2.0312,2.0661,2.0494,2.0133,1.9661,1.9734,1.9588,1.9285,1.9361,1.9134,1.8605,0.0,0.0,1.8671,1.8838,1.8985,1.9105,1.9272,1.9424,1.9424,1.9424,1.9424,1.9424,1.9424,1.9279,1.9098,1.8818,1.8437,1.7963,1.7594,1.7027,0.0,0.0,0.0,0.0,0.0,0.0,0.0,0.0,0.0,0.0,0.0,1.389,0.0,0.0,0.0,0.0,1.4714,1.5016,1.5602,1.5421,0.0,0.0,0.0,0.0,0.0,0.0,0.0,1.4618,1.5137,1.5499,1.5505,1.5722,1.5885,1.5885,1.5885,1.5885,1.5885,0.0,1.5885,1.5885,1.5759,1.5656,1.565,1.5656,1.565,1.565,1.5783,1.5885,1.5885,1.5885,1.5885,1.5885,1.5885,1.5885,1.5885,1.5759,1.5572,1.5318,1.5179,1.5113,1.5113,1.5113,1.5113,2.1162,2.1049,1.9993,1.9846,2.0233,2.0179,2.0484,2.1039,2.1039,2.1046,2.1046,2.1116,2.0955,2.0695,2.0134,0.0,1.9824,1.9824,2.009,2.0672,2.0672,2.0661,2.0715,2.0715,2.0555,2.02,2.0,1.986,1.982,1.9566,1.9432,1.9426,1.9145,1.8985,1.8965,1.8958,1.9092,1.9359,1.9424,1.9424,1.9424,1.9424,1.9424,1.9424,1.9424,1.9424,1.9417,1.9078,1.8798,1.8524,1.7943,1.7541,1.7233,0.0,0.0,0.0,0.0,0.0,0.0,0.0,0.0,0.0,0.0,0.0,0.0,0.0,0.0,0.0,1.5378,0.0,1.5873,1.5656,0.0,0.0,0.0,1.5113,1.5113,1.5125,1.5137,1.5137,0.0,0.0,1.5529,0.0,1.5885,1.5885,1.5885,1.5885,1.5885,1.5885,1.5885,1.5885,1.5885,1.5885,1.5861,1.5867,1.5861,1.5861,1.5885,1.5885,1.5885,1.5885,1.5885,1.5885,1.5885,1.5885,1.5885,1.5873,1.5813,1.5572,1.5348,1.5185,1.5209,1.5215,1.5221,2.165,2.1423,2.1212,2.0863,2.0463,2.0218,2.0169,2.0361,2.0609,2.0736,2.0736,2.0982,2.1069,2.1002,2.0873,2.0816,2.0744,2.075,2.0853,2.0982,2.0989,2.1012,2.1009,2.1002,2.0848,2.0575,2.0501,2.0354,2.0134,2.006,2.0027,2.0013,1.9733,1.9479,1.9265,1.9265,1.9299,1.9424,1.9424,1.9424,1.9424,1.9424,1.9424,1.9424,1.9424,1.9424,1.9424,1.9085,1.8891,1.8811,1.8257,1.7789,1.7541,1.6653,0.0,0.0,0.0,0.0,0.0,0.0,0.0,0.0,0.0,1.4984,1.4612,0.0,1.5621,0.0,1.5644,1.5825,1.5885,1.565,0.0,0.0,1.5264,1.5113,1.5113,1.5288,1.5403,1.5403,1.5638,1.5795,1.5795,1.5855,1.5885,1.5885,1.5891,1.5885,1.5885,1.5885,1.5885,1.5885,1.5885,1.5885,1.5885,1.5885,1.5885,1.5885,1.5885,1.5885,1.5885,1.5885,1.5885,1.5885,1.5885,1.5885,1.5885,1.5885,1.5873,1.5813,1.5747,1.5704,1.5704,1.5692,1.5698,2.1891,2.1809,2.1744,2.1585,2.1161,2.0719,2.0545,2.0545,2.0736,2.0792,2.0856,2.1052,2.1102,2.1102,2.1102,2.1102,2.1102,2.1102,2.1102,2.1102,2.1102,2.1102,2.1102,2.1102,2.1022,2.0869,2.0742,2.0661,2.0615,2.0494,2.0494,2.0615,2.0461,2.0301,2.0127,1.9685,1.9424,1.9424,1.9424,1.9424,1.9424,1.9424,1.9424,1.9424,1.9424,1.9424,1.9424,1.9205,1.8998,1.8738,1.8424,1.8036,1.7602,1.7001,1.6533,0.0,0.0,0.0,0.0,0.0,0.0,0.0,0.0,0.0,0.0,0.0,1.5838,1.5674,1.5807,1.5885,1.5885,1.5759,1.5674,1.5674,1.5541,1.5463,1.5457,1.5584,1.5674,1.5674,1.5801,1.5885,1.5891,1.5994,1.606,1.6066,1.6169,1.6157,1.594,1.5885,1.5885,1.5885,1.5885,1.5885,1.5885,1.5885,1.5885,1.5885,1.5885,1.5885,1.5885,1.5885,1.5885,1.5885,1.5885,1.5885,1.5885,1.5885,1.5885,1.5885,1.5885,1.5885,1.5885,1.5885,1.5885,2.2111,2.2044,2.2038,2.2024,2.1944,2.1436,2.1203,2.1162,2.1169,2.1142,2.1102,2.1102,2.1102,2.1102,2.1102,2.1102,2.1102,2.1102,2.1102,2.1102,2.1102,2.1102,2.1102,2.1102,2.1102,2.1096,2.0855,2.0869,2.1102,2.0855,2.0862,2.1096,2.1069,2.1056,2.1009,2.0007,1.9512,1.9651,1.9586,1.9553,1.9537,1.9479,1.9504,1.943,1.9424,1.9424,1.9424,1.9424,1.9132,1.8637,1.8564,1.8303,1.7782,1.7501,1.7199,0.0,1.6567,0.0,0.0,0.0,0.0,0.0,0.0,0.0,0.0,1.566,1.5885,1.5885,1.5885,1.5885,1.5885,1.5885,1.5885,1.5885,1.5885,1.5903,1.5934,1.594,1.5952,1.5988,1.5994,1.5994,1.6024,1.6199,1.6332,1.635,1.6513,1.6495,1.6115,1.6024,1.6036,1.5994,1.5994,1.606,1.6036,1.5982,1.5952,1.5946,1.591,1.5891,1.5885,1.5885,1.5885,1.5885,1.5885,1.5885,1.5885,1.5885,1.5885,1.5885,1.5885,1.5885,1.5885,1.5885,1.5885,2.2786,2.2338,2.2338,2.2205,2.1977,2.1871,2.1683,2.1534,2.1534,2.1336,2.1109,2.1102,2.1102,2.1102,2.1102,2.1102,2.1102,2.1102,2.1102,2.1102,2.1102,2.1102,2.1102,2.1102,2.1102,2.1102,2.1056,2.1056,2.1102,2.1049,2.1056,2.1102,2.0875,2.0762,2.0735,0.0,0.0,0.0,2.0775,2.0548,2.0094,2.0067,1.9846,1.945,1.9424,0.0,1.9424,1.9424,1.9377,1.9205,1.8971,0.0,0.0,0.0,0.0,0.0,0.0,0.0,0.0,0.0,0.0,0.0,1.6348,1.6196,1.5801,1.5816,1.5885,1.5885,1.5885,1.5885,1.5885,1.5885,1.5885,1.5885,1.5891,1.5976,1.6193,1.6217,1.629,1.6519,1.6543,1.6543,1.6531,1.6598,1.6622,1.6622,1.667,1.6658,1.6573,1.6537,1.6537,1.6549,1.6507,1.6531,1.6543,1.635,1.6205,1.6187,1.6012,1.591,1.5903,1.5891,1.5885,1.5885,1.5885,1.5885,1.5885,1.5885,1.5885,1.5885,1.5885,1.5885,1.5885,1.5885,1.5885,2.328,0.0,2.2797,2.2699,0.0,2.2418,2.2251,2.1971,2.183,2.1597,2.1323,2.1176,2.1102,2.1102,2.1102,2.1102,2.1102,2.1102,2.1102,2.1102,2.1102,2.1102,2.1102,2.1102,2.1102,2.1102,2.1102,2.1182,2.1316,2.1329,2.1396,2.1543,2.1396,2.1323,2.1323,2.1176,2.0962,2.0675,2.0675,2.0535,2.0187,2.0173,2.0094,1.9806,0.0,0.0,0.0,0.0,0.0,0.0,0.0,0.0,0.0,0.0,0.0,1.825,1.7976,1.7816,1.7856,1.7675,1.7536,1.7384,1.725,1.6838,1.615,1.6084,1.6051,1.5945,1.5885,1.5946,1.6066,1.6079,1.6139,1.6272,1.629,1.635,1.6471,1.6495,1.6549,1.6664,1.67,1.67,1.67,1.6821,1.6887,1.6905,1.7008,1.708,1.7056,1.6863,1.67,1.67,1.67,1.6694,1.6688,1.6598,1.6483,1.6459,1.626,1.6109,1.6097,1.5976,1.5885,1.5885,1.5885,1.5885,1.5885,1.5885,1.5885,1.5885,1.5885,1.5885,1.5885,1.5885,1.5885,2.3674,2.3407,2.34,2.3253,2.302,2.2966,2.2772,2.2472,0.0,0.0,0.0,2.137,2.1236,2.1189,2.1189,2.1162,2.1109,2.1102,2.1102,2.1102,2.1102,2.1102,2.1102,2.1102,2.1102,2.1102,2.1102,2.1236,2.1534,2.1534,2.159,2.181,2.183,2.183,2.183,2.1837,2.1356,2.0448,2.0488,2.0488,2.0394,2.0388,2.0341,2.0173,2.0173,2.012,1.9887,1.9873,1.9653,1.9185,1.9105,1.8971,1.8738,1.8671,1.8644,1.8644,1.8591,1.8571,1.8564,1.8517,1.8497,1.8497,1.7984,1.7281,1.645,1.6359,1.6305,1.6036,1.6036,1.6121,1.6332,1.6356,1.6447,1.6676,1.67,1.6706,1.6761,1.6773,1.6791,1.6821,1.6863,1.6845,1.6863,1.7038,1.7159,1.7183,1.7316,1.7485,1.743,1.7123,1.6887,1.6887,1.6911,1.6863,1.6839,1.6797,1.6773,1.6761,1.6543,1.6356,1.6284,1.6121,1.5964,1.5891,1.5885,1.5885,1.5885,1.5885,1.5885,1.5885,1.5885,1.5885,1.5885,1.5885,1.5885,2.3975,2.3708,2.3708,2.3681,2.3621,2.3374,2.3086,2.2759,2.2291,2.1964,2.1917,2.1884,2.1724,2.1554,2.1554,2.1349,2.1109,2.1102,2.1102,0.0,2.1102,2.1102,2.1102,2.1102,2.1102,2.1102,2.1102,2.1129,2.1162,2.1176,2.1189,2.1236,2.1229,2.1243,2.1229,2.1229,2.1149,2.0995,2.1476,2.1496,2.1002,2.0982,2.0742,2.0267,2.0241,2.0221,2.0174,2.0174,2.0073,2.0047,1.9813,1.9653,1.9613,1.9372,1.9303,1.929,1.9005,1.8858,1.8865,1.8631,1.8497,1.849,1.8144,1.7599,1.6765,1.6641,1.6641,1.6579,1.6555,1.6598,1.664,1.6646,1.6658,1.6712,1.6706,1.6785,1.7008,1.7038,1.7117,1.7304,1.7376,1.7352,1.7334,1.7382,1.74,1.7424,1.7443,1.7485,1.7473,1.7424,1.7376,1.7376,1.737,1.737,1.7298,1.7165,1.7056,1.7038,1.6821,1.6573,1.6404,1.6284,1.6151,1.594,1.5903,1.5885,1.5885,1.5885,1.5885,1.5885,1.5885,1.5885,1.5885,1.5885,1.5885,2.4757,2.5128,2.4347,2.488,2.6224,2.5837,2.5609,2.5507,2.5219,2.3961,2.2271,2.2058,2.1911,2.1856,2.179,2.1717,2.1577,2.1423,2.1356,2.1336,2.1182,2.1102,2.1102,2.1102,2.1102,2.1102,2.1102,2.1102,2.1102,2.1102,2.1102,2.1102,2.1102,2.1102,2.1102,2.1102,2.1102,2.1116,2.1376,2.1383,2.1116,2.1102,2.0982,2.0715,2.0708,2.0628,2.0474,2.0468,2.0401,2.0234,2.0107,1.9973,2.0027,1.9907,1.9766,1.9613,1.9479,1.9325,1.9172,1.9038,1.8908,1.8724,1.8604,1.8262,1.7696,1.719,1.6862,1.67,1.67,1.6761,1.6893,1.6911,1.6972,1.7111,1.7129,1.7177,1.7274,1.7304,1.7352,1.7461,1.7485,1.7485,1.7485,1.7485,1.7485,1.7485,1.7485,1.7485,1.7485,1.7485,1.7485,1.7485,1.7479,1.7479,1.7479,1.7394,1.731,1.7304,1.7086,1.6887,1.6718,1.6543,1.6272,1.6127,1.6,1.5897,1.5885,1.5885,1.5885,1.5885,1.5885,1.5885,1.5885,1.5885,1.5885,2.5148,2.5912,2.4791,2.5669,2.7841,2.7855,2.7809,2.7721,2.7566,2.6018,2.3648,2.3388,2.3392,2.3322,2.2928,2.2668,2.2572,2.1973,2.1715,2.1695,2.1416,2.1303,2.1309,2.1309,2.1303,2.1309,2.1309,2.1303,2.1309,2.1303,2.1303,2.1309,2.1309,2.1303,2.1309,2.1309,2.1276,2.1216,2.1209,2.1176,2.1109,2.1102,2.1102,2.1102,2.1102,2.1002,2.0788,2.0768,2.0668,2.0386,2.0368,2.0327,2.0327,2.0267,2.0134,1.9927,1.99,1.98,1.9593,1.9566,1.9442,1.9194,1.9135,1.9024,1.8692,1.7982,1.7384,1.7057,1.6962,1.6978,1.7141,1.7183,1.7261,1.7455,1.7485,1.7461,1.7479,1.7485,1.7485,1.7485,1.7485,1.7485,1.7485,1.7485,1.7485,1.7485,1.7485,1.7485,1.7485,1.7485,1.7485,1.7485,1.7485,1.7485,1.7485,1.7479,1.7467,1.7485,1.7316,1.7153,1.7026,1.6712,1.6416,1.6314,1.6121,1.5976,1.591,1.5885,1.5885,1.5885,1.5885,1.5885,1.5885,1.5885,1.5885,2.469,2.4737,2.4656,2.5344,2.678,2.7795,2.8032,2.7781,2.7387,2.707,2.6804,2.7429,2.7476,2.7157,2.5547,2.473,2.4327,2.2724,2.2075,2.2075,2.1917,2.1904,2.2067,2.1949,2.1904,2.1949,2.1936,2.1981,2.185,2.1871,2.1891,2.1904,2.1904,2.1884,2.1891,2.1891,2.1829,2.1581,2.1581,2.1383,2.1122,2.1102,2.1102,2.1102,2.1102,2.1096,2.1049,2.1069,2.1056,2.1015,2.0768,2.0635,2.0615,2.0388,2.0167,2.0133,2.0187,2.0174,2.0087,2.0154,2.0067,2.0093,1.9825,1.9704,1.9583,1.9071,1.8494,1.7948,1.7588,1.7447,1.7436,1.7436,1.7436,1.7467,1.7485,1.7485,1.7485,1.7485,1.7485,1.7485,1.7485,1.7485,1.7485,1.7485,1.7485,1.7485,1.7485,1.7485,1.7485,1.7485,1.7485,1.7485,1.7485,1.7485,1.7485,1.7485,1.7485,1.7479,1.7461,1.7346,1.7165,1.7044,1.6881,1.6429,1.6266,1.6145,1.5958,1.5885,1.5885,1.5885,1.5885,1.5885,1.5885,1.5885,1.5885,2.5145,2.5859,2.4998,2.5312,2.6577,2.8822,2.9599,2.9318,3.0051,3.0325,3.0418,3.0731,2.9573,2.7394,2.6643,2.6244,2.6024,2.5184,2.4772,2.4749,2.465,2.4545,2.4553,2.4545,2.41,2.3275,2.3275,2.2825,2.2116,2.1984,2.1984,2.1984,2.1984,2.1984,2.1984,2.1984,2.1924,2.1817,2.181,2.175,2.1603,2.1283,2.1102,2.1102,2.1102,2.1102,2.1102,2.1102,2.1102,2.1102,2.0995,2.0929,2.0935,2.0815,2.0675,2.0508,2.0327,2.0173,2.0173,2.0173,2.0173,2.0173,2.0113,1.9937,1.9755,1.9395,1.8911,1.8491,1.8027,1.7726,1.7556,1.7485,1.7485,1.7485,1.7485,1.7497,1.7485,1.7491,1.7485,1.7485,1.7485,1.7491,1.7485,1.7485,1.7485,1.7485,1.7485,1.7485,1.7485,1.7485,1.7485,1.7485,1.7485,1.7485,1.7485,1.7485,1.7485,1.7485,1.7485,1.7412,1.7346,1.7171,1.6954,1.6592,1.6423,1.6223,1.5934,1.5897,1.5885,1.5885,1.5885,1.5885,1.5885,1.5885,1.5885,2.5212,2.6078,2.5499,2.5733,2.6717,2.9163,3.0098,3.0044,3.1319,3.1913,3.188,3.2223,3.0888,2.8518,2.8014,2.7864,2.7815,2.7162,2.6805,2.6773,2.6607,2.6503,2.6495,2.6495,2.5986,2.5083,2.4968,2.4181,2.2942,2.2816,2.2617,2.2291,2.2225,2.2225,2.2225,2.2231,2.2184,2.2111,2.2098,2.2064,2.1944,2.157,2.1349,2.1349,2.1349,2.1309,2.1229,2.1229,2.1189,2.1116,2.1102,2.1102,2.1102,2.1102,2.1015,2.0808,2.0595,2.0474,2.0413,2.0474,2.0474,2.0474,2.0474,2.0352,2.0099,1.9788,1.9369,1.9024,1.8516,1.8101,1.787,1.7877,1.7919,1.7919,1.7913,1.7901,1.7847,1.7817,1.7811,1.772,1.7756,1.7666,1.7599,1.7539,1.7485,1.7485,1.7485,1.7485,1.7485,1.7485,1.7485,1.7485,1.7485,1.7485,1.7485,1.7485,1.7485,1.7485,1.7485,1.7485,1.7485,1.7298,1.7117,1.6857,1.6592,1.6332,1.6103,1.6006,1.5885,1.5885,1.5885,1.5885,1.5885,1.5885,1.5885,2.4636,2.4924,2.6218,2.6852,2.6968,2.8357,2.8834,2.9035,3.0053,3.0265,3.0333,3.1436,3.1734,3.1027,3.0061,2.977,2.951,2.8022,2.7322,2.7322,2.7232,2.7116,2.7073,2.7073,2.705,2.6912,2.6912,2.6206,2.492,2.48,2.416,2.3004,2.2977,2.2867,2.2909,2.2834,2.2672,2.2425,2.2398,2.2278,2.2051,2.1977,2.1951,2.1951,2.1937,2.1784,2.1641,2.1601,2.141,2.1129,2.1129,2.1122,2.1116,2.1116,2.1096,2.1069,2.1056,2.1049,2.1036,2.1015,2.1015,2.1042,2.0995,2.1042,2.085,2.0414,1.9979,1.9642,1.9044,1.8674,1.8696,1.8706,1.8807,1.8855,1.8927,1.8801,1.8625,1.8547,1.8499,1.8318,1.8233,1.8106,1.7883,1.763,1.7551,1.7521,1.7497,1.7497,1.7485,1.7485,1.7485,1.7485,1.7485,1.7485,1.7485,1.7485,1.7485,1.7485,1.7485,1.7485,1.7485,1.7443,1.7286,1.7117,1.6857,1.6592,1.632,1.6103,1.594,1.5885,1.5885,1.5885,1.5885,1.5885,1.5885,2.4629,2.4851,2.7353,2.7795,2.7215,2.9439,3.0326,3.0241,3.1588,3.1926,3.1617,3.1913,3.1928,3.1781,3.1114,3.0855,3.0772,3.0165,2.9844,2.9844,2.9835,2.9844,2.9844,2.9844,2.9321,2.8592,2.8452,2.7726,2.6455,2.6321,2.6121,2.5517,2.4663,2.427,2.4067,2.3331,2.2867,2.2719,2.2706,2.2645,2.2613,2.2545,2.2545,2.2525,2.2178,2.1937,2.1837,2.183,2.1777,2.1677,2.1496,2.1396,2.1376,2.1209,2.1102,2.1102,2.1102,2.1102,2.1102,2.1102,2.1102,2.1102,2.1102,2.0982,2.0786,2.0574,2.0326,1.9947,1.9731,1.9557,1.938,1.8969,1.8644,1.8788,1.8837,1.8897,1.8921,1.8933,1.8897,1.8794,1.8662,1.8438,1.8227,1.8058,1.7931,1.7768,1.7732,1.7666,1.7527,1.7485,1.7497,1.7485,1.7485,1.7485,1.7485,1.7485,1.7485,1.7485,1.7485,1.7485,1.7485,1.7485,1.7364,1.7189,1.699,1.6761,1.6453,1.6133,1.5976,1.5928,1.5922,1.5885,1.5885,1.5885,1.5885,2.6064,2.6422,2.8349,2.8637,2.7939,2.9869,3.058,3.0573,3.199,3.2406,3.2088,3.2238,3.2267,3.1992,3.1698,3.1497,3.1387,3.1377,3.1377,3.1377,3.1377,3.1377,3.1377,3.1377,3.0917,3.0121,2.9991,2.9191,2.7982,2.7784,2.7577,2.698,2.6128,2.5667,2.5465,2.427,2.3604,2.3536,2.3126,2.2859,2.2866,2.2866,2.2866,2.2812,2.2472,2.2218,2.2138,2.2124,2.2071,2.1971,2.1797,2.1755,2.1735,2.1503,2.1349,2.1269,2.1256,2.1203,2.1122,2.1102,2.1102,2.1102,2.1102,2.0982,2.0799,2.0672,2.0482,2.0278,2.0131,2.0004,1.9776,1.9177,1.8817,1.9051,1.9072,1.9138,1.9307,1.9344,1.935,1.9307,1.9114,1.8849,1.8601,1.8475,1.8294,1.804,1.801,1.7901,1.7678,1.7612,1.7563,1.7503,1.7485,1.7485,1.7485,1.7485,1.7485,1.7485,1.7485,1.7485,1.7485,1.7485,1.743,1.7255,1.7062,1.6839,1.6555,1.6223,1.6079,1.6024,1.5934,1.5885,1.5885,1.5885,1.5885,2.917,2.9122,2.9298,2.9505,2.9385,2.9815,2.9536,3.0044,3.1251,3.1887,3.1834,3.2615,3.2863,3.2249,3.2148,3.1836,3.1607,3.1543,3.1451,3.1387,3.1377,3.1377,3.1377,3.1377,3.1377,3.1175,3.1313,3.0658,2.933,2.9265,2.8657,2.7519,2.7254,2.7121,2.7113,2.5793,2.5001,2.473,2.3802,2.3065,2.2928,2.2928,2.2866,2.2866,2.2812,2.2672,2.2432,2.2418,2.2311,2.2078,2.2004,2.1984,2.1957,2.1917,2.183,2.1661,2.1621,2.148,2.1196,2.1176,2.1209,2.1209,2.1156,2.1196,2.1049,2.0845,2.0705,2.0558,2.031,1.9998,1.9742,1.954,1.9573,1.9808,1.9694,1.9706,1.9802,1.9869,1.9869,1.9802,1.9603,1.9368,1.9108,1.8885,1.865,1.8426,1.8306,1.8191,1.7931,1.7841,1.7738,1.7581,1.7503,1.7485,1.7485,1.7485,1.7485,1.7485,1.7485,1.7485,1.7485,1.7485,1.7485,1.7346,1.7165,1.6948,1.6803,1.6495,1.6344,1.626,1.6097,1.5964,1.597,1.5982,1.5897,3.1989,3.0373,3.2351,3.2584,3.1845,3.2728,3.3177,3.3168,3.3768,3.3848,3.3767,3.3936,3.3881,3.356,3.312,3.2771,3.2625,3.2349,3.1918,3.1469,3.1387,3.1387,3.1377,3.1377,3.1377,3.1377,3.1377,3.1175,3.0779,3.0714,3.0446,2.9974,2.906,2.8666,2.8534,2.7195,2.6455,2.6254,2.5068,2.4338,2.427,2.34,2.2928,2.2866,2.2859,2.2806,2.2732,2.2726,2.2679,2.2572,2.2392,2.2191,2.2031,2.1984,2.1944,2.1864,2.185,2.1824,2.1737,2.1697,2.169,2.1704,2.1697,2.1603,2.145,2.1352,2.1195,2.0979,2.0672,2.0412,2.0221,1.9839,1.9693,1.9627,1.9597,1.9682,1.9851,2.0026,2.005,1.9935,1.9959,1.9899,1.9664,1.9392,1.912,1.8843,1.868,1.8475,1.8221,1.8022,1.7871,1.7762,1.7636,1.7497,1.7485,1.7485,1.7485,1.7485,1.7485,1.7485,1.7485,1.7485,1.7485,1.743,1.7249,1.7111,1.696,1.6797,1.6634,1.6495,1.6356,1.6247,1.6163,1.6079,1.6,3.3836,3.2419,3.4207,3.4433,3.3683,3.4658,3.5027,3.5027,3.5027,3.5027,3.4882,3.4752,3.4541,3.433,3.3872,3.3496,3.3221,3.2936,3.2478,3.1873,3.1653,3.1543,3.1405,3.1377,3.1377,3.1377,3.1377,3.1377,3.1377,3.1377,3.1377,3.1175,3.052,3.0065,2.9935,2.8657,2.7924,2.7726,2.6522,2.5793,2.5592,2.4926,2.446,2.4399,2.3999,2.3672,2.3665,2.3201,2.2866,2.2839,2.2679,2.2754,2.2979,2.2712,2.2531,2.2821,2.2462,2.2098,2.2004,2.1951,2.1984,2.1984,2.1984,2.1911,2.175,2.1717,2.161,2.1412,2.1263,2.1057,2.0857,2.049,2.0019,1.9701,1.9504,1.9518,1.97,1.9965,2.0116,2.0062,2.0165,2.0171,2.0032,1.9905,1.9603,1.9301,1.9078,1.8813,1.8535,1.8361,1.8143,1.7962,1.7762,1.763,1.7503,1.7485,1.7485,1.7485,1.7485,1.7485,1.7485,1.7485,1.7485,1.7467,1.7346,1.7334,1.7201,1.7008,1.6833,1.6718,1.6634,1.6513,1.6398,1.6205,1.6109,3.5037,3.5091,3.5109,3.5083,3.5011,3.5092,3.5183,3.5137,3.5146,3.5174,3.5146,3.5164,3.4935,3.4614,3.4532,3.4147,3.3486,3.3349,3.312,3.267,3.2304,3.1955,3.1625,3.1598,3.1598,3.1552,3.1533,3.1515,3.1588,3.1506,3.1414,3.1469,3.135,3.1377,3.0982,2.9991,2.9404,2.9191,2.799,2.7254,2.7187,2.698,2.6855,2.6781,2.5726,2.5001,2.4677,2.3604,2.2866,2.2866,2.2901,2.3338,2.4242,2.3665,2.3553,2.4118,2.317,2.2585,2.2191,2.2131,2.2118,2.2131,2.2131,2.2017,2.2024,2.2004,2.1971,2.1897,2.1897,2.1799,2.1483,2.1137,2.0688,2.0039,1.9484,1.9312,1.9422,1.9694,1.9887,2.0098,2.0219,2.0261,2.0219,2.0195,1.9941,1.9676,1.947,1.9157,1.8891,1.8638,1.8414,1.8197,1.7974,1.7762,1.7636,1.7491,1.7491,1.7485,1.7485,1.7485,1.7485,1.7485,1.7485,1.7467,1.7461,1.7467,1.7412,1.7207,1.7111,1.7062,1.6942,1.6785,1.6622,1.6459,1.632,3.5898,3.5907,3.5889,3.5898,3.5898,3.5889,3.588,3.5889,3.588,3.5834,3.588,3.5898,3.5788,3.5696,3.5394,3.5164,3.4825,3.4339,3.3881,3.3477,3.3083,3.268,3.2349,3.2267,3.2249,3.223,3.2194,3.2276,3.2249,3.1964,3.1845,3.1818,3.157,3.1405,3.1304,3.1,3.0843,3.0649,2.9461,2.8732,2.8526,2.7718,2.7113,2.7047,2.6781,2.5994,2.5008,2.3672,2.2866,2.2866,2.2866,2.2996,2.3604,2.4006,2.4092,2.3751,2.4068,2.3784,2.2971,2.2741,2.2754,2.27,2.2775,2.2539,2.2318,2.2305,2.2198,2.2058,2.1984,2.2004,2.1793,2.1529,2.1023,2.0372,1.964,1.9215,1.9229,1.9469,1.9609,1.9688,1.9875,2.0044,2.0171,2.0116,2.002,1.9941,1.9784,1.9524,1.9223,1.8915,1.8662,1.845,1.8221,1.7962,1.775,1.7587,1.7497,1.7485,1.7485,1.7485,1.7485,1.7485,1.7485,1.7479,1.7473,1.7473,1.7479,1.7382,1.737,1.7322,1.7183,1.6996,1.6917,1.6785,1.6646,3.6109,3.5962,3.5962,3.5861,3.5751,3.5889,3.5962,3.599,3.6146,3.6201,3.6201,3.6201,3.6201,3.6173,3.5962,3.576,3.5559,3.5137,3.4605,3.4046,3.3642,3.3138,3.2716,3.2597,3.2597,3.2597,3.2606,3.2588,3.2542,3.2359,3.2267,3.2221,3.201,3.1808,3.1662,3.1634,3.1543,3.1285,3.0593,3.0186,3.0056,2.9387,2.9043,2.878,2.8378,2.7195,2.5278,2.4203,2.3529,2.3065,2.2928,2.3133,2.3741,2.387,2.427,2.446,2.494,2.4798,2.4791,2.4655,2.4392,2.3931,2.3802,2.3311,2.2842,2.2605,2.2498,2.2412,2.2352,2.2284,2.2064,2.1723,2.1327,2.0848,2.0117,1.9557,1.9324,1.9277,1.9362,1.9464,1.9609,1.9808,2.0068,1.9965,1.9983,2.0002,1.9839,1.9706,1.9579,1.9229,1.8927,1.8746,1.8529,1.8281,1.8028,1.7835,1.7672,1.7636,1.7485,1.7485,1.7485,1.7485,1.7485,1.7485,1.7485,1.7485,1.7485,1.7485,1.7455,1.7382,1.7298,1.7249,1.7171,1.705,1.6923,3.5925,3.555,3.555,3.5348,3.5155,3.5458,3.566,3.5705,3.6045,3.6201,3.6201,3.6201,3.6201,3.6201,3.6146,3.6008,3.5696,3.5559,3.5036,3.4468,3.3982,3.3514,3.2927,3.2881,3.2863,3.2845,3.2744,3.279,3.2817,3.2744,3.2661,3.2625,3.2588,3.2386,3.2129,3.2056,3.1854,3.1662,3.1513,3.1383,3.1356,3.1172,3.0997,3.0784,2.9617,2.8073,2.6344,2.5338,2.473,2.3461,2.3133,2.3468,2.4338,2.3536,2.406,2.5592,2.5338,2.5405,2.6254,2.5987,2.6121,2.5068,2.5008,2.4738,2.3896,2.3542,2.3263,2.329,2.2989,2.2642,2.2336,2.1852,2.1604,2.1411,2.0822,2.0255,1.9698,1.9354,1.9199,1.9386,1.9422,1.9555,1.9742,1.9845,1.9857,1.9959,1.9851,1.982,1.976,1.9567,1.9307,1.9102,1.8873,1.8619,1.836,1.81,1.7943,1.7817,1.7569,1.7485,1.7485,1.7485,1.7485,1.7485,1.7485,1.7485,1.7485,1.7485,1.7485,1.7467,1.7394,1.7424,1.7436,1.7274,1.7135,3.5513,3.5155,3.5155,3.5109,3.51,3.5449,3.5605,3.5641,3.6026,3.6182,3.6201,3.6201,3.6201,3.6201,3.6201,3.6155,3.6008,3.5733,3.5174,3.4468,3.4339,3.4018,3.3606,3.3505,3.3523,3.3496,3.3532,3.3532,3.3477,3.3211,3.3092,3.3055,3.2826,3.256,3.2496,3.2469,3.2441,3.234,3.2313,3.2267,3.2184,3.1992,3.1863,3.1678,3.028,2.9142,2.8337,2.7262,2.6514,2.5786,2.4324,2.3468,2.3665,2.4203,2.4406,2.4331,2.4865,2.4738,2.4263,2.5128,2.5405,2.5203,2.5868,2.6514,2.6254,2.5061,2.4602,2.4338,2.3597,2.3058,2.2565,2.2532,2.2222,2.1839,2.1365,2.0963,2.0496,1.9862,1.9445,1.9235,1.9205,1.9259,1.9525,1.9555,1.9639,1.9814,1.9869,1.9875,1.9845,1.9802,1.9633,1.9398,1.9163,1.8915,1.8716,1.8408,1.8118,1.7937,1.7696,1.7556,1.7491,1.7485,1.7485,1.7485,1.7485,1.7485,1.7485,1.7485,1.7485,1.7485,1.7485,1.7485,1.7461,1.7376,1.7346,3.51,3.4743,3.4743,3.4633,3.4541,3.4871,3.5164,3.5394,3.576,3.6045,3.6182,3.6201,3.6201,3.6201,3.6201,3.6201,3.6109,3.5806,3.5412,3.4944,3.4642,3.4284,3.4092,3.3899,3.3817,3.3817,3.3798,3.3817,3.3743,3.3624,3.3496,3.3496,3.3248,3.3092,3.2918,3.289,3.2762,3.2597,3.2597,3.2597,3.2542,3.2404,3.2157,3.1899,3.0882,3.0056,2.9199,2.8592,2.7784,2.6914,2.5719,2.4527,2.4074,2.4542,2.4542,2.427,2.4474,2.5135,2.5068,2.5457,2.5734,2.5075,2.6329,2.6455,2.6522,2.5868,2.6061,2.586,2.5323,2.452,2.3522,2.3249,2.2983,2.2153,2.157,2.1226,2.0983,2.0239,1.9555,1.9409,1.936,1.9259,1.9301,1.9338,1.9416,1.9591,1.9658,1.9682,1.9881,1.9839,1.982,1.9633,1.9416,1.9205,1.9042,1.8728,1.8287,1.8052,1.7805,1.7618,1.7515,1.7497,1.7485,1.7485,1.7485,1.7485,1.7485,1.7485,1.7485,1.7485,1.7485,1.7485,1.7473,1.743,1.7424,3.4688,3.4312,3.4312,3.4119,3.3899,3.4266,3.4633,3.4972,3.543,3.5815,3.6091,3.6164,3.6201,3.6201,3.6201,3.6201,3.6118,3.5925,3.566,3.543,3.4844,3.4513,3.4303,3.4009,3.3817,3.3817,3.3817,3.3817,3.3817,3.3817,3.3734,3.3789,3.3798,3.356,3.3358,3.3303,3.3193,3.2955,3.2918,3.2909,3.2845,3.2753,3.2487,3.1935,3.1605,3.0869,3.0091,2.9591,2.9125,2.785,2.7718,2.6988,2.6002,2.5338,2.533,2.533,2.5465,2.586,2.6455,2.6788,2.6529,2.5405,2.6321,2.6722,2.6337,2.6596,2.6988,2.7179,2.6914,2.618,2.5001,2.4263,2.3584,2.2702,2.1822,2.1308,2.1176,2.0527,1.9978,1.9591,1.9506,1.9427,1.9312,1.9281,1.9348,1.9415,1.9422,1.9519,1.9712,1.9869,1.9839,1.9839,1.9633,1.9428,1.9265,1.8903,1.8487,1.8275,1.7998,1.7805,1.7648,1.7624,1.7618,1.7503,1.7485,1.7485,1.7485,1.7485,1.7485,1.7485,1.7485,1.7485,1.7485,1.7485,1.7485,3.4275,3.3908,3.3917,3.3872,3.3881,3.4229,3.444,3.4623,3.5293,3.5641,3.576,3.6054,3.6201,3.6201,3.6201,3.6201,3.6173,3.6063,3.5916,3.5632,3.5109,3.4761,3.4431,3.4018,3.3835,3.3817,3.3817,3.3817,3.3817,3.3817,3.3817,3.3817,3.3817,3.3734,3.3707,3.3707,3.3633,3.3477,3.3468,3.3486,3.3431,3.3175,3.2762,3.2184,3.1983,3.1567,3.1229,3.1018,3.0908,3.0705,3.0714,2.9878,2.8675,2.7533,2.6969,2.6588,2.6522,2.6714,2.7047,2.7055,2.698,2.6855,2.7121,2.785,2.7932,2.7792,2.8114,2.8386,2.7916,2.698,2.6306,2.545,2.4392,2.344,2.2359,2.139,2.1264,2.0822,2.0365,1.9935,1.9754,1.9506,1.9384,1.9257,1.9233,1.93,1.9372,1.9362,1.9483,1.9688,1.9833,1.9851,1.9851,1.9652,1.953,1.9042,1.8656,1.8541,1.8318,1.8088,1.7943,1.7853,1.7774,1.7642,1.7527,1.7485,1.7485,1.7485,1.7485,1.7485,1.7485,1.7485,1.7485,1.7485,1.7485,3.3991,3.3817,3.3817,3.3817,3.3853,3.4009,3.422,3.4477,3.5045,3.543,3.5687,3.6017,3.6201,3.6201,3.6201,3.6201,3.6201,3.6201,3.6091,3.5825,3.5329,3.4954,3.4623,3.411,3.3872,3.3817,3.3817,3.3817,3.3817,3.3817,3.3817,3.3817,3.3817,3.3817,3.3817,3.3798,3.3817,3.3817,3.3817,3.3817,3.3789,3.3441,3.2964,3.2716,3.2404,3.2203,3.2084,3.201,3.201,3.1954,3.2019,3.1672,3.0976,3.0186,2.9035,2.7624,2.7278,2.7195,2.7121,2.7121,2.7047,2.7179,2.7718,2.846,2.9191,2.9321,2.9518,2.9926,2.9982,2.8846,2.7842,2.6996,2.6113,2.4709,2.3229,2.2359,2.1897,2.1214,2.0759,2.0373,2.002,1.9742,1.9481,1.9277,1.9185,1.9191,1.9263,1.9312,1.9289,1.9464,1.9676,1.9748,1.9748,1.9639,1.9536,1.9187,1.8837,1.8722,1.8619,1.839,1.8179,1.8064,1.7913,1.7762,1.7654,1.7539,1.7485,1.7485,1.7485,1.7485,1.7485,1.7485,1.7485,1.7485,1.7485,3.3817,3.3817,3.3817,3.3817,3.3817,3.3817,3.3991,3.433,3.4724,3.5119,3.5522,3.5889,3.6118,3.6191,3.6201,3.6201,3.6201,3.6201,3.6182,3.6017,3.5394,3.5018,3.4807,3.4293,3.3817,3.3817,3.3817,3.3817,3.3817,3.3817,3.3817,3.3817,3.3817,3.3817,3.3817,3.3817,3.3817,3.3817,3.3817,3.3817,3.3734,3.3523,3.3285,3.3221,3.289,3.268,3.2514,3.2487,3.2496,3.2505,3.2533,3.256,3.2588,3.2597,3.1185,2.8785,2.8262,2.8162,2.8105,2.7848,2.7906,2.7874,2.8328,2.8863,2.9591,3.0269,3.1212,3.1478,3.1386,3.0876,2.9625,2.8973,2.7849,2.6247,2.4641,2.3434,2.2846,2.2104,2.1352,2.0903,2.0368,1.9978,1.9717,1.9386,1.9235,1.9142,1.9209,1.9203,1.9187,1.9324,1.9428,1.9543,1.9573,1.9519,1.9416,1.932,1.9036,1.8867,1.8801,1.8668,1.8444,1.8245,1.8106,1.7986,1.775,1.7642,1.7563,1.7491,1.7485,1.7485,1.7485,1.7485,1.7485,1.7485,1.7485,3.3817,3.3817,3.3817,3.3817,3.3817,3.3817,3.3835,3.3945,3.4339,3.4706,3.5174,3.5531,3.5907,3.6136,3.6201,3.6201,3.6201,3.6201,3.6201,3.6081,3.5458,3.5073,3.4908,3.4192,3.389,3.3826,3.3817,3.3817,3.3817,3.3817,3.3817,3.3817,3.3817,3.3817,3.3817,3.3817,3.3817,3.3817,3.3817,3.3817,3.3807,3.3743,3.3541,3.3321,3.3166,3.3028,3.279,3.2762,3.2725,3.2689,3.2652,3.2615,3.2597,3.2597,3.2512,3.2059,3.1938,3.1754,3.106,3.0151,2.9442,2.9057,2.8535,2.8345,2.9387,3.0611,3.1515,3.1918,3.1909,3.1787,3.1103,3.0143,2.8835,2.7472,2.6055,2.4759,2.3877,2.2928,2.2173,2.1577,2.1102,2.0398,1.9954,1.9675,1.935,1.9193,1.9136,1.9072,1.9154,1.9233,1.9288,1.935,1.9483,1.9446,1.938,1.9283,1.9181,1.8994,1.8939,1.8891,1.8704,1.8505,1.8414,1.8263,1.8004,1.7787,1.7714,1.7636,1.7533,1.7485,1.7485,1.7485,1.7485,1.7485,1.7485,3.3817,3.3817,3.3817,3.3817,3.3817,3.3817,3.3817,3.389,3.4229,3.4642,3.5045,3.5449,3.5843,3.6146,3.6201,3.6201,3.6201,3.6201,3.6201,3.6118,3.5632,3.5238,3.4944,3.444,3.4082,3.3862,3.3817,3.3817,3.3817,3.3817,3.3817,3.3817,3.3817,3.3817,3.3817,3.3817,3.3817,3.3817,3.3817,3.3817,3.3817,3.3798,3.3734,3.356,3.3551,3.3422,3.3312,3.3285,3.3285,3.3285,3.3285,3.3285,3.3285,3.3294,3.3285,3.3285,3.3216,3.2914,3.2326,3.1742,3.1314,3.1105,3.0364,3.0302,3.0609,3.1018,3.157,3.1955,3.201,3.2102,3.2285,3.1639,3.0467,2.9119,2.7624,2.6274,2.5081,2.3877,2.3044,2.2382,2.1714,2.1015,2.0294,1.9778,1.9513,1.9397,1.9175,1.9096,1.9084,1.916,1.9209,1.9257,1.9384,1.9475,1.9338,1.9259,1.9229,1.9096,1.903,1.9039,1.8985,1.8788,1.8668,1.8517,1.8287,1.8088,1.7925,1.7714,1.7551,1.7509,1.7485,1.7485,1.7485,1.7485,1.7485,3.3817,3.3817,3.3817,3.3817,3.3817,3.3817,3.3817,3.3853,3.411,3.4541,3.5064,3.554,3.5953,3.6146,3.6201,3.6201,3.6201,3.6201,3.6201,3.6072,3.5815,3.5467,3.5119,3.4688,3.4229,3.3954,3.3853,3.3826,3.3817,3.3817,3.3817,3.3817,3.3817,3.3817,3.3817,3.3817,3.3817,3.3817,3.3817,3.3817,3.3817,3.3817,3.3817,3.3798,3.3817,3.3817,3.3817,3.378,3.3771,3.3762,3.3734,3.3697,3.3707,3.3688,3.3697,3.3697,3.3688,3.3496,3.3065,3.271,3.2716,3.2533,3.2359,3.1654,3.1504,3.1543,3.1616,3.2001,3.2166,3.2331,3.2524,3.2585,3.1778,3.055,2.9354,2.7979,2.6643,2.5334,2.4022,2.3099,2.2382,2.1452,2.0761,2.0075,1.9682,1.9548,1.932,1.9163,1.9102,1.9072,1.9154,1.9197,1.9245,1.9348,1.9312,1.9199,1.9187,1.9169,1.9102,1.9118,1.9057,1.9003,1.8843,1.8686,1.8535,1.8426,1.8287,1.7919,1.764,1.7605,1.7605,1.7509,1.7485,1.7485,1.7485,3.3817,3.3817,3.3817,3.3817,3.3817,3.3817,3.3817,3.3817,3.3853,3.4339,3.5082,3.5751,3.6091,3.6201,3.6201,3.6201,3.6201,3.6201,3.6201,3.6081,3.5834,3.5641,3.532,3.4899,3.4431,3.4257,3.4064,3.3899,3.3817,3.3817,3.3817,3.3817,3.3817,3.3817,3.3817,3.3817,3.3817,3.3817,3.3817,3.3817,3.3817,3.3817,3.3817,3.3817,3.3817,3.3817,3.3817,3.3817,3.3817,3.3817,3.3817,3.3817,3.3817,3.3817,3.3817,3.3817,3.3817,3.3697,3.3514,3.3276,3.2982,3.2735,3.2551,3.2386,3.201,3.1955,3.2001,3.2056,3.2249,3.2478,3.2698,3.2795,3.2363,3.1484,3.0403,2.9335,2.7968,2.6724,2.5376,2.4015,2.3031,2.217,2.1258,2.0576,2.0032,1.9833,1.9512,1.9283,1.912,1.9136,1.9136,1.9154,1.9148,1.9179,1.9172,1.9096,1.912,1.9126,1.9148,1.9136,1.9118,1.9006,1.8957,1.8915,1.8782,1.8716,1.8601,1.8257,1.7974,1.7829,1.772,1.7612,1.7515,1.7485,1.7485,3.3817,3.3817,3.3817,3.3817,3.3817,3.3817,3.3817,3.3817,3.3826,3.4275,3.4992,3.5586,3.5981,3.6146,3.6201,3.6201,3.6201,3.6201,3.6201,3.6173,3.6036,3.5843,3.5568,3.5274,3.4926,3.4504,3.4229,3.4009,3.3826,3.3826,3.3817,3.3817,3.3817,3.3817,3.3817,3.3817,3.3817,3.3817,3.3817,3.3817,3.3817,3.3817,3.3817,3.3817,3.3817,3.3817,3.3817,3.3817,3.3817,3.3817,3.3817,3.3817,3.3817,3.3817,3.3817,3.3817,3.3817,3.3817,3.3817,3.3642,3.3404,3.3092,3.2964,3.2808,3.2414,3.2194,3.2203,3.2258,3.2285,3.2432,3.2955,3.3033,3.277,3.1989,3.1165,3.0233,2.9108,2.7681,2.6337,2.4753,2.3824,2.2963,2.1984,2.1045,2.0502,2.0044,1.9772,1.9463,1.9294,1.9142,1.9136,1.9136,1.9136,1.9136,1.9136,1.9136,1.9136,1.9136,1.9136,1.9136,1.9136,1.913,1.903,1.9024,1.9012,1.8921,1.8776,1.8571,1.833,1.8076,1.7865,1.7696,1.7599,1.7509,1.7485,3.3817,3.3817,3.3817,3.3817,3.3817,3.3817,3.3817,3.3817,3.3817,3.4275,3.4982,3.544,3.5843,3.6118,3.6201,3.6201,3.6201,3.6201,3.6201,3.6191,3.6146,3.6026,3.5843,3.5595,3.5274,3.4788,3.4431,3.422,3.4037,3.3881,3.3826,3.3817,3.3817,3.3817,3.3817,3.3817,3.3817,3.3817,3.3817,3.3817,3.3817,3.3817,3.3817,3.3817,3.3817,3.3817,3.3817,3.3817,3.3817,3.3817,3.3817,3.3817,3.3817,3.3817,3.3817,3.3817,3.3817,3.3817,3.3817,3.378,3.3688,3.3431,3.3395,3.3175,3.2835,3.2514,3.2551,3.2285,3.2239,3.2386,3.2955,3.2805,3.2938,3.233,3.1374,3.0418,2.9404,2.8126,2.6794,2.5429,2.4507,2.3454,2.2291,2.1302,2.0723,2.0208,1.973,1.953,1.939,1.9245,1.9136,1.9136,1.9136,1.9136,1.9136,1.9136,1.9136,1.9136,1.9136,1.9136,1.9136,1.9136,1.9136,1.9054,1.9054,1.9066,1.8969,1.8794,1.8529,1.8245,1.8022,1.7799,1.7755,1.7605,1.7509,3.3817,3.3817,3.3817,3.3817,3.3817,3.3817,3.3817,3.3817,3.3826,3.4266,3.4946,3.5421,3.5815,3.6118,3.6201,3.6201,3.6201,3.6201,3.6201,3.6201,3.6201,3.6173,3.6054,3.5843,3.5614,3.5412,3.4972,3.4568,3.433,3.4055,3.3908,3.3817,3.3817,3.3817,3.3817,3.3817,3.3817,3.3817,3.3817,3.3817,3.3817,3.3817,3.3817,3.3817,3.3817,3.3817,3.3817,3.3817,3.3817,3.3817,3.3817,3.3817,3.3817,3.3817,3.3817,3.3817,3.3817,3.3817,3.3817,3.3817,3.3771,3.3716,3.3661,3.3532,3.3294,3.3092,3.279,3.2404,3.2294,3.2276,3.2368,3.2395,3.2677,3.2517,3.1545,3.0917,2.9882,2.8354,2.6985,2.6156,2.5025,2.3804,2.2572,2.1527,2.0865,2.0293,1.9845,1.9531,1.9487,1.9366,1.9245,1.9136,1.9136,1.9136,1.9136,1.9136,1.9136,1.9136,1.9136,1.9136,1.9136,1.9136,1.9136,1.9136,1.9136,1.9136,1.9136,1.9042,1.8788,1.8529,1.8143,1.7907,1.7864,1.7774,1.7636,3.3817,3.3817,3.3817,3.3817,3.3817,3.3817,3.3817,3.3817,3.3872,3.4266,3.4926,3.5192,3.5623,3.6017,3.6201,3.6201,3.6201,3.6201,3.6201,3.6201,3.6201,3.6201,3.6136,3.6045,3.587,3.5623,3.5238,3.4816,3.4385,3.4211,3.4009,3.389,3.3817,3.3817,3.3817,3.3817,3.3817,3.3817,3.3817,3.3817,3.3817,3.3817,3.3817,3.3817,3.3817,3.3817,3.3817,3.3817,3.3817,3.3817,3.3817,3.3817,3.3817,3.3817,3.3817,3.3817,3.3817,3.3817,3.3817,3.3817,3.3817,3.3817,3.3798,3.3743,3.3615,3.334,3.2927,3.2496,3.2322,3.2239,3.212,3.212,3.2301,3.246,3.1921,3.1681,3.0669,2.8638,2.7138,2.6736,2.5879,2.4018,2.2579,2.1647,2.0989,2.0571,2.0128,1.9754,1.9585,1.9512,1.9314,1.9203,1.9136,1.9136,1.9136,1.9136,1.9136,1.9136,1.9136,1.9136,1.9136,1.9136,1.9136,1.9136,1.9136,1.9136,1.9136,1.9066,1.9048,1.8825,1.8456,1.8197,1.8118,1.804,1.7864,3.3817,3.3817,3.3817,3.3817,3.3817,3.3817,3.3817,3.3817,3.3835,3.4202,3.4733,3.4963,3.5375,3.588,3.6136,3.6201,3.6201,3.6201,3.6201,3.6201,3.6201,3.6201,3.6201,3.6191,3.6054,3.5834,3.5623,3.5284,3.488,3.4541,3.4183,3.3899,3.3817,3.3817,3.3817,3.3817,3.3817,3.3817,3.3817,3.3817,3.3817,3.3817,3.3817,3.3817,3.3817,3.3817,3.3817,3.3817,3.3817,3.3817,3.3817,3.3817,3.3817,3.3817,3.3817,3.3817,3.3817,3.3817,3.3817,3.3817,3.3817,3.3817,3.3817,3.3817,3.3798,3.3587,3.3257,3.2863,3.2432,3.2175,3.2047,3.2029,3.1917,3.2086,3.1698,3.1387,3.0814,2.8794,2.7377,2.6989,2.6224,2.4393,2.2701,2.1899,2.112,2.0857,2.0503,2.014,1.9778,1.9621,1.9483,1.9314,1.9138,1.9096,1.909,1.9136,1.9136,1.9136,1.9136,1.9136,1.9136,1.9136,1.9136,1.9136,1.9136,1.9136,1.9136,1.9066,1.9054,1.8994,1.8813,1.8601,1.8463,1.8251,1.8088,3.3817,3.3817,3.3817,3.3817,3.3817,3.3817,3.3817,3.3817,3.3817,3.4046,3.444,3.4834,3.5238,3.565,3.6017,3.6173,3.6201,3.6201,3.6201,3.6201,3.6201,3.6201,3.6201,3.6191,3.6146,3.6054,3.588,3.566,3.5485,3.4761,3.4202,3.3945,3.3853,3.3826,3.3817,3.3817,3.3817,3.3817,3.3817,3.3817,3.3817,3.3817,3.3817,3.3817,3.3817,3.3817,3.3817,3.3817,3.3817,3.3817,3.3817,3.3817,3.3817,3.3817,3.3817,3.3817,3.3817,3.3817,3.3817,3.3817,3.3817,3.3817,3.3817,3.3817,3.3798,3.3725,3.3477,3.312,3.2707,3.2359,3.2102,3.1845,3.1616,3.1342,3.0818,3.0589,3.0326,2.9097,2.7733,2.6894,2.6137,2.4672,2.2994,2.1976,2.1339,2.0849,2.0593,2.0565,2.0208,1.982,1.9682,1.9525,1.9344,1.9157,1.9126,1.9132,1.9136,1.9136,1.9136,1.9136,1.9136,1.9136,1.9136,1.9136,1.9136,1.9136,1.9136,1.9136,1.9072,1.9,1.8939,1.8885,1.871,1.8481,1.8263,3.3817,3.3817,3.3817,3.3817,3.3817,3.3817,3.3817,3.3817,3.3817,3.4027,3.4403,3.4523,3.4972,3.5605,3.5751,3.5962,3.6118,3.6201,3.6201,3.6201,3.6201,3.6201,3.6201,3.6201,3.6201,3.6164,3.6054,3.5861,3.5495,3.4825,3.444,3.4248,3.3972,3.3881,3.3826,3.3817,3.3817,3.3817,3.3817,3.3817,3.3817,3.3817,3.3817,3.3817,3.3817,3.3817,3.3817,3.3817,3.3817,3.3817,3.3817,3.3817,3.3817,3.3817,3.3817,3.3817,3.3817,3.3817,3.3817,3.3826,3.3872,3.3917,3.389,3.3817,3.3817,3.3789,3.3651,3.3312,3.2863,3.245,3.2084,3.1799,3.1561,3.1228,3.0823,3.0579,3.0377,2.9716,2.8317,2.6881,2.6127,2.4396,2.2754,2.2205,2.1641,2.0998,2.0647,2.0599,2.0529,2.0128,1.9911,1.976,1.9573,1.9386,1.9265,1.9253,1.9145,1.9136,1.9142,1.9142,1.9136,1.9136,1.9136,1.9136,1.9136,1.9136,1.9136,1.9136,1.9136,1.9136,1.9024,1.9012,1.8945,1.8716,1.8529,3.3817,3.3817,3.3817,3.3817,3.3817,3.3817,3.3817,3.3817,3.3817,3.3972,3.4174,3.4339,3.4761,3.532,3.5559,3.5834,3.6182,3.6201,3.6201,3.6201,3.6201,3.6201,3.6201,3.6201,3.6201,3.6201,3.6173,3.6054,3.5696,3.5256,3.4834,3.4367,3.411,3.3963,3.3862,3.3817,3.3817,3.3817,3.3817,3.3817,3.3817,3.3817,3.3817,3.3817,3.3817,3.3835,3.3835,3.3844,3.3835,3.3826,3.3817,3.3817,3.3817,3.3817,3.3817,3.3844,3.4009,3.4055,3.4119,3.4284,3.4275,3.4284,3.4257,3.4211,3.4037,3.3927,3.3743,3.3468,3.2945,3.2469,3.212,3.179,3.1579,3.1387,3.1119,3.0858,3.0504,3.0151,2.883,2.7177,2.5555,2.3818,2.2754,2.2307,2.1773,2.108,2.0665,2.0653,2.0545,2.0327,2.0158,2.0038,1.9833,1.9633,1.9525,1.9422,1.9326,1.9223,1.9172,1.9166,1.9148,1.9136,1.9136,1.9136,1.9136,1.9136,1.9136,1.9136,1.9136,1.9136,1.9136,1.9054,1.9024,1.8945,1.8788,3.3817,3.3817,3.3817,3.3817,3.3817,3.3817,3.3817,3.3817,3.3817,3.3826,3.3908,3.4192,3.455,3.4981,3.532,3.5705,3.6008,3.6146,3.6201,3.6201,3.6201,3.6201,3.6201,3.6201,3.6201,3.6201,3.6191,3.6155,3.6072,3.566,3.5082,3.4513,3.4458,3.4348,3.4147,3.4119,3.4147,3.4156,3.4092,3.4046,3.3862,3.3817,3.3817,3.3826,3.3862,3.3908,3.3908,3.3899,3.3899,3.3927,3.3945,3.4,3.4018,3.4037,3.4018,3.4073,3.433,3.4422,3.4523,3.4678,3.4834,3.4917,3.5009,3.4743,3.4458,3.4147,3.3945,3.3578,3.3074,3.267,3.2313,3.1781,3.1451,3.1377,3.1156,3.086,3.0476,2.9986,2.8968,2.7282,2.5458,2.3809,2.2951,2.2497,2.1424,2.0871,2.0665,2.0665,2.0611,2.046,2.0382,2.0279,2.0086,1.9905,1.9833,1.9718,1.9567,1.9434,1.9283,1.9257,1.9281,1.9221,1.9136,1.9136,1.9136,1.9136,1.9136,1.9136,1.9136,1.9136,1.9136,1.9136,1.9054,1.9036,1.8982,3.3817,3.3817,3.3817,3.3817,3.3817,3.3817,3.3817,3.3817,3.3817,3.3817,3.3835,3.3945,3.4192,3.4623,3.4999,3.5394,3.576,3.6036,3.6173,3.6201,3.6201,3.6201,3.6201,3.6201,3.6201,3.6201,3.6201,3.6191,3.6127,3.5825,3.5559,3.5293,3.5064,3.4761,3.4633,3.4623,3.4614,3.4578,3.4578,3.4321,3.3991,3.3862,3.3817,3.3936,3.4037,3.4238,3.4339,3.4541,3.4651,3.4743,3.4743,3.4743,3.4743,3.4724,3.4724,3.4761,3.4788,3.4862,3.4935,3.5045,3.5146,3.5109,3.5082,3.499,3.4788,3.4458,3.4092,3.3688,3.3276,3.29,3.2441,3.1854,3.1387,3.1322,3.1193,3.0806,3.0417,2.9699,2.8993,2.7459,2.5577,2.4413,2.3491,2.2331,2.1272,2.0768,2.0696,2.0665,2.0665,2.0587,2.0569,2.0472,2.0327,2.0177,2.0116,1.9996,1.9839,1.9694,1.9555,1.9458,1.9427,1.9324,1.9227,1.916,1.9136,1.9136,1.9136,1.9136,1.9136,1.9136,1.9136,1.9136,1.9136,1.9054,1.9106,3.3817,3.3817,3.3817,3.3817,3.3817,3.3817,3.3817,3.3817,3.3817,3.3817,3.3817,3.3844,3.4037,3.4358,3.466,3.5128,3.554,3.5825,3.6036,3.6146,3.6201,3.6201,3.6201,3.6201,3.6201,3.6201,3.6201,3.6182,3.6155,3.6036,3.5843,3.565,3.5366,3.5219,3.5109,3.5045,3.5064,3.5009,3.5064,3.4788,3.4339,3.433,3.4348,3.4458,3.4532,3.4678,3.4733,3.4917,3.4963,3.5018,3.4972,3.4972,3.4954,3.4954,3.499,3.5054,3.5146,3.5293,3.5339,3.5403,3.5476,3.5476,3.5522,3.5586,3.5311,3.499,3.4651,3.4238,3.3707,3.3303,3.2634,3.2029,3.1607,3.146,3.135,3.112,3.0732,3.0209,2.9765,2.9198,2.7359,2.5659,2.4488,2.2799,2.1698,2.0732,2.0671,2.0665,2.0665,2.0665,2.0665,2.0641,2.0484,2.0442,2.0493,2.0273,2.0086,1.9953,1.9833,1.9633,1.9483,1.9421,1.9312,1.9239,1.9172,1.9136,1.9136,1.9136,1.9136,1.9136,1.9136,1.9136,1.9136,1.9136,1.9124,3.3817,3.3817,3.3872,3.389,3.3899,3.3963,3.4,3.4,3.3991,3.4,3.4037,3.4037,3.4165,3.4229,3.4431,3.4954,3.5375,3.5632,3.587,3.6127,3.6191,3.6201,3.6201,3.6201,3.6201,3.6201,3.6201,3.6201,3.6191,3.6109,3.5981,3.5742,3.5632,3.554,3.5274,3.5192,3.5293,3.5339,3.5348,3.5265,3.5146,3.5001,3.4963,3.4972,3.5082,3.51,3.5109,3.5174,3.5174,3.5238,3.5311,3.5329,3.5339,3.5366,3.5329,3.5403,3.5568,3.5669,3.5742,3.5916,3.6036,3.6136,3.6201,3.6054,3.5742,3.5504,3.5164,3.4761,3.4229,3.3587,3.2918,3.2331,3.1928,3.1478,3.1423,3.1377,3.1055,3.0732,3.0555,3.0378,2.8831,2.7012,2.533,2.359,2.2242,2.1214,2.0665,2.0665,2.0665,2.0665,2.0665,2.0665,2.0599,2.0599,2.0698,2.0515,2.0303,2.0243,2.0104,1.9833,1.9621,1.9561,1.9499,1.9294,1.9239,1.9227,1.9096,1.9136,1.9136,1.9136,1.9136,1.9136,1.9136,1.9136,1.9136,3.3817,3.3835,3.4156,3.4284,3.433,3.4623,3.4726,3.4798,3.477,3.4807,3.4733,3.4715,3.4568,3.3963,3.4284,3.4733,3.5183,3.544,3.5825,3.6155,3.6191,3.6201,3.6201,3.6201,3.6201,3.6201,3.6201,3.6201,3.6201,3.6201,3.6182,3.6054,3.6063,3.6026,3.5999,3.5916,3.5852,3.5834,3.5843,3.5834,3.5696,3.5485,3.5073,3.5137,3.5339,3.544,3.5577,3.5834,3.5935,3.5981,3.5925,3.5889,3.5852,3.5825,3.5825,3.5788,3.5953,3.5981,3.6081,3.6136,3.6201,3.6201,3.6201,3.6182,3.6008,3.5999,3.5678,3.5385,3.4798,3.4055,3.3386,3.279,3.2313,3.168,3.1377,3.1377,3.1249,3.1184,3.1129,3.0538,2.96,2.785,2.6239,2.4431,2.2627,2.1678,2.0804,2.0735,2.0665,2.0665,2.0665,2.0665,2.0665,2.0665,2.0659,2.0653,2.0521,2.0478,2.0376,2.011,1.9917,1.9839,1.9688,1.9476,1.9344,1.9307,1.9229,1.912,1.9136,1.9136,1.9136,1.9136,1.9136,1.9136,1.9136]}]]